GFSGL_925_thetae_000.txt.gz
Theta_e
300 299 298 296 295 294 294 293 292 291 290 289 289 289 289 289 289 288 288 288 288 287 287 287 287 286 286 285 286 286 286 287 287 288 287 287 287 287 287 287 287 288 287
298 296 295 294 294 293 293 292 291 290 289 289 288 288 288 288 288 288 288 288 288 287 287 287 286 285 285 285 286 286 286 287 286 286 287 287 287 287 287 287 286 285 285
296 295 293 293 293 293 292 291 290 290 289 288 288 288 288 288 288 287 287 288 287 287 287 286 285 285 285 285 286 286 287 287 287 287 287 286 286 287 285 284 283 283 283
295 293 293 292 292 292 291 290 289 288 288 288 288 288 288 287 287 287 288 288 287 287 286 286 285 285 285 286 286 287 286 285 286 286 287 287 287 285 284 283 283 282 283
293 293 292 292 291 291 290 289 288 288 288 287 287 287 287 286 286 287 287 287 287 286 286 285 285 285 286 286 286 286 286 286 287 287 286 286 285 284 283 282 282 283 283
293 292 291 291 290 290 289 288 288 287 287 287 287 286 286 285 285 287 287 286 286 285 285 285 285 285 285 285 285 285 286 287 286 286 286 285 283 283 282 282 283 284 282
292 291 290 290 289 289 288 287 287 287 287 287 286 285 285 284 285 286 286 286 285 285 284 284 284 284 285 285 285 285 285 286 286 284 283 283 283 283 283 283 282 282 282
291 290 290 289 288 288 287 287 286 287 286 286 285 284 284 283 284 285 285 285 284 284 284 284 284 285 284 285 285 285 286 283 282 282 282 283 283 282 282 282 282 282 282
289 289 288 288 287 287 286 286 286 286 285 285 284 284 283 283 283 284 285 284 284 284 284 284 284 284 284 285 286 285 282 281 281 283 283 282 281 281 281 282 282 281 281
288 288 287 287 287 286 286 286 285 285 284 284 283 283 283 283 283 284 284 284 284 283 284 284 284 284 285 286 284 282 281 281 282 281 279 279 279 280 281 280 281 280 280
287 287 287 286 286 285 286 285 284 284 283 283 283 283 283 283 282 283 284 284 284 284 285 285 284 285 284 283 282 280 281 282 281 279 279 279 280 280 280 280 280 280 280
287 286 286 285 285 285 285 284 283 283 283 282 282 283 283 282 282 283 284 285 285 285 285 284 284 283 282 281 280 281 281 281 279 279 280 280 280 279 279 279 279 280 280
286 285 285 284 285 284 283 283 282 282 282 282 282 282 282 282 282 282 283 284 284 284 284 284 282 281 280 279 279 280 280 279 279 280 280 279 279 279 279 279 280 280 280
285 284 284 284 284 283 283 282 282 282 282 282 282 282 282 282 282 283 284 283 283 284 283 281 280 279 279 279 278 278 278 279 279 279 279 279 279 279 280 280 280 280 280
284 283 283 283 283 282 282 281 282 282 282 282 282 282 282 282 282 283 283 284 283 283 282 279 279 278 278 278 278 278 278 278 279 278 279 279 279 279 279 279 280 280 281
283 282 282 282 282 282 281 281 281 281 281 282 281 282 282 282 282 282 283 283 282 281 279 278 278 278 278 278 278 278 278 278 278 278 278 278 278 279 278 280 280 281 282
282 282 282 282 282 281 281 281 280 280 280 280 280 280 281 281 281 282 282 281 279 279 278 278 278 278 277 277 278 278 277 277 277 277 277 278 278 278 279 279 280 281 281
282 282 282 281 281 281 281 280 280 279 279 279 279 279 279 280 281 281 280 278 277 277 278 277 277 277 277 277 277 277 277 277 277 277 278 277 277 278 278 279 280 281 282
282 281 281 281 281 281 280 280 279 279 279 278 278 278 278 279 280 279 278 277 277 277 277 277 277 277 277 277 277 276 276 276 278 277 277 277 278 278 279 279 280 282 283
281 280 281 281 280 280 280 279 279 278 278 278 277 277 278 280 278 277 277 277 277 276 276 276 276 276 276 276 276 276 276 276 276 276 277 277 278 279 279 280 281 281 281
280 280 280 280 280 280 279 279 278 277 277 277 277 277 279 279 277 276 276 276 276 276 276 276 276 275 275 275 275 275 275 275 276 276 277 277 278 279 280 281 282 281 281
280 280 279 279 279 278 278 277 277 277 277 277 277 277 278 276 276 276 276 276 275 275 275 275 275 275 275 275 275 275 275 275 276 276 277 278 278 279 281 283 282 282 282
279 279 278 278 277 277 277 276 277 276 277 277 277 276 276 276 275 275 275 275 274 274 274 274 274 275 275 275 275 275 275 276 277 277 277 278 280 283 284 284 283 283 283
278 277 277 277 276 277 276 276 276 276 276 276 276 275 275 275 275 275 274 274 274 273 273 274 275 275 276 276 276 277 278 279 278 280 283 285 285 285 285 285 285 284 284
277 276 276 276 276 275 275 275 276 276 276 275 275 274 274 274 274 274 273 273 273 273 274 275 276 276 276 277 279 281 284 282 284 286 286 286 286 285 286 286 287 285 284
276 276 275 275 275 275 275 275 275 275 274 274 274 273 273 274 273 273 272 272 272 273 274 276 278 278 278 280 283 285 285 286 286 287 287 286 286 286 286 287 287 286 285

GFSGL_925_thetae_003.txt.gz
Theta_e
304 302 300 298 297 296 296 294 293 292 290 289 289 288 288 288 288 288 287 287 287 287 287 287 286 286 285 285 284 285 285 285 286 286 287 287 287 286 286 286 287 287 286
300 299 297 296 295 295 294 293 291 290 289 288 288 288 288 288 287 287 287 287 287 287 287 287 286 286 285 285 285 285 285 285 285 286 286 286 285 286 286 286 286 285 284
297 296 295 294 294 293 293 291 290 289 288 288 288 288 288 287 287 286 287 287 287 287 286 286 286 285 285 285 285 285 285 286 286 285 285 285 286 286 286 285 283 283 282
296 295 294 293 293 292 291 290 289 288 288 288 288 287 287 286 285 287 287 287 286 286 285 285 285 285 285 285 285 286 286 285 285 285 286 287 285 286 285 283 283 282 282
295 294 293 292 292 291 290 289 288 288 288 288 287 286 286 285 285 287 287 286 286 284 284 284 284 284 285 285 286 285 285 285 286 287 285 286 284 283 283 282 282 282 283
294 293 292 291 291 290 289 288 288 287 288 287 286 285 285 284 285 287 287 286 285 284 283 283 284 284 284 284 284 285 285 286 286 286 284 284 282 282 282 282 283 282 282
292 292 291 290 290 289 288 287 287 287 287 286 285 284 284 284 285 286 286 285 284 283 283 283 283 283 284 284 284 285 286 286 284 284 282 282 282 282 283 283 282 282 282
291 290 290 290 289 288 287 287 287 286 286 285 284 284 283 283 284 285 285 285 284 284 283 283 284 284 284 284 286 285 283 282 282 281 282 283 283 282 282 282 282 282 282
290 290 289 289 288 287 286 286 286 286 285 284 284 283 283 283 283 284 285 284 284 284 284 284 284 284 284 286 285 283 282 281 281 282 283 282 281 281 281 282 281 281 280
289 288 288 287 287 286 286 285 285 284 284 283 283 283 283 282 282 284 284 284 284 284 284 284 284 284 284 285 283 282 280 280 282 281 279 279 279 279 281 280 280 280 280
288 287 287 286 286 285 285 285 284 283 283 282 283 283 282 282 282 283 284 285 285 285 284 283 283 284 283 283 282 280 281 283 281 278 279 279 280 280 280 279 279 280 280
287 286 286 285 285 285 284 284 283 282 282 282 282 282 282 282 282 282 284 284 285 284 284 283 283 283 282 281 280 281 281 281 278 279 279 280 279 279 279 279 279 279 280
286 285 284 284 284 284 283 282 282 282 281 282 282 282 281 281 281 282 283 284 284 284 283 283 282 281 280 279 279 280 280 278 278 279 279 279 279 279 279 279 279 280 280
284 284 283 283 283 283 282 282 281 281 281 282 282 281 281 281 281 282 283 283 284 283 282 281 280 279 278 278 278 278 278 278 279 279 278 278 278 278 279 279 279 279 280
283 283 283 283 282 282 281 281 281 281 282 282 282 281 281 281 282 283 283 284 283 282 282 279 278 278 277 277 277 277 277 277 278 277 277 277 278 278 278 279 279 280 280
283 282 282 282 282 281 281 280 280 281 281 281 281 281 281 281 282 282 283 282 282 280 279 278 277 277 277 277 277 277 277 277 277 277 277 277 277 278 278 279 279 279 280
282 282 282 281 281 280 280 280 279 279 279 279 279 280 280 280 281 282 282 281 279 279 278 277 277 277 276 276 277 277 277 276 276 276 276 277 278 277 278 278 279 279 280
281 282 281 281 280 280 280 280 279 279 278 278 278 278 279 280 280 281 280 278 277 277 277 277 276 276 276 276 276 276 276 276 276 276 277 276 276 277 278 278 279 279 282
281 281 281 280 280 280 280 279 278 278 277 277 277 277 277 278 280 279 278 276 276 276 276 276 276 276 276 276 276 275 275 275 277 276 275 276 277 277 278 278 279 281 283
280 280 281 280 280 279 279 278 278 277 277 276 276 276 277 279 278 276 276 276 276 276 276 275 275 275 275 275 275 275 275 275 275 275 275 276 277 277 278 279 280 281 281
280 280 280 279 279 278 277 278 277 276 276 276 276 276 278 278 276 276 275 275 275 275 275 275 274 274 274 274 274 275 275 275 275 275 276 276 277 277 278 279 280 282 281
280 279 278 278 278 277 278 277 276 276 276 276 276 276 277 276 275 275 275 275 275 274 274 274 274 274 274 274 274 274 274 274 275 276 276 277 277 278 279 281 283 283 282
279 278 277 277 276 277 276 276 276 275 276 276 276 276 275 275 275 274 274 274 273 273 273 273 274 274 275 275 275 275 275 276 276 277 277 277 279 280 283 284 283 283 282
277 277 276 276 276 276 275 275 275 275 276 276 275 275 274 274 274 274 273 273 273 273 273 274 275 276 276 276 276 278 278 279 279 280 283 284 285 285 285 285 285 284 284
276 276 275 275 275 274 274 275 275 275 275 274 274 274 274 273 273 273 272 272 272 272 273 275 277 276 276 278 281 283 284 281 284 286 287 286 285 285 286 286 285 285 284
275 275 275 274 274 274 274 274 274 274 273 273 273 272 272 272 272 272 272 272 272 273 274 276 278 278 279 282 284 286 285 286 286 287 287 287 286 286 286 287 286 285 284

GFSGL_925_thetae_006.txt.gz
Theta_e
306 305 304 300 299 297 296 294 293 292 290 289 288 288 288 288 288 287 287 287 287 287 287 286 286 286 286 285 285 284 284 284 284 285 285 285 285 285 284 285 285 285 286
303 301 299 297 296 295 293 292 291 290 289 288 288 288 288 288 287 286 286 287 287 287 286 285 285 285 285 285 285 284 284 285 284 284 285 285 284 285 285 286 285 285 285
299 298 295 295 294 293 292 291 290 289 288 288 288 288 287 287 286 286 287 287 287 286 285 284 284 284 284 284 284 284 284 284 285 285 284 284 285 285 285 285 284 283 282
296 296 294 293 293 292 291 290 289 288 288 288 288 287 286 286 285 286 287 287 286 286 284 284 283 283 284 284 284 285 285 284 284 284 284 285 286 285 283 282 282 282 282
295 294 293 292 292 291 290 289 288 287 288 287 287 286 286 285 284 286 287 287 286 285 283 283 283 283 284 284 285 284 284 285 285 286 286 285 283 282 282 281 282 282 282
293 292 291 291 291 290 289 288 287 287 287 287 286 285 285 284 284 287 287 287 285 284 283 283 283 283 283 284 284 285 286 287 284 284 283 282 281 281 281 282 283 282 282
292 291 290 290 290 289 288 287 287 287 286 286 285 284 284 283 284 286 286 286 285 284 284 284 284 284 284 284 284 285 285 284 283 282 281 281 281 282 283 282 282 282 282
291 290 290 290 288 287 287 286 286 286 286 285 284 284 283 283 284 284 285 285 284 284 284 284 284 284 284 284 285 285 283 282 281 281 281 282 283 282 281 282 282 282 281
290 290 289 288 287 286 286 286 286 285 285 284 283 283 283 283 282 283 285 284 284 284 284 284 284 284 284 285 285 283 282 281 280 282 283 281 281 281 281 282 281 280 280
289 288 288 287 286 286 285 285 284 284 283 283 283 282 282 282 282 283 284 284 284 284 284 283 283 284 284 285 284 282 280 280 281 281 279 279 279 279 280 280 280 280 280
287 287 286 286 286 285 285 284 283 283 283 282 282 282 282 282 281 282 284 284 284 284 283 284 283 283 283 283 282 280 280 282 281 278 278 278 279 279 279 279 279 279 279
286 286 285 285 284 284 284 283 283 282 282 281 282 282 282 281 281 282 283 284 284 284 284 283 283 283 282 281 280 280 281 281 278 278 278 279 278 278 278 278 278 278 279
286 285 284 284 283 283 283 283 282 281 281 282 282 281 281 281 281 281 282 283 283 284 283 283 282 281 279 278 279 280 279 277 278 278 279 278 277 277 277 278 278 278 279
284 284 283 284 283 283 282 282 281 281 281 282 281 281 281 281 281 281 282 283 283 282 282 281 280 278 278 278 277 277 277 277 278 278 277 277 277 277 277 278 278 278 279
283 283 283 283 282 282 281 281 281 281 281 282 281 281 281 281 281 282 282 284 282 282 281 279 277 277 277 277 277 277 277 277 277 276 276 276 277 277 277 278 278 278 278
282 282 283 282 281 281 281 280 280 280 281 281 280 280 280 281 281 281 283 282 281 280 279 277 277 277 276 276 276 276 276 276 276 276 276 276 276 277 277 278 277 278 279
282 282 282 281 281 280 280 280 279 279 279 279 279 279 280 280 280 281 281 280 278 278 277 276 276 276 276 276 276 276 276 276 276 276 276 276 277 276 277 277 277 278 279
282 282 281 281 280 280 280 279 278 278 277 277 277 278 278 279 280 281 279 278 276 276 276 276 276 276 275 275 276 275 275 275 275 275 276 276 275 276 276 277 277 278 280
282 281 281 280 280 280 279 278 278 277 277 276 276 276 277 278 280 278 277 276 276 276 275 275 275 275 275 275 275 275 274 275 276 276 275 275 276 276 276 277 277 280 282
281 280 281 280 279 279 278 277 277 276 276 276 276 276 276 278 277 276 275 275 275 275 275 275 274 274 274 274 274 274 274 275 275 275 275 275 276 276 277 277 278 279 280
280 280 279 278 278 278 277 277 276 276 275 275 276 276 278 278 275 275 275 275 274 274 274 274 273 274 274 274 274 274 274 274 275 275 275 276 276 277 277 278 279 280 282
280 278 278 277 277 276 277 277 275 275 275 275 275 275 276 275 274 274 274 274 274 274 273 273 273 274 274 274 274 274 274 274 275 276 276 277 277 278 279 280 281 283 282
279 277 277 276 276 276 276 275 275 275 275 275 275 275 274 274 274 274 273 273 273 273 273 273 274 274 275 275 274 274 274 275 276 277 277 279 279 281 282 283 284 283 283
277 276 276 276 275 275 275 275 275 275 275 275 274 274 273 273 273 273 272 272 272 273 273 274 275 275 276 276 277 278 278 279 279 281 284 284 285 285 285 285 284 284 284
276 276 275 275 274 274 274 274 274 274 274 273 273 273 272 272 272 272 272 272 272 272 274 276 277 277 277 278 281 283 284 283 284 286 286 286 286 286 286 286 285 285 284
275 275 275 274 274 273 273 273 273 273 272 272 271 271 271 271 271 271 271 272 272 273 275 277 278 279 279 282 284 285 285 286 287 287 287 286 287 287 287 286 286 285 284

GFSGL_925_thetae_009.txt.gz
Theta_e
307 306 303 300 299 298 296 294 293 292 291 290 289 288 288 288 288 288 287 287 287 287 286 285 285 285 285 285 285 285 285 285 287 286 285 285 285 285 285 285 285 285 285
305 303 301 299 298 296 294 293 292 291 289 289 288 288 288 288 287 287 287 287 287 286 286 285 285 284 284 284 284 284 284 285 285 286 285 285 285 285 285 286 285 285 284
302 300 297 295 294 293 292 291 290 290 289 288 288 288 288 287 287 286 286 287 287 286 286 284 283 283 283 283 284 284 284 285 285 285 285 285 285 285 285 284 283 282 282
298 296 294 293 293 292 291 290 289 288 288 288 288 287 287 287 286 285 287 287 287 286 286 284 283 283 283 284 284 285 285 284 285 285 286 286 284 284 283 283 283 282 283
295 293 292 292 291 290 290 289 288 288 288 288 287 287 286 286 285 286 287 287 286 286 285 284 283 284 284 285 285 285 285 285 286 286 285 284 284 283 282 282 283 283 283
293 292 291 290 290 289 288 288 287 288 287 287 286 286 285 284 284 287 287 287 286 285 284 284 284 284 284 284 284 284 285 287 286 285 284 283 282 282 282 283 283 283 284
292 290 290 290 289 288 287 287 287 287 286 286 285 285 284 283 284 286 286 286 285 284 284 284 284 284 284 283 284 285 286 285 284 283 282 282 282 282 283 282 282 282 283
290 289 289 289 288 287 287 287 286 286 285 285 284 283 283 283 283 284 285 285 284 284 284 284 284 283 283 284 285 286 284 283 282 282 282 282 283 282 282 282 282 282 282
289 289 288 288 287 287 286 286 285 285 284 284 283 283 282 282 282 283 284 284 284 284 284 284 284 284 284 284 285 284 283 282 281 282 283 282 281 281 281 281 281 281 282
288 288 287 287 287 286 285 285 284 284 283 283 282 282 282 281 281 283 284 284 284 284 284 284 283 283 284 285 284 282 281 281 282 283 280 279 279 279 280 280 280 280 280
287 287 287 286 286 285 284 284 283 283 282 282 282 282 281 281 281 282 283 284 284 284 284 284 283 283 284 283 282 281 281 282 282 279 279 279 279 280 279 279 279 278 279
287 286 285 285 284 284 283 283 283 282 281 281 282 281 281 281 281 282 283 284 284 284 284 283 283 283 282 281 280 280 281 281 278 278 279 279 279 278 278 278 278 278 278
286 285 284 284 283 283 283 282 282 281 281 281 281 281 281 281 280 281 282 283 283 284 283 282 282 281 279 279 279 280 279 278 278 279 279 279 278 278 277 278 278 278 279
285 284 283 283 282 282 282 281 281 281 281 281 281 281 281 280 280 281 282 282 283 282 282 281 280 278 278 278 277 278 278 278 278 278 278 277 277 277 278 278 278 279 279
284 283 282 282 282 282 281 281 280 280 281 282 281 281 280 280 281 282 282 283 282 282 281 279 278 277 277 277 277 277 277 277 277 277 277 277 277 278 278 278 278 278 279
282 282 282 282 282 281 280 280 280 279 280 280 280 280 280 280 281 281 282 282 281 280 279 277 277 277 277 277 277 277 277 277 276 276 276 276 277 277 278 278 278 278 279
282 282 282 281 280 280 280 280 279 279 278 278 278 279 279 280 280 281 281 280 278 278 277 277 276 276 276 276 276 276 276 276 275 275 275 276 276 277 277 277 278 278 279
282 282 281 281 280 280 280 279 278 277 277 277 277 277 278 279 279 280 279 278 276 276 276 276 276 276 275 275 275 276 276 275 275 275 276 277 276 276 277 277 278 278 279
281 281 281 280 279 279 279 278 277 277 276 276 276 276 276 277 279 278 277 276 275 275 275 275 275 275 274 275 275 275 275 275 276 276 275 276 276 276 277 277 278 280 281
281 281 281 279 278 278 277 277 277 276 275 275 275 275 276 277 278 276 275 275 275 275 275 275 274 274 274 274 274 274 274 275 275 275 276 276 276 276 277 278 279 280 281
281 280 279 278 277 277 276 277 276 275 275 275 275 275 277 278 276 275 275 274 274 274 274 274 273 273 273 274 274 274 274 274 275 275 276 276 277 277 278 279 280 281 282
280 278 277 277 276 276 277 276 275 275 275 275 275 275 276 275 274 274 274 274 274 274 273 272 273 274 274 274 274 273 274 274 275 276 276 277 278 279 280 281 281 283 284
279 277 276 276 275 276 275 275 275 274 275 275 275 275 274 274 274 273 273 273 273 273 273 273 273 275 276 275 275 274 274 275 276 276 277 278 279 281 282 283 285 284 284
277 276 275 275 275 275 274 274 274 274 274 274 274 274 273 273 273 272 272 272 272 272 273 274 275 276 277 277 277 278 278 278 278 280 283 284 286 285 286 285 285 284 283
276 275 275 275 274 274 274 274 273 273 273 273 272 272 272 271 271 271 272 272 272 273 274 276 278 278 278 278 281 282 284 283 284 287 287 286 286 287 286 286 285 284 284
275 275 274 274 274 273 273 273 273 272 272 271 271 271 270 271 271 272 272 273 273 274 276 278 279 280 280 282 284 285 285 285 287 287 287 286 286 286 286 285 285 284 284

GFSGL_925_thetae_012.txt.gz
Theta_e
307 306 303 299 298 299 298 296 294 293 292 291 291 290 290 290 289 289 289 289 289 290 289 288 288 287 287 287 287 287 287 287 289 288 287 287 287 287 287 287 287 286 286
304 305 301 298 297 297 295 294 292 292 291 290 290 290 290 289 288 288 289 289 289 289 289 288 287 286 286 286 286 286 286 286 286 288 287 286 286 287 287 286 286 285 285
303 299 298 297 297 295 293 292 291 291 290 289 290 289 289 288 288 287 288 289 289 288 288 287 286 285 285 285 285 286 286 286 286 287 287 287 287 287 286 285 285 284 284
298 299 297 296 294 293 291 291 290 290 289 289 289 288 287 287 287 287 288 289 289 288 287 287 286 285 285 285 286 286 286 286 286 286 287 288 287 286 285 285 284 284 284
298 297 295 293 292 291 290 289 289 289 289 288 288 287 286 286 286 287 289 289 288 288 287 286 286 285 285 285 286 286 286 285 286 287 289 287 286 285 284 284 284 284 284
296 293 292 291 291 290 289 289 289 288 288 287 287 286 286 285 284 287 287 287 287 287 286 286 286 285 285 285 285 285 285 286 287 287 286 286 284 284 284 284 285 284 286
293 292 291 291 290 289 289 289 288 288 287 287 286 285 285 285 284 286 286 286 286 286 286 286 285 285 285 285 284 285 286 287 286 285 284 283 283 283 284 285 284 284 284
292 291 290 290 289 288 288 288 287 287 286 286 285 285 284 284 283 285 285 286 286 285 285 285 285 285 285 285 285 286 286 284 284 283 283 283 283 284 284 283 283 283 283
291 290 289 289 288 288 288 287 286 286 285 285 284 284 284 284 283 284 285 285 285 285 285 285 285 285 284 284 286 285 284 283 283 282 283 284 283 282 282 282 283 283 284
290 289 288 288 288 287 287 286 285 285 284 284 284 284 283 283 283 283 284 284 285 285 285 285 285 284 284 285 284 283 283 282 282 283 283 282 281 282 282 282 282 282 282
288 288 287 287 286 286 285 284 284 284 284 284 284 284 283 282 282 283 283 284 284 284 285 284 284 284 284 283 283 282 282 282 283 282 281 281 282 282 282 282 281 281 281
287 286 286 285 284 284 284 284 284 283 284 284 284 284 283 283 282 282 283 283 284 284 284 284 283 283 282 282 281 281 282 282 281 281 281 281 282 281 281 281 280 280 280
286 285 284 284 283 283 284 284 284 283 283 283 283 283 283 282 282 282 282 283 284 284 283 283 283 282 281 280 280 280 280 280 280 280 280 280 280 280 280 280 281 280 280
285 284 284 284 283 283 283 283 283 283 283 283 283 282 282 282 282 282 283 283 283 283 282 282 281 280 279 279 280 280 280 280 280 280 280 279 279 280 280 281 280 280 281
285 284 284 284 284 283 282 282 282 282 282 282 282 281 281 281 281 282 282 283 283 282 281 281 280 279 279 280 280 280 280 280 279 279 279 279 279 280 280 280 280 280 281
284 284 284 283 283 282 282 282 281 279 280 280 280 280 280 281 281 281 282 282 281 281 280 280 279 279 279 279 279 279 279 279 279 278 278 279 279 279 279 280 280 281 281
284 284 283 283 282 282 282 281 281 280 279 279 279 279 279 280 280 280 281 280 280 279 279 278 278 278 278 278 278 278 278 278 278 278 278 278 279 279 279 279 280 281 282
283 282 283 282 281 281 281 280 280 280 279 279 278 278 278 279 279 280 280 278 278 278 278 278 278 278 278 278 278 278 278 278 277 278 278 278 278 278 279 280 280 281 282
283 282 282 281 281 280 280 279 279 279 278 278 278 278 278 278 279 279 278 277 277 277 277 277 277 277 277 277 277 277 277 277 278 278 277 278 278 279 279 279 280 281 283
283 282 281 280 279 279 279 278 279 278 277 278 278 278 277 279 279 278 277 277 277 277 276 277 277 277 277 276 276 276 276 277 277 277 278 278 278 279 279 280 281 282 283
281 280 279 279 278 278 278 278 278 277 277 277 277 277 277 278 277 277 276 276 276 276 276 276 276 276 276 275 276 276 276 276 276 277 277 278 279 279 280 281 282 283 284
279 278 278 278 277 277 278 277 277 277 277 277 277 277 277 276 276 276 276 275 275 275 275 275 275 275 275 275 275 275 275 275 276 277 277 278 279 280 281 283 284 285 286
278 277 277 277 276 277 277 276 276 276 277 277 276 276 276 275 275 275 275 274 274 274 274 274 274 275 276 275 275 275 275 276 276 277 277 278 280 281 283 285 287 287 285
277 276 276 276 276 276 276 276 276 276 276 276 275 275 274 274 274 274 274 274 274 274 274 274 275 276 277 277 277 277 277 278 278 280 282 283 286 286 286 287 287 286 285
276 276 276 276 275 275 275 276 276 275 275 275 274 274 274 273 273 274 274 274 273 273 274 275 277 278 278 279 281 283 283 283 283 286 287 287 286 286 287 287 285 285 285
275 275 275 275 275 275 275 275 275 274 274 274 273 273 273 273 273 273 273 273 274 274 276 278 279 280 281 282 284 284 284 286 286 287 286 285 286 286 286 285 284 285 285

GFSGL_925_thetae_015.txt.gz
Theta_e
314 307 305 303 303 301 301 299 298 296 295 295 294 293 293 292 292 291 291 291 291 291 291 291 290 290 289 288 287 287 288 288 289 288 288 288 288 287 287 288 288 287 287
311 305 303 302 300 300 298 297 296 295 294 293 293 293 292 291 291 291 291 291 291 291 291 290 290 289 288 287 287 287 287 287 288 288 288 288 288 287 287 288 287 287 286
304 301 299 299 299 298 297 295 295 294 293 292 292 292 291 290 290 290 289 290 290 290 290 290 289 288 287 287 286 287 287 287 288 288 288 287 287 288 288 287 286 286 285
301 299 299 298 296 296 295 294 293 292 292 292 291 290 289 289 288 288 289 290 291 290 290 289 288 287 287 286 286 286 287 287 287 286 287 287 287 288 286 286 285 285 285
300 299 299 297 295 294 293 292 292 292 291 291 290 289 288 288 287 287 289 290 289 289 289 288 287 287 286 286 287 287 286 286 286 286 287 287 287 286 285 285 285 285 284
299 298 295 294 293 292 291 291 291 290 290 289 289 288 288 287 286 286 288 288 288 288 288 287 287 287 286 286 286 286 286 286 286 287 288 286 286 285 284 284 284 285 285
295 294 294 292 292 291 291 291 291 290 289 288 287 287 287 287 285 286 286 286 287 287 287 287 286 286 286 286 285 285 285 286 287 286 285 285 284 284 283 284 285 284 284
293 294 292 292 291 291 291 290 289 289 288 288 287 286 286 286 285 285 285 286 286 286 286 286 286 286 285 286 285 285 286 285 285 284 284 283 283 284 285 285 283 283 283
292 292 291 291 291 290 290 289 288 288 287 287 286 286 286 285 284 284 285 285 285 286 286 286 286 286 285 285 285 285 285 284 283 283 283 284 284 284 283 283 283 283 283
292 291 291 290 290 289 288 287 287 287 286 286 286 285 285 284 284 284 284 284 285 285 285 285 285 285 285 285 285 284 283 283 282 283 283 283 282 282 283 283 283 283 283
290 290 289 289 288 287 287 286 286 286 286 286 285 285 285 284 284 283 284 284 284 284 285 284 284 284 284 284 284 283 282 282 283 282 282 282 282 282 283 282 282 282 282
288 288 287 287 286 286 286 286 285 285 285 285 285 285 285 284 283 283 283 284 284 284 284 284 284 284 284 283 282 282 282 282 281 281 281 281 281 281 281 281 281 281 281
287 287 286 285 285 286 286 286 286 285 285 285 285 284 284 283 283 283 283 284 284 284 284 284 283 283 282 281 281 282 282 281 281 281 281 281 281 280 280 280 281 281 281
287 286 285 285 285 285 285 285 285 284 284 284 284 283 283 283 282 282 282 282 283 283 283 283 282 282 281 281 281 281 281 281 281 281 280 280 280 280 280 280 281 281 281
286 286 286 285 285 285 284 284 283 283 282 282 282 282 282 281 281 282 282 282 283 283 282 281 281 280 280 280 280 280 280 280 280 280 280 280 279 280 280 280 280 281 281
286 285 285 285 285 284 284 283 283 281 280 280 281 280 280 280 281 281 281 282 282 281 281 280 280 280 280 280 280 279 279 279 279 279 279 279 279 279 280 280 280 280 281
286 285 284 285 284 284 283 283 282 282 281 280 280 279 279 280 280 280 281 282 280 280 279 279 279 279 279 279 279 279 279 279 279 279 279 279 279 280 280 279 280 281 281
284 284 284 284 283 283 282 281 281 281 280 280 279 279 279 279 279 281 281 280 279 279 278 278 278 278 278 278 278 278 278 278 278 278 279 279 279 279 280 280 280 281 281
284 284 283 282 282 281 281 280 280 280 280 279 279 279 279 279 280 280 280 278 278 278 278 278 278 278 278 278 278 278 277 277 278 279 278 279 279 279 280 280 280 282 283
283 282 282 281 281 280 280 279 280 279 279 279 279 279 278 279 279 279 278 277 277 277 277 277 277 277 277 277 277 277 277 277 277 278 278 278 279 279 280 280 281 282 283
282 281 280 280 280 279 279 279 279 278 278 278 278 278 279 279 278 277 277 277 277 276 276 276 276 276 276 276 276 276 276 276 277 277 277 278 279 279 280 281 282 283 284
281 280 279 279 278 278 279 278 278 278 278 278 278 278 278 277 277 276 276 276 276 276 275 275 275 275 276 276 276 276 276 276 276 277 277 278 278 279 281 282 283 285 287
279 279 278 278 278 278 278 278 278 278 278 277 277 277 276 276 276 276 275 275 275 275 275 275 275 276 276 276 276 276 276 277 278 278 278 278 279 280 282 285 287 287 286
278 278 278 277 277 277 277 277 277 277 277 277 276 276 275 275 275 275 275 275 275 275 275 275 275 276 277 278 278 278 279 281 280 280 281 282 284 286 286 286 286 285 285
277 277 277 277 277 277 277 277 277 277 276 276 276 275 275 275 274 274 275 275 274 275 275 276 278 278 279 279 280 283 284 285 283 285 285 285 285 286 286 285 285 284 285
276 276 276 276 276 276 276 276 276 276 275 275 275 275 274 274 274 274 274 275 275 275 277 277 279 280 281 281 283 284 286 287 287 285 285 285 285 286 286 285 285 284 284

GFSGL_925_thetae_018.txt.gz
Theta_e
320 312 309 309 306 302 302 301 300 299 297 296 295 294 294 293 293 292 292 291 291 291 291 291 291 290 290 289 288 287 287 287 286 286 286 287 287 287 287 287 287 288 287
313 309 306 305 303 301 300 298 298 297 296 295 294 293 293 292 291 291 291 291 291 290 290 290 290 289 289 288 287 287 286 286 287 286 287 286 286 286 286 287 287 287 286
308 305 303 302 300 299 297 297 296 295 294 293 293 292 292 291 290 290 289 289 289 290 290 290 290 289 288 287 287 286 286 286 286 286 286 286 285 285 286 287 286 285 285
303 302 301 300 298 297 296 295 294 294 293 292 292 291 291 290 289 289 289 290 290 290 290 290 289 288 288 287 286 286 286 286 286 285 285 285 285 286 286 285 284 284 284
300 299 298 297 295 294 294 293 293 292 292 292 291 290 289 289 288 288 287 288 288 288 288 288 288 287 287 287 287 287 287 286 286 285 286 285 286 285 285 284 283 283 283
299 296 295 294 293 293 292 292 292 291 291 290 289 289 288 287 287 286 288 287 286 286 287 287 287 286 286 287 287 286 286 286 286 285 286 285 285 284 283 283 283 283 284
295 294 294 293 293 292 291 291 291 290 290 289 288 288 287 287 287 285 286 286 285 286 286 286 286 286 286 285 285 286 285 286 286 285 285 284 283 283 283 283 284 284 284
294 294 293 293 292 291 291 290 290 289 288 288 287 287 287 286 286 285 286 284 285 285 285 286 286 285 285 286 286 286 285 285 284 284 283 283 283 284 285 285 284 283 283
294 293 292 292 291 290 290 289 289 288 287 287 286 286 286 285 285 284 285 284 284 285 285 285 285 285 285 286 286 285 285 284 283 283 283 283 284 283 283 283 283 282 283
292 292 291 291 290 289 288 288 288 287 287 286 286 285 285 284 284 284 284 284 284 284 284 284 284 284 285 285 285 285 283 282 282 283 283 281 281 281 282 282 282 281 281
292 290 290 289 288 288 287 287 286 286 286 286 285 285 285 285 284 284 284 284 284 284 284 284 284 284 284 285 285 284 282 283 283 282 281 281 281 281 281 281 281 281 281
289 288 288 287 287 286 286 286 286 286 285 285 285 285 285 284 284 283 284 284 284 284 284 284 284 284 284 283 283 282 283 283 281 281 281 281 281 280 280 280 280 280 280
287 286 286 286 286 286 286 286 285 285 284 284 284 284 284 283 283 283 283 283 283 283 283 283 283 283 282 282 281 282 282 280 280 280 281 280 280 280 280 279 279 279 280
286 286 286 285 285 285 285 285 284 284 283 283 283 282 282 282 281 281 282 282 282 282 283 283 282 281 281 280 280 280 280 280 280 280 280 280 280 280 279 279 279 279 279
285 285 286 285 285 285 284 284 283 283 282 281 281 281 280 280 280 282 282 282 282 283 283 281 280 279 279 279 279 279 279 279 279 279 279 279 279 279 279 279 279 280 280
285 285 285 285 284 284 283 283 283 282 281 281 280 280 280 280 281 281 281 282 282 282 281 279 279 279 278 279 279 278 278 278 278 278 278 278 278 278 279 279 280 279 279
285 285 285 284 284 283 283 282 281 281 282 282 281 280 280 280 280 281 281 282 281 280 278 278 278 278 278 278 278 278 278 278 278 278 278 278 278 279 279 279 279 279 280
285 284 284 283 283 282 282 281 280 280 280 279 279 279 280 280 280 281 281 280 278 278 278 278 278 277 277 277 277 277 277 277 277 277 278 278 278 278 279 279 279 280 280
284 284 283 282 281 281 280 280 280 280 279 278 278 279 279 279 279 279 279 278 277 277 277 277 277 277 277 277 277 277 277 277 278 278 277 277 278 278 279 279 279 281 282
284 283 282 281 280 280 279 279 279 279 278 278 278 278 278 279 278 277 277 277 277 276 276 276 276 276 276 276 276 276 276 276 276 276 277 277 277 278 279 279 280 281 281
282 281 280 280 279 279 278 279 278 278 278 278 278 278 279 279 277 276 276 276 276 276 275 275 275 275 276 276 276 276 275 275 276 276 276 277 277 278 279 279 280 281 283
281 280 279 279 278 278 278 278 278 278 278 277 277 277 278 276 276 275 275 275 275 275 275 275 275 276 276 276 276 276 276 276 277 277 277 277 278 278 279 280 281 283 285
279 279 278 278 278 278 278 277 277 277 277 277 277 276 276 275 275 275 275 275 275 275 275 276 276 277 277 277 276 276 276 278 278 278 278 279 279 281 283 285 285 284 284
278 278 277 277 277 278 277 277 277 277 277 277 276 276 275 275 275 274 274 275 275 276 276 276 276 277 277 278 279 280 281 282 280 281 283 284 284 284 285 285 284 284 283
278 277 277 277 276 276 276 276 276 276 276 275 275 275 275 275 274 274 274 275 275 276 277 277 278 278 279 279 281 283 284 285 284 286 285 284 285 284 285 285 284 283 283
277 276 276 276 276 276 276 275 276 276 275 275 274 274 274 274 274 274 275 275 275 276 277 279 279 280 281 282 283 284 285 286 287 287 285 285 285 285 285 285 284 283 283

GFSGL_925_thetae_021.txt.gz
Theta_e
325 318 318 315 311 311 307 303 301 299 300 299 298 298 295 295 294 293 293 292 292 291 291 291 291 290 290 289 288 288 287 286 285 285 286 286 286 286 285 285 285 286 287
320 316 312 309 308 305 302 301 299 299 298 297 296 295 294 294 293 292 291 291 291 290 290 290 290 290 289 288 288 287 286 286 286 285 285 285 285 285 285 285 285 286 286
313 310 305 305 304 302 300 298 298 298 297 297 295 294 293 292 291 291 290 290 289 290 290 290 290 289 289 288 287 287 286 286 286 286 285 285 285 285 285 285 285 284 284
307 305 304 302 299 298 297 296 296 296 296 294 293 293 292 292 291 290 289 289 290 290 289 289 288 288 287 287 287 287 287 287 286 286 285 284 285 285 285 284 284 284 283
303 302 300 298 296 295 294 294 295 295 294 293 292 292 291 290 289 289 287 288 288 287 287 287 287 287 287 287 288 287 287 286 286 286 284 285 285 284 284 284 283 283 283
299 297 296 294 294 294 294 293 293 292 292 292 291 290 289 288 287 287 287 286 285 285 286 286 286 286 286 287 287 286 286 287 286 286 285 285 284 283 283 283 282 283 283
294 294 294 294 293 293 292 292 292 291 290 290 289 289 288 287 287 286 286 285 284 285 285 285 285 285 286 285 285 286 286 286 286 285 284 283 283 283 283 282 283 284 284
294 293 293 293 292 293 293 293 291 291 290 289 288 287 287 287 286 285 286 284 284 284 285 285 284 285 285 286 286 286 285 285 284 284 283 283 283 283 284 284 283 283 282
294 294 294 295 294 293 291 290 290 291 288 287 286 286 286 285 285 285 285 284 283 284 284 284 284 284 284 285 286 285 285 284 283 283 283 284 284 283 283 282 281 281 281
293 292 293 292 291 291 291 291 288 287 287 286 286 285 285 284 285 285 285 284 284 284 284 284 284 284 285 285 285 285 284 283 283 283 283 282 281 281 281 281 281 280 280
293 293 292 292 291 290 288 287 287 286 286 285 285 285 285 284 284 284 284 284 284 284 283 283 283 284 284 285 284 284 283 283 283 281 280 280 280 280 280 280 280 280 280
291 289 288 288 287 287 287 286 286 285 285 285 284 284 284 283 283 283 284 284 284 283 283 283 283 284 284 283 283 282 283 283 280 280 280 280 280 280 280 279 280 279 279
287 287 287 287 286 286 286 285 285 284 284 284 284 283 283 282 282 282 282 283 283 283 282 283 283 283 281 281 280 281 281 279 279 279 280 279 279 279 279 279 279 279 279
286 286 286 286 285 285 285 285 284 283 283 283 282 281 280 280 280 280 282 282 282 282 283 282 282 280 279 279 279 279 279 279 279 279 279 278 278 279 279 279 279 279 279
286 286 286 285 285 285 284 283 283 282 281 281 281 280 280 280 280 282 282 282 282 283 283 281 279 278 278 278 278 278 278 278 278 278 277 278 278 278 278 278 278 279 279
285 285 285 285 284 283 283 283 283 282 281 281 281 280 280 280 281 281 282 282 283 282 280 278 278 278 277 277 277 277 277 277 277 277 277 277 277 277 277 278 279 279 279
285 285 284 284 283 282 282 281 281 280 281 281 281 280 280 281 281 281 282 282 280 279 278 277 277 277 277 277 277 276 276 277 277 276 276 276 276 277 279 278 278 279 279
284 284 283 283 282 281 281 280 280 279 279 278 278 280 280 280 280 280 280 278 277 277 277 277 277 276 276 276 276 276 276 276 276 276 277 277 277 277 277 278 278 279 279
284 283 282 281 281 280 280 279 279 279 278 278 278 278 278 279 280 278 278 276 276 276 276 276 276 275 275 275 276 276 276 275 277 277 276 276 277 277 277 278 278 280 281
283 282 281 281 280 279 279 279 279 278 277 278 277 278 278 279 277 276 276 276 276 275 275 275 275 275 276 276 276 276 275 275 275 276 276 276 277 277 277 278 279 279 280
282 281 280 280 279 278 278 278 278 277 277 277 277 277 279 278 276 275 275 275 275 275 275 275 275 276 277 276 276 276 275 275 275 276 276 277 277 277 278 278 279 280 281
281 280 279 279 278 278 278 278 277 277 277 277 277 277 277 276 275 275 275 275 275 275 276 276 276 277 277 276 276 276 276 276 277 278 278 278 278 279 280 281 282 283 284
280 279 278 278 277 278 277 277 277 277 277 277 276 276 275 275 275 275 274 275 275 276 277 277 277 277 278 278 277 277 277 279 280 280 280 280 281 281 283 284 284 284 284
279 278 277 277 277 277 276 277 276 276 276 276 275 275 275 275 275 274 274 275 276 277 277 277 277 278 278 279 280 281 281 282 282 283 284 285 285 284 284 284 285 284 283
278 277 277 276 276 276 276 276 275 276 275 275 275 274 274 274 274 274 274 275 276 277 277 277 279 279 280 280 282 282 283 284 284 286 287 286 286 286 286 285 285 285 284
277 276 276 276 276 275 275 275 275 275 275 274 274 274 274 274 274 274 274 275 275 276 276 278 279 280 281 282 283 282 283 285 285 287 287 287 286 286 286 287 286 286 286

GFSGL_925_thetae_024.txt.gz
Theta_e
319 328 325 320 319 318 315 312 309 305 303 301 302 301 298 299 297 295 295 293 293 292 292 291 291 291 290 290 289 288 288 286 284 285 285 286 286 286 285 284 285 285 285
322 325 319 316 315 311 310 309 306 302 300 300 300 299 298 296 297 296 294 292 292 291 291 290 290 290 290 289 289 288 287 287 285 284 285 286 286 285 285 285 285 284 284
320 315 311 311 309 308 306 304 301 299 298 299 299 298 298 294 293 293 292 291 290 290 290 290 290 290 289 289 288 287 287 286 286 285 285 285 285 285 284 285 284 283 283
311 310 308 307 304 303 301 300 298 298 297 297 296 296 294 293 291 290 290 290 290 290 290 289 288 288 288 287 287 287 287 286 286 286 285 285 285 285 284 284 283 283 282
305 304 303 301 299 298 297 296 296 296 295 297 296 293 292 291 290 289 289 288 288 288 286 286 286 287 287 287 287 287 287 286 286 286 285 284 284 284 283 283 282 282 282
300 298 296 296 295 294 294 293 294 293 294 293 292 291 289 289 289 288 287 287 285 285 285 285 285 286 286 286 287 286 286 287 287 286 286 284 284 283 283 282 282 282 283
295 295 294 294 292 292 292 292 293 294 294 293 291 290 288 289 289 287 286 285 284 284 284 284 285 285 285 285 285 286 286 286 286 286 285 284 283 283 283 282 282 283 283
294 293 293 292 292 294 295 294 293 292 290 289 289 289 289 288 288 287 285 284 284 284 284 284 284 284 284 285 285 285 285 285 285 284 284 284 283 283 284 284 283 282 281
294 294 294 296 295 295 293 292 291 292 292 292 290 288 287 287 286 285 285 284 284 284 284 284 284 284 284 285 285 285 285 284 284 283 283 284 284 284 283 282 281 281 280
293 293 293 293 293 292 293 293 292 292 288 286 286 286 285 285 286 285 285 284 284 284 284 283 283 284 284 285 285 285 283 283 283 283 283 282 281 281 281 281 280 280 279
292 293 293 294 294 293 292 291 287 286 286 285 285 285 285 284 284 285 285 284 284 284 283 283 282 283 284 285 284 283 282 283 283 281 280 280 280 280 280 280 280 279 279
293 292 291 290 289 288 287 286 286 286 285 284 284 283 283 283 284 284 285 284 284 283 282 282 282 284 284 283 282 281 282 282 280 279 279 279 279 279 279 279 279 279 279
288 287 287 287 287 287 286 285 285 284 284 283 283 282 282 281 281 281 281 283 283 283 282 283 284 283 281 279 279 280 280 279 279 278 279 279 278 278 278 279 279 279 278
286 286 286 286 286 285 285 284 284 283 283 282 281 281 280 280 280 281 282 282 282 282 283 282 281 279 278 278 278 278 278 278 278 279 278 278 277 278 278 278 278 278 278
286 286 285 285 284 284 283 283 282 282 281 281 281 280 280 280 280 282 282 282 283 283 282 280 278 277 277 277 277 277 277 277 278 277 277 277 277 277 277 277 277 278 278
286 285 285 284 283 283 283 283 283 282 282 281 281 281 281 281 281 282 282 282 282 282 280 277 277 277 276 276 276 276 277 277 277 276 276 276 276 276 276 277 278 278 278
285 284 284 283 283 282 282 281 280 280 281 280 280 280 281 281 281 281 281 281 279 279 277 277 276 276 276 276 276 276 276 277 276 275 276 276 276 276 277 276 277 278 278
285 285 284 283 282 281 281 280 279 279 278 278 278 279 279 280 280 280 279 277 276 276 276 276 276 275 275 275 276 276 276 276 276 276 276 277 276 276 276 277 277 277 278
284 283 283 282 281 280 279 279 279 278 278 277 278 278 278 279 279 278 277 276 275 275 275 275 275 275 276 276 276 276 276 276 276 276 276 277 277 276 276 277 277 279 281
283 282 281 280 280 279 278 278 278 277 277 277 277 277 278 278 277 276 275 275 275 275 275 275 276 276 276 276 276 276 276 276 276 276 277 278 278 277 277 277 278 279 280
282 281 280 279 279 278 278 278 277 277 277 277 277 277 279 278 276 275 275 275 275 275 275 276 276 277 277 277 277 276 276 276 277 277 278 278 278 278 279 279 279 280 281
280 280 279 279 278 278 278 277 277 277 277 277 277 276 277 276 275 275 275 275 275 275 276 276 277 277 277 277 277 276 276 277 279 279 279 279 279 279 279 280 282 284 284
280 279 278 278 277 278 277 277 277 276 276 276 276 275 275 275 275 275 274 274 275 276 276 277 277 278 278 278 278 278 278 280 280 281 280 281 280 281 283 284 284 284 285
279 278 278 277 277 277 276 276 276 276 276 275 275 275 275 274 274 274 274 274 275 276 277 277 277 278 279 279 280 281 281 282 282 283 283 284 285 285 285 284 285 285 285
278 277 277 276 276 276 276 275 275 275 275 275 274 274 274 274 274 274 274 275 275 276 277 277 278 279 280 281 282 282 281 282 283 285 285 287 287 286 285 285 286 286 286
277 277 276 276 276 275 275 275 275 275 274 274 274 274 274 274 274 274 274 275 275 276 277 278 279 280 281 282 283 282 281 283 284 285 287 287 286 286 285 286 285 285 285

GFSGL_925_thetae_027.txt.gz
Theta_e
313 316 319 323 326 326 322 318 315 313 311 310 307 304 303 302 299 298 296 295 296 294 292 292 292 291 291 290 290 289 288 287 284 285 286 286 286 286 286 285 284 284 284
315 316 321 322 321 319 315 314 313 311 308 308 304 301 299 298 297 296 297 293 293 292 293 292 291 290 290 290 289 289 288 287 285 284 285 285 286 286 285 285 284 283 283
314 317 319 319 316 314 312 311 308 306 303 301 299 297 296 296 296 295 297 296 294 292 291 290 290 290 289 289 289 288 287 287 286 284 284 285 285 286 285 284 284 283 282
311 311 311 310 309 309 307 304 301 299 298 297 296 296 296 296 295 294 292 291 290 290 290 290 289 289 288 288 287 287 287 287 286 286 285 285 285 285 284 283 283 282 282
307 306 306 305 305 303 300 299 297 296 295 294 294 295 294 294 292 291 290 290 290 289 288 287 286 286 286 288 288 287 287 287 286 286 285 285 284 284 283 283 282 282 282
299 298 298 298 297 296 295 295 294 293 294 295 295 296 295 294 293 291 290 288 287 286 285 285 285 285 285 286 287 287 287 287 286 286 286 284 284 283 283 282 282 281 282
295 295 295 294 293 292 292 293 293 294 295 294 293 291 290 291 290 288 286 287 285 284 284 284 284 284 284 284 284 285 285 286 286 286 285 284 283 283 283 283 282 282 283
293 293 293 293 293 293 293 292 292 293 293 292 291 291 291 291 290 290 287 284 284 283 283 284 284 284 284 285 285 285 285 285 285 284 284 284 284 284 284 284 283 282 281
293 294 294 294 293 292 292 291 290 291 291 291 291 291 291 289 288 287 285 284 284 284 284 284 284 283 283 285 285 285 285 284 284 283 283 284 284 283 283 282 282 281 280
291 292 292 292 292 291 291 291 292 292 292 291 290 288 287 287 287 286 285 284 284 284 284 283 282 283 284 285 285 284 283 283 283 283 282 282 281 281 281 281 280 279 279
292 292 292 292 293 293 293 292 292 291 287 285 284 285 284 285 285 285 285 284 284 284 283 282 282 283 284 285 284 283 282 283 283 282 280 280 280 280 280 280 279 278 278
292 293 293 293 292 292 291 288 286 285 285 284 284 283 283 283 284 284 285 284 284 283 282 282 282 284 284 283 282 281 281 282 280 279 279 279 279 279 279 279 279 279 278
290 289 289 288 286 286 286 285 284 284 284 283 283 282 282 282 281 280 281 283 283 283 283 283 284 283 281 279 279 280 280 278 278 278 278 278 278 278 278 279 279 278 278
286 286 286 285 285 285 285 284 284 283 283 282 281 281 280 280 280 281 282 282 282 283 283 282 280 279 278 278 278 277 278 278 278 278 278 277 277 277 278 278 277 277 277
285 285 285 285 284 283 283 282 282 281 281 281 280 280 280 280 281 282 282 282 283 283 282 280 278 277 277 277 277 277 277 277 277 277 276 276 276 277 277 277 277 277 277
285 284 284 284 283 283 283 283 283 283 283 282 281 281 281 281 282 282 282 282 282 281 279 277 276 276 276 276 276 276 277 277 277 276 276 276 275 276 276 277 277 276 277
285 284 284 283 282 282 281 281 281 281 281 280 281 281 281 281 281 281 281 280 278 278 276 276 276 275 275 275 276 276 276 277 277 276 276 276 276 277 277 276 276 277 277
285 284 283 282 282 281 280 280 279 279 278 278 278 279 279 280 281 280 279 278 276 276 276 275 275 275 275 276 276 276 276 276 276 276 276 277 278 276 276 276 277 277 277
284 283 283 281 281 280 280 279 279 278 277 277 278 278 278 279 279 278 277 275 275 275 275 275 275 276 276 276 276 276 276 276 276 276 277 278 278 277 277 277 277 279 280
283 283 282 281 280 279 278 278 278 277 277 277 277 277 278 278 277 276 275 275 275 275 275 275 276 276 277 277 277 276 277 276 276 277 278 279 279 278 278 279 279 279 280
283 281 280 280 279 278 278 278 277 277 277 277 276 277 278 278 276 275 275 275 275 275 275 275 276 277 277 277 277 277 276 276 277 278 279 279 279 278 279 280 280 280 280
282 281 280 279 278 278 278 277 277 277 276 276 276 276 276 276 275 275 275 275 275 275 275 276 277 277 277 278 277 277 277 278 280 280 279 280 279 279 280 281 281 282 284
280 279 278 278 277 278 277 277 276 276 276 276 276 275 275 275 275 275 275 274 275 275 276 276 277 277 278 278 279 278 278 279 280 280 280 280 280 281 282 284 285 285 285
279 278 278 277 277 277 276 276 276 275 275 275 275 275 274 274 274 274 274 275 275 276 276 276 277 277 278 279 280 281 281 281 281 281 281 282 283 285 287 286 285 285 285
279 278 277 277 276 276 276 275 275 275 275 275 274 274 274 274 274 275 275 275 275 276 276 277 277 278 279 280 281 282 282 281 280 281 283 284 286 286 286 286 285 286 285
278 277 276 276 276 276 275 275 275 275 274 274 274 274 274 274 275 275 275 275 275 276 276 277 278 279 280 281 282 282 282 281 281 283 284 285 286 286 286 286 286 285 284

GFSGL_925_thetae_030.txt.gz
Theta_e
313 313 314 315 318 320 323 324 323 321 318 315 312 308 306 306 302 301 300 297 295 294 294 294 293 292 292 291 290 290 289 288 286 287 286 287 286 286 286 286 285 284 284
311 312 313 315 317 320 319 319 318 316 313 311 308 305 303 301 300 298 296 295 294 294 296 294 292 290 290 290 290 289 288 287 286 284 285 286 286 286 286 285 285 284 283
309 311 312 313 313 315 314 313 311 310 308 306 304 301 300 298 297 296 296 295 294 294 293 294 291 289 289 289 289 288 288 287 286 284 284 285 285 285 285 285 284 283 282
308 309 309 310 310 310 310 308 307 305 303 301 299 297 295 295 295 296 295 296 295 292 290 289 289 289 290 289 288 287 287 287 287 286 285 285 285 285 285 284 283 282 282
307 308 307 307 306 305 303 301 300 300 298 296 294 294 295 296 296 297 295 292 292 291 290 288 287 286 286 287 287 288 287 287 286 286 284 285 285 285 284 284 282 282 282
298 297 298 300 300 298 297 296 296 294 294 294 295 294 294 294 295 292 290 288 289 288 287 288 285 285 285 285 286 287 287 287 287 286 286 284 284 284 283 282 282 282 283
294 294 294 294 294 294 294 293 293 292 293 293 293 294 293 292 291 292 293 290 289 289 286 284 284 284 284 284 284 285 285 286 286 286 285 284 284 283 283 283 283 282 282
294 293 293 293 293 293 293 292 292 292 292 293 293 292 292 291 290 290 291 288 285 284 283 283 284 284 283 284 285 285 285 285 285 284 284 284 283 284 284 284 283 282 281
293 294 293 293 292 291 290 291 291 292 291 291 291 291 291 290 289 286 285 284 284 284 284 284 283 283 282 284 285 285 285 284 283 283 283 283 283 283 282 282 281 280 279
291 291 292 292 291 291 291 292 292 292 291 291 290 290 289 288 287 286 285 284 284 284 284 283 283 283 284 285 285 284 282 282 282 282 282 282 281 281 281 280 280 279 278
291 291 291 292 292 292 291 292 291 290 290 289 287 287 286 286 286 286 286 285 284 284 283 282 282 282 284 285 284 283 282 282 282 281 280 280 281 280 280 280 279 278 277
292 292 292 292 291 291 292 291 289 286 283 283 283 283 283 284 284 286 285 284 284 283 282 282 283 284 284 283 281 281 281 281 280 279 279 279 279 279 280 280 280 279 278
290 290 291 290 288 286 285 284 284 284 283 282 282 282 281 281 281 281 282 283 283 283 283 283 283 282 280 279 279 279 279 278 278 278 278 278 278 279 280 280 280 279 279
286 285 285 285 284 284 284 284 284 283 282 282 281 280 280 280 280 282 282 282 282 283 283 282 280 279 278 277 277 277 277 277 278 278 277 277 278 278 279 279 278 278 276
285 285 284 284 283 283 282 282 282 281 281 281 280 280 280 280 281 283 283 283 283 282 281 280 278 277 276 276 276 277 277 278 278 277 277 276 277 277 278 278 277 277 276
285 284 283 283 283 283 283 284 284 283 283 282 281 281 281 281 282 282 282 282 281 280 278 276 276 276 276 276 276 276 277 278 277 276 276 277 277 277 277 278 278 276 276
285 284 283 283 282 282 282 281 281 281 281 281 281 281 281 281 281 281 281 280 278 278 276 276 275 275 276 276 276 276 276 277 277 277 276 277 277 277 276 277 277 277 277
284 284 283 282 281 280 280 279 279 279 278 278 278 279 279 280 281 280 279 277 276 276 276 275 275 276 276 276 276 276 276 277 277 277 277 277 278 277 277 277 278 278 278
284 283 282 281 280 280 279 279 279 278 277 277 277 277 277 279 279 278 277 276 275 275 275 275 276 276 276 276 276 276 276 277 276 276 277 278 279 277 277 278 279 281 282
283 282 281 281 280 279 279 278 278 277 277 277 277 277 277 278 278 277 276 275 275 275 275 275 276 277 277 277 276 277 277 277 277 277 278 278 278 278 277 278 279 280 281
283 282 281 280 279 279 278 278 277 277 277 276 276 276 278 278 276 275 275 275 275 275 275 275 276 277 277 277 276 277 277 277 278 279 279 279 278 277 277 278 279 281 281
283 281 280 279 278 278 278 277 277 276 276 276 276 276 276 276 275 275 275 275 275 275 275 275 276 277 277 276 276 277 277 278 279 279 279 279 279 278 278 279 280 282 283
282 280 279 279 278 278 277 276 276 276 276 276 275 275 275 275 275 275 275 275 275 275 275 275 276 276 277 277 277 277 277 279 280 279 279 279 279 280 280 281 284 286 285
280 279 279 278 277 277 276 276 276 275 275 275 275 275 275 275 274 274 275 275 275 275 275 275 276 276 277 277 278 279 280 281 281 280 280 280 281 282 284 286 286 286 285
280 279 278 277 277 276 276 276 276 275 275 275 275 274 274 274 275 275 275 275 276 276 276 276 276 277 277 278 280 280 281 282 281 280 281 282 283 284 285 286 286 286 286
279 278 277 277 277 276 276 276 276 275 275 275 275 275 275 275 275 275 275 276 276 276 276 276 277 277 278 280 281 281 282 282 281 282 282 283 284 285 285 286 287 286 286

GFSGL_925_thetae_033.txt.gz
Theta_e
309 310 311 313 313 316 318 319 321 322 322 321 318 315 311 307 306 306 304 304 305 299 298 297 295 294 293 292 292 291 290 290 290 289 288 288 287 287 287 286 286 285 285
308 309 310 312 312 314 316 316 315 317 318 317 315 311 307 305 307 305 302 298 298 295 294 293 293 293 293 292 291 290 289 289 288 288 286 286 286 287 286 286 286 285 284
305 307 309 310 312 313 313 314 313 313 313 311 310 307 304 302 300 298 296 295 295 295 294 295 293 291 290 290 289 288 288 287 287 286 286 285 285 286 285 285 285 284 283
302 304 306 308 309 310 309 309 308 307 306 303 302 301 299 297 295 295 295 294 295 294 294 293 291 290 289 289 290 289 288 287 286 285 285 286 285 285 285 285 284 284 283
299 298 299 302 303 305 305 303 302 301 299 298 297 296 295 295 294 293 294 294 294 292 290 291 291 290 289 289 288 286 287 287 286 286 286 286 286 286 286 285 284 283 283
296 295 298 300 300 299 298 296 297 295 295 294 294 294 294 293 294 295 296 294 292 292 289 288 288 288 287 287 288 288 288 287 286 286 286 286 286 285 284 283 283 284 284
294 294 294 294 294 294 294 294 294 293 294 293 293 294 293 293 295 295 293 291 290 290 289 288 286 284 284 284 284 284 286 286 286 286 286 285 284 284 283 283 284 284 283
294 294 293 293 292 292 292 292 292 292 292 292 292 292 292 291 290 290 292 291 289 286 284 284 284 284 283 284 284 285 285 285 285 285 284 284 284 284 284 283 283 283 282
292 292 292 292 291 291 290 290 290 291 291 291 292 291 290 289 289 291 290 285 283 283 284 284 283 283 282 284 285 285 285 285 284 283 283 283 283 283 283 282 282 282 281
291 291 292 292 291 290 290 290 290 291 291 291 290 289 289 287 285 284 284 284 284 283 284 283 282 283 284 285 285 285 283 282 282 282 282 282 281 280 281 280 280 280 280
291 292 292 292 292 292 292 292 291 290 289 288 287 287 286 287 288 287 285 284 284 284 283 282 282 283 284 285 285 282 282 282 282 281 280 279 280 280 280 280 279 279 279
292 292 291 292 291 291 291 291 290 289 286 284 283 283 284 285 286 286 285 284 284 283 283 282 283 284 284 282 281 280 281 281 280 278 279 280 280 279 280 280 280 280 279
292 291 290 289 287 286 285 284 284 284 283 282 282 282 281 281 282 283 283 283 283 283 283 283 283 281 280 279 278 279 279 278 278 278 279 279 279 279 280 281 281 281 279
285 285 284 284 284 284 284 283 283 283 282 282 281 280 280 280 281 282 282 282 282 282 282 282 280 279 277 277 277 277 277 277 278 279 278 278 277 278 278 279 278 279 278
285 284 284 283 283 282 282 282 282 281 281 281 280 280 280 280 282 283 283 283 282 282 281 279 277 277 276 276 276 277 277 278 277 277 276 277 277 277 278 278 279 278 279
284 284 283 283 283 283 284 284 284 284 283 281 281 281 280 281 282 282 282 281 281 280 278 276 276 276 276 276 276 276 277 277 277 276 276 275 276 276 277 278 279 279 279
285 284 283 283 283 283 282 282 282 281 281 281 281 281 281 281 281 281 281 280 278 278 276 276 275 275 276 276 276 276 276 277 277 277 276 277 276 277 277 278 278 279 280
285 284 283 282 281 281 280 279 279 278 278 278 278 279 280 280 281 280 279 277 276 276 275 275 275 276 276 276 277 276 276 277 277 277 277 277 277 276 277 278 278 279 280
284 283 282 281 280 280 279 279 278 278 277 277 277 277 277 278 279 278 277 276 275 275 275 275 276 276 276 276 277 277 277 277 276 276 277 278 278 276 277 277 278 280 282
283 282 282 281 279 279 279 278 278 277 277 277 276 276 277 278 278 277 276 275 275 275 275 275 275 276 276 276 276 276 276 277 277 278 278 278 278 277 276 277 278 279 280
283 282 281 280 279 279 278 278 277 277 276 276 276 276 278 278 277 276 275 275 275 275 275 275 275 276 276 276 276 276 276 277 278 278 278 278 278 276 277 277 278 279 280
283 282 280 280 279 278 278 277 277 277 276 276 276 276 276 276 275 275 275 275 275 275 275 274 275 276 276 276 276 276 275 276 278 278 277 277 277 277 277 277 279 280 281
282 281 280 279 278 278 278 277 276 276 276 276 275 275 275 275 275 275 275 275 275 275 275 275 275 276 276 276 276 276 276 278 279 278 277 278 277 277 278 278 280 282 285
281 280 279 279 278 277 277 276 276 276 275 275 275 275 275 275 275 275 275 275 275 275 275 276 276 276 276 276 277 277 278 280 280 280 279 279 278 279 280 282 283 285 285
281 280 279 278 277 277 277 276 276 276 275 275 275 275 275 275 275 275 275 275 275 276 276 276 276 276 276 277 279 280 280 281 281 280 279 280 281 281 282 283 284 285 286
280 280 279 278 277 277 276 276 276 276 276 276 276 276 275 275 276 276 276 276 276 276 276 277 277 278 279 280 281 281 282 282 280 280 281 281 282 283 284 284 285 286 286

GFSGL_925_thetae_036.txt.gz
Theta_e
309 310 311 313 315 315 315 316 317 318 319 319 319 319 318 315 313 312 310 308 305 302 301 301 299 298 296 294 293 293 293 293 291 290 289 288 291 292 288 288 288 287 287
306 308 310 312 313 314 313 314 313 314 315 316 316 314 312 310 308 307 306 305 303 300 298 297 294 293 293 292 293 292 291 290 289 289 290 290 289 287 287 287 287 287 287
304 307 309 310 312 313 311 311 310 311 310 311 310 307 306 306 304 304 301 300 297 296 294 293 292 293 293 292 292 291 291 291 290 288 288 287 286 286 286 287 287 287 287
301 303 304 306 307 307 306 305 305 305 306 304 303 302 300 300 298 297 297 295 294 294 294 295 294 293 292 291 291 291 290 289 287 287 287 287 287 287 287 287 287 287 286
298 298 300 301 301 301 300 300 299 299 298 298 298 297 295 294 294 294 294 294 294 293 293 293 292 292 292 291 290 289 288 287 287 288 288 288 288 287 287 287 286 286 285
297 296 297 298 298 297 297 296 296 296 296 297 297 295 294 294 293 293 293 294 294 293 292 291 291 291 290 288 288 288 288 288 288 288 288 288 287 287 287 286 285 285 286
295 295 295 295 295 294 294 294 294 295 295 294 294 294 294 294 293 293 294 293 293 291 291 290 289 288 286 285 286 286 286 287 288 288 287 287 287 286 285 285 284 285 285
294 294 294 294 292 292 292 292 293 293 292 292 293 293 293 292 291 291 292 292 290 288 288 287 285 284 284 284 285 285 286 286 286 286 286 286 285 285 285 285 285 284 284
292 292 292 292 291 291 291 291 291 291 291 291 291 291 290 289 289 290 289 287 286 284 284 284 284 284 283 285 286 286 286 286 285 284 284 283 284 284 284 284 283 284 284
291 290 291 291 291 290 290 291 291 291 290 289 289 288 287 286 286 285 285 285 285 285 284 284 283 284 284 285 286 286 286 285 284 283 283 283 282 282 281 282 283 283 283
291 291 291 291 291 291 291 290 290 290 289 288 288 287 287 288 288 286 285 285 285 285 284 283 283 283 285 286 285 285 284 283 283 282 282 281 282 282 282 282 282 282 281
292 292 291 290 290 291 291 290 290 288 287 285 285 285 285 287 287 286 285 285 284 284 284 283 284 284 284 283 282 282 281 282 282 281 281 282 282 283 283 282 281 281 281
290 288 288 287 286 286 286 285 285 285 285 284 284 284 283 282 283 284 284 284 284 284 283 284 283 282 281 280 279 280 280 280 280 280 282 282 282 282 281 280 281 281 280
287 286 285 285 285 284 284 284 285 285 284 284 283 282 282 281 282 283 283 283 283 283 283 282 281 280 278 278 278 278 278 279 280 281 281 281 281 280 281 282 282 282 282
286 285 285 284 284 283 283 283 283 282 282 282 282 281 282 282 283 283 283 283 283 282 282 280 279 278 279 279 279 279 279 279 280 280 280 280 280 280 281 281 281 281 281
285 285 285 285 285 285 286 285 284 284 283 282 281 282 281 282 282 282 282 282 281 280 280 279 279 279 279 279 279 280 280 279 280 279 279 279 279 279 280 280 281 282 282
285 285 284 284 284 285 284 284 284 282 282 282 281 281 281 281 281 282 281 281 279 278 278 278 278 278 278 279 279 279 279 279 277 277 278 278 278 278 279 280 281 281 282
284 284 284 283 283 282 281 281 280 280 280 279 278 279 280 280 281 280 280 278 278 277 277 277 278 278 278 279 279 279 279 278 279 278 278 278 278 278 278 279 280 281 281
284 284 283 282 281 281 280 279 279 279 279 279 278 278 278 278 279 279 278 277 277 277 277 277 277 277 278 278 278 278 277 277 278 277 278 277 278 278 278 279 280 281 281
284 284 282 281 281 279 279 279 279 278 278 278 278 278 277 278 279 278 277 276 276 277 276 276 277 277 277 277 277 277 277 277 278 278 278 278 278 278 278 278 279 280 280
283 283 282 280 279 279 279 279 278 278 278 278 278 277 278 279 278 277 276 276 276 276 276 276 276 276 276 276 276 276 276 277 277 277 277 277 278 278 278 278 279 279 280
283 282 281 280 279 279 279 278 278 277 277 277 277 277 277 277 276 276 276 276 276 276 276 276 276 276 276 276 275 275 275 276 276 276 277 277 277 278 278 279 279 279 280
283 282 280 279 279 279 279 277 277 277 277 277 277 276 276 276 276 276 276 275 275 275 275 275 275 276 276 276 276 275 275 276 277 277 277 277 277 278 278 279 279 280 281
283 281 280 279 278 278 277 277 277 277 277 277 276 276 276 276 276 276 275 275 275 276 276 275 276 276 276 276 276 276 277 278 279 279 278 276 276 277 278 279 280 282 283
282 280 279 279 278 278 277 277 277 276 276 276 276 276 276 276 275 276 275 275 275 276 276 276 276 277 277 278 279 279 280 281 280 278 277 278 279 280 281 282 282 283 284
281 280 279 278 278 277 277 277 277 276 276 277 276 276 276 276 276 276 276 276 276 276 277 278 278 279 279 280 281 282 282 282 279 279 280 280 281 282 283 284 284 285 285

GFSGL_925_thetae_039.txt.gz
Theta_e
309 310 311 313 314 315 316 315 315 315 316 318 319 320 320 321 321 321 319 317 315 313 311 309 305 301 299 298 297 299 300 298 294 289 289 289 289 289 291 292 290 289 288
306 308 310 312 313 314 314 313 312 313 313 314 314 315 315 315 314 313 313 312 311 308 304 302 299 297 297 298 296 292 292 294 294 291 291 292 292 292 292 291 288 288 287
304 306 308 309 310 311 310 310 310 310 309 308 308 308 308 308 308 307 306 305 304 301 300 297 295 295 293 292 293 294 294 294 294 293 290 290 289 288 287 287 287 287 287
301 302 304 305 305 305 304 304 304 304 304 303 301 302 302 302 302 302 301 299 297 295 295 294 293 293 294 295 294 294 293 291 290 289 288 288 288 288 288 287 287 288 287
300 300 301 302 301 301 301 300 300 300 299 299 297 297 296 297 296 296 296 295 295 293 293 293 294 294 295 294 293 292 291 289 288 288 289 289 289 288 288 288 288 287 286
298 298 298 299 298 297 297 297 297 297 297 296 296 295 295 294 294 294 294 294 293 293 292 291 291 291 292 290 290 290 290 288 288 289 289 288 288 288 288 287 287 286 286
296 296 296 296 295 295 294 294 294 294 294 294 294 294 294 294 293 292 292 292 291 291 290 289 289 288 289 289 288 288 289 289 288 288 288 288 288 287 286 286 285 285 285
295 295 295 294 294 293 292 292 292 293 293 293 293 293 292 292 291 290 292 291 289 289 288 288 288 286 285 284 285 285 286 286 286 287 286 286 286 286 285 285 285 285 285
292 292 293 292 291 291 291 291 291 292 291 291 291 290 289 288 289 290 290 289 288 286 285 284 285 285 285 285 286 286 286 286 286 286 285 284 284 284 285 284 284 284 284
292 291 291 291 291 291 290 290 290 290 290 289 289 288 287 287 287 286 286 286 286 285 285 285 283 284 284 285 286 287 287 286 285 284 284 284 284 283 283 283 283 283 284
292 291 291 291 290 291 291 290 289 289 289 288 287 287 288 288 287 286 286 285 285 285 284 284 284 283 285 286 285 285 285 284 283 283 283 282 282 282 283 283 283 283 283
292 292 292 292 292 291 292 291 290 289 287 286 286 286 287 287 287 286 286 285 284 284 284 284 284 284 284 283 283 283 282 282 282 282 281 281 282 283 283 283 283 282 282
292 292 290 289 288 288 288 287 287 287 287 286 285 285 284 283 284 284 284 284 284 284 284 284 283 282 282 281 281 280 281 280 280 280 281 283 283 283 282 281 281 281 282
289 288 287 287 287 286 286 286 286 286 285 285 284 283 283 283 283 284 284 284 284 284 284 284 282 281 280 279 279 279 279 279 280 281 282 282 281 281 281 281 282 282 282
288 287 287 286 286 285 285 285 284 283 283 283 283 283 283 283 283 283 283 283 283 283 282 282 280 280 279 280 280 280 280 280 281 281 281 281 281 281 281 281 281 281 281
287 287 287 287 287 287 287 286 284 284 283 282 282 282 282 282 283 282 282 282 282 281 280 280 280 280 280 280 280 280 281 281 281 280 280 279 280 279 279 279 280 280 281
287 287 286 286 286 286 286 286 285 283 282 281 280 280 281 281 282 282 282 281 281 279 279 279 279 279 279 279 280 280 280 280 280 279 279 279 279 279 279 279 279 280 281
286 286 286 286 285 284 283 282 282 282 282 281 280 279 280 280 281 281 280 280 279 279 278 278 278 279 279 279 280 280 279 279 279 279 279 279 279 279 279 279 279 280 280
286 285 285 284 283 283 282 281 281 280 280 280 280 280 279 279 279 280 279 278 278 278 278 278 278 278 278 279 279 279 279 279 279 279 278 278 278 278 279 279 279 280 281
285 285 284 283 282 281 281 280 280 280 280 280 280 279 278 278 280 280 279 278 277 277 277 277 277 278 278 278 278 278 278 278 278 278 279 279 279 279 279 279 279 279 279
285 284 283 282 281 281 280 280 280 279 279 279 279 278 278 279 279 279 278 277 277 277 277 277 277 277 277 277 277 277 277 277 277 277 277 278 278 278 279 279 279 279 279
284 284 283 281 281 280 280 279 279 279 279 279 279 278 278 278 277 277 277 277 277 277 276 276 276 277 277 277 277 276 276 276 276 276 277 277 277 278 278 279 279 279 280
284 283 282 281 280 280 280 279 278 278 278 278 278 278 278 277 277 277 277 276 276 276 276 276 276 276 276 276 276 276 276 276 276 276 276 276 276 277 277 278 278 279 279
283 283 282 280 280 280 279 279 278 278 278 278 278 278 277 277 277 277 277 276 276 276 276 276 276 276 276 276 276 277 277 277 277 277 277 276 276 276 276 277 278 279 279
283 282 281 280 280 280 279 278 278 278 278 278 277 277 277 277 277 277 277 277 277 277 277 277 277 278 278 278 278 279 280 280 279 278 277 277 278 278 278 279 281 282 282
283 282 281 280 279 278 278 278 278 278 278 278 278 278 278 278 277 277 277 276 277 277 277 278 279 279 280 280 281 282 282 281 279 280 280 280 281 281 281 282 283 284 284

GFSGL_925_thetae_042.txt.gz
Theta_e
306 307 309 311 313 314 314 312 312 312 313 314 314 316 317 318 319 321 321 321 319 317 316 314 313 311 307 303 300 299 300 303 298 292 292 292 292 291 292 291 290 292 294
303 305 307 309 310 311 310 310 311 310 310 311 312 312 313 313 314 315 314 313 313 313 312 310 308 304 300 298 297 298 299 300 298 292 291 290 291 290 290 292 292 291 289
301 302 304 305 305 305 305 305 305 306 305 305 305 305 306 308 308 308 308 308 307 307 306 304 303 300 297 296 296 296 296 297 297 295 291 291 291 292 291 291 291 289 287
300 300 301 302 302 302 301 301 301 301 300 300 299 299 299 299 300 301 301 302 301 299 299 298 297 296 296 295 294 294 294 293 293 293 291 290 290 289 289 289 288 288 288
299 299 299 299 299 299 299 299 298 299 299 299 298 297 297 297 296 297 297 296 296 295 294 294 294 294 294 293 293 293 292 291 291 290 289 289 289 288 288 288 288 288 287
297 297 297 297 296 296 296 296 296 296 296 296 296 296 295 294 294 293 294 293 292 292 292 292 292 292 292 291 292 291 291 290 289 289 289 289 289 288 288 288 287 286 285
296 296 295 295 294 293 293 293 293 294 294 294 294 294 294 293 292 291 293 292 292 291 290 290 290 290 290 290 290 290 290 289 289 288 288 288 287 287 286 286 286 285 285
294 294 294 293 292 292 292 292 292 293 292 292 292 291 291 291 291 292 292 291 290 290 289 289 287 287 287 285 285 285 286 286 286 287 287 286 286 286 285 285 285 285 285
292 291 291 291 291 291 291 291 291 292 291 290 289 289 289 289 289 290 290 289 288 287 286 285 285 285 285 286 285 286 286 286 286 286 286 285 285 285 285 285 285 284 283
292 291 290 291 291 291 291 290 289 289 288 288 287 287 287 287 287 287 286 286 285 285 285 284 284 284 285 285 286 286 286 285 285 285 284 283 283 283 283 283 283 283 282
292 292 292 291 291 290 290 290 289 289 287 287 288 288 289 287 287 287 286 285 285 284 284 284 284 285 285 285 285 285 284 284 283 282 282 282 282 281 282 283 283 282 282
293 293 293 293 292 292 291 289 288 287 286 286 286 286 286 286 286 286 286 285 285 284 284 284 284 284 284 283 283 283 282 282 281 281 281 281 281 282 283 283 283 283 282
292 292 290 289 289 289 287 287 287 286 286 285 285 284 283 282 283 283 284 284 284 283 283 283 283 283 282 281 280 281 281 279 280 280 281 282 282 282 282 282 281 281 282
289 287 287 287 286 286 286 286 286 285 285 284 283 283 283 283 283 284 284 284 284 283 283 283 282 281 280 280 280 279 279 279 280 280 281 281 281 281 281 281 281 281 281
288 287 287 286 286 285 285 285 284 283 283 283 283 282 282 283 283 283 283 283 283 282 282 281 280 279 279 279 280 280 280 280 280 280 281 280 280 280 280 280 280 280 281
287 287 286 286 287 287 286 285 284 283 282 282 282 282 282 282 283 283 283 283 282 282 281 279 279 279 279 279 279 280 280 281 280 280 280 279 279 279 279 279 279 279 280
287 287 287 287 287 287 286 286 285 284 283 282 281 280 280 281 282 282 282 282 281 281 279 278 278 278 279 279 279 280 280 280 279 279 279 279 279 279 279 279 279 279 279
287 287 286 286 286 285 284 283 282 282 281 281 280 280 279 280 280 281 281 281 279 278 278 278 278 278 278 278 279 279 279 279 279 279 279 279 278 278 279 279 279 279 279
287 286 286 286 285 284 283 282 281 281 280 280 280 280 280 279 279 280 281 279 278 278 277 277 277 277 277 278 278 278 279 278 279 279 279 279 278 278 278 279 278 279 280
286 286 285 285 284 283 282 281 281 280 280 280 280 279 279 278 279 279 280 279 278 277 277 277 277 277 277 277 277 277 277 278 278 278 278 278 278 278 278 278 278 278 278
286 286 285 284 283 282 281 281 280 280 279 279 279 279 280 279 279 278 278 277 277 277 277 277 276 277 277 277 277 277 277 277 277 277 277 277 277 277 277 277 278 278 278
286 285 284 284 283 282 281 281 280 279 279 279 279 279 279 279 277 277 277 277 277 277 276 276 276 276 276 276 276 276 276 276 276 276 276 276 276 276 277 277 278 278 278
285 285 284 283 282 281 281 281 280 279 279 279 279 278 278 278 277 277 277 277 277 277 277 277 276 276 277 276 276 276 276 276 276 276 276 276 276 276 276 276 276 277 277
285 285 284 283 282 281 280 280 279 279 279 279 278 278 278 278 278 278 278 277 278 278 277 277 277 277 277 277 278 278 278 279 278 278 277 276 276 276 276 276 276 277 277
284 284 283 282 281 281 280 280 279 279 279 278 278 278 278 279 279 279 279 278 278 278 278 278 279 278 278 279 279 280 280 281 278 277 277 278 278 278 278 277 277 278 279
284 283 283 282 281 280 280 280 279 279 279 278 278 279 279 279 279 279 279 278 277 277 279 279 280 280 280 280 281 282 282 281 279 280 280 281 281 281 281 281 281 281 282

GFSGL_925_thetae_045.txt.gz
Theta_e
304 305 306 308 310 310 311 311 311 310 310 311 312 312 312 313 315 316 318 319 318 318 318 317 316 314 312 309 308 306 303 304 303 295 295 296 295 296 295 294 294 293 293
301 303 304 306 307 307 308 307 308 308 308 308 309 310 310 310 310 312 312 312 312 313 313 313 313 312 309 306 303 300 299 301 301 294 293 294 294 293 293 293 291 290 290
300 301 302 302 303 302 303 303 303 303 303 303 304 304 305 306 307 307 307 307 307 306 304 303 303 301 300 300 299 298 298 298 298 296 292 291 292 291 290 291 291 291 292
299 300 299 300 299 300 300 300 300 300 301 301 300 301 301 301 301 300 300 300 300 299 299 299 298 297 296 296 295 295 296 295 294 294 292 291 290 291 291 291 290 289 288
298 298 298 298 297 297 298 298 298 298 297 297 297 298 297 297 295 296 296 295 295 295 294 294 293 294 294 294 293 293 293 293 292 292 290 290 289 289 289 289 288 288 288
296 296 296 296 295 295 295 295 295 295 295 295 295 294 294 294 293 294 295 294 294 293 292 292 292 293 292 292 292 291 291 291 290 290 289 289 289 289 288 288 288 286 285
295 295 294 294 294 294 293 294 293 293 293 294 293 293 293 293 292 292 293 292 292 290 290 290 291 290 290 290 290 290 290 290 289 289 288 288 287 287 286 286 286 285 285
294 294 293 293 292 293 293 292 292 292 292 291 291 291 292 292 291 291 291 291 291 290 290 289 289 288 288 288 287 286 286 286 286 288 288 287 286 286 286 285 285 285 284
292 292 292 292 292 292 291 290 290 289 289 289 289 289 290 289 289 288 288 288 287 286 285 285 285 285 286 286 285 285 286 286 286 287 286 286 285 285 285 285 285 284 283
291 291 291 291 291 291 290 289 288 289 288 287 286 287 287 287 287 287 285 285 285 285 284 283 285 285 286 286 286 285 285 285 285 285 284 283 283 282 283 283 283 283 282
292 292 292 292 291 290 289 290 289 287 287 288 288 288 287 287 288 287 285 284 284 284 283 283 284 285 285 285 285 284 284 284 283 282 281 282 281 281 282 282 282 282 282
293 293 293 293 292 291 289 287 287 286 286 286 286 285 285 285 285 286 285 285 284 283 284 283 283 284 283 283 283 282 282 282 281 280 280 280 281 282 283 283 283 282 282
293 293 292 291 291 289 288 287 286 286 285 285 284 283 282 282 283 284 284 285 284 284 284 284 283 283 282 280 280 281 281 279 279 279 280 281 281 281 281 281 281 281 281
292 290 287 287 286 286 286 286 286 285 284 284 283 283 282 282 283 283 283 283 283 282 282 282 281 282 280 280 279 279 279 279 280 280 280 281 281 280 280 280 280 280 280
289 287 287 287 286 285 285 285 284 284 284 283 283 282 282 282 282 283 283 283 283 283 283 281 279 279 279 279 279 279 280 280 281 280 280 280 280 279 279 279 279 279 279
288 287 287 286 285 286 285 285 284 283 283 282 282 281 281 282 283 283 283 283 283 283 282 279 278 278 278 279 279 279 279 280 280 279 279 279 279 279 279 279 279 279 279
288 287 286 286 286 287 286 286 285 284 283 282 281 280 280 280 281 281 282 282 282 281 280 279 278 278 277 278 278 278 279 279 279 279 279 279 279 279 279 278 279 279 279
289 287 287 287 286 286 286 285 283 282 281 281 280 280 280 280 280 281 281 282 280 278 278 277 277 277 277 277 277 278 278 279 278 278 278 278 278 278 278 278 278 278 278
288 287 287 286 286 286 284 283 282 281 281 280 280 280 280 280 280 280 281 281 280 278 278 277 277 277 277 277 277 277 277 277 278 278 279 278 278 278 277 277 278 278 279
288 288 287 286 285 284 283 282 282 281 280 280 279 279 279 279 279 279 279 279 278 278 277 277 277 277 276 276 277 277 277 277 277 277 277 277 277 277 276 276 277 277 278
288 287 286 285 285 284 283 282 281 281 280 280 279 279 280 280 280 278 277 277 277 277 277 277 277 276 276 276 276 276 276 276 276 276 276 276 276 276 276 276 276 277 277
288 287 286 285 284 283 282 282 281 281 280 279 279 279 279 279 278 278 277 277 277 277 277 276 276 276 276 276 276 276 276 276 276 276 276 276 276 276 276 276 276 277 277
288 287 285 285 284 283 282 281 281 280 280 279 279 279 279 278 278 278 278 278 278 278 278 277 277 278 278 278 278 277 277 277 278 277 277 276 275 275 275 275 275 275 276
288 286 285 284 283 282 282 281 281 280 279 279 279 279 279 279 279 279 279 279 279 279 279 279 278 279 279 279 280 280 280 280 280 279 277 276 276 276 276 276 276 276 276
288 285 285 284 283 282 281 281 281 280 279 279 279 279 279 279 279 279 280 280 279 279 280 280 280 280 280 280 281 281 281 281 280 278 278 279 279 279 278 277 277 277 278
288 286 285 283 283 282 282 281 281 280 279 279 279 279 279 279 280 280 280 280 280 280 280 280 281 281 281 281 282 282 282 282 280 281 281 281 281 281 281 281 281 280 281

GFSGL_925_thetae_048.txt.gz
Theta_e
303 304 306 308 308 308 308 310 309 309 308 309 309 310 311 312 313 314 314 314 314 313 314 314 315 314 313 312 310 309 307 306 305 302 299 298 298 297 298 297 297 296 296
301 302 303 304 305 305 305 306 306 305 305 305 306 307 308 308 309 309 309 309 310 310 309 309 308 307 306 305 304 302 301 301 302 298 297 295 295 294 295 295 295 295 294
300 300 301 301 302 302 302 302 302 302 302 303 303 303 303 303 305 305 306 306 306 305 304 303 302 302 301 300 299 298 297 297 297 297 294 292 292 292 292 292 292 292 291
299 299 299 299 299 299 299 300 300 299 300 299 299 298 298 298 298 300 300 300 300 299 298 297 297 297 296 296 295 295 294 294 294 294 292 291 291 291 291 291 290 290 290
298 298 297 297 297 297 297 298 298 297 297 296 296 296 296 295 295 296 296 296 295 294 294 293 293 294 294 293 293 293 293 293 292 292 291 290 290 289 289 289 289 288 288
296 296 296 296 296 295 295 294 294 294 295 295 294 294 293 293 293 294 295 294 292 292 292 292 292 293 292 292 292 291 291 291 291 290 289 289 289 289 288 288 288 287 285
295 295 295 295 294 294 294 294 294 294 294 293 293 293 293 293 292 293 293 293 292 291 291 291 291 290 290 290 290 290 290 290 289 288 288 288 287 286 286 286 286 285 285
294 294 294 293 293 293 293 292 292 292 292 291 292 292 292 291 291 291 291 291 290 288 287 286 286 285 286 286 285 286 286 286 286 287 287 287 286 286 286 286 285 285 284
293 293 292 293 292 292 292 291 290 290 289 290 290 290 289 288 287 286 286 285 285 284 284 285 284 284 286 286 285 285 286 286 286 287 286 285 285 285 285 285 285 284 283
292 292 292 292 292 291 291 289 289 288 288 287 287 287 287 288 288 286 285 285 284 284 283 283 285 286 286 286 285 284 284 284 284 285 285 284 283 282 282 283 283 282 282
292 292 292 292 292 290 289 289 288 287 287 287 288 287 286 286 287 287 285 284 283 283 283 283 283 285 285 284 284 283 283 284 283 282 281 281 281 281 281 282 282 282 282
293 292 292 290 290 289 288 286 286 286 286 286 285 285 284 283 285 285 285 285 285 283 283 283 283 284 283 283 282 282 282 282 281 279 280 280 281 282 282 282 282 282 281
293 293 292 292 291 288 287 287 287 286 285 284 284 283 282 282 283 284 285 285 285 284 283 283 283 283 283 281 280 281 280 279 279 279 279 280 280 281 281 281 281 280 280
293 292 292 291 290 289 287 286 285 285 284 284 283 283 282 282 283 283 283 283 282 282 282 282 280 281 280 280 279 279 279 279 280 280 280 280 280 280 280 279 279 279 279
293 292 289 287 286 286 285 285 285 284 284 283 283 282 282 282 282 284 284 283 283 283 283 282 279 279 279 278 279 279 279 280 280 280 280 279 279 279 279 279 279 279 279
291 288 286 286 286 285 285 285 285 284 283 283 282 281 281 281 283 283 283 283 283 283 282 281 279 278 278 278 278 278 278 279 279 279 279 279 279 279 279 279 279 278 278
292 288 287 286 286 285 285 285 285 284 284 283 282 281 281 281 282 282 282 282 282 281 279 278 278 277 277 277 277 277 277 278 279 278 278 278 278 278 278 278 278 278 278
293 289 287 287 286 286 286 286 285 284 282 282 281 283 281 281 281 281 281 282 281 280 278 278 277 277 277 277 277 277 277 277 277 277 278 278 278 278 278 277 277 277 277
292 289 288 287 286 286 286 285 284 282 282 281 281 280 280 280 281 280 280 280 280 279 278 278 277 277 277 277 276 276 277 277 277 277 277 277 277 277 277 276 276 277 278
292 289 288 287 286 286 285 284 283 282 281 281 280 280 280 279 279 280 279 278 278 278 277 277 277 277 277 276 276 276 276 276 276 276 276 276 276 276 276 276 275 275 276
291 289 288 287 286 285 285 283 283 282 281 281 280 280 280 280 281 280 279 278 277 277 277 277 277 277 277 276 276 276 276 276 276 276 276 276 276 276 276 276 275 275 276
292 290 287 287 286 285 284 283 282 282 281 281 280 280 280 280 280 279 278 278 278 277 277 277 277 277 277 277 277 277 277 277 278 278 278 278 277 277 276 275 275 275 275
290 289 287 287 287 284 283 283 282 281 281 280 280 280 279 279 279 279 279 279 279 279 279 279 279 279 279 279 279 279 278 278 279 279 278 278 277 276 275 275 275 275 275
289 287 286 287 287 284 283 283 282 281 281 280 280 280 279 279 279 279 280 280 280 280 280 280 280 280 280 280 280 280 280 280 280 280 279 278 277 277 277 276 276 276 276
286 287 288 287 285 284 284 282 282 281 281 280 280 279 280 279 280 280 280 280 280 280 281 280 281 281 281 281 281 281 281 281 281 280 279 279 280 280 279 278 277 277 277
287 287 287 286 285 285 284 283 282 281 281 281 280 280 279 279 280 280 280 280 280 281 280 281 281 281 281 281 281 281 281 281 280 280 281 281 281 281 281 281 281 280 280

GFSGL_925_thetae_051.txt.gz
Theta_e
303 304 305 307 307 307 307 307 307 307 306 307 307 308 309 309 310 311 311 311 311 310 309 310 309 309 310 309 308 306 305 305 304 304 303 302 300 298 298 299 299 300 299
301 302 303 303 304 304 304 303 303 304 303 304 304 305 306 306 306 307 307 307 306 306 307 307 306 306 304 304 303 303 301 300 300 299 298 297 296 295 296 296 296 297 297
300 300 301 301 301 301 301 301 301 301 301 301 301 302 301 301 302 303 303 304 304 303 302 301 300 301 300 300 299 299 298 298 297 296 295 294 293 293 293 293 293 292 292
299 299 299 299 299 299 299 299 299 299 299 298 298 298 297 297 298 298 298 298 298 297 296 296 295 296 296 295 295 295 295 295 294 294 293 292 291 291 291 291 291 291 291
298 298 297 297 297 297 297 296 297 297 296 296 295 294 294 294 293 296 296 295 293 293 293 293 293 294 294 293 293 293 293 293 292 292 291 291 290 290 290 289 289 289 289
297 297 296 296 296 296 295 295 295 295 295 294 293 293 293 293 293 294 294 292 292 292 293 292 292 292 292 292 292 292 292 291 290 290 289 289 289 289 289 288 288 287 286
296 295 295 295 295 294 294 294 294 294 293 293 293 293 293 293 292 293 293 292 291 290 290 290 289 289 288 288 288 289 289 289 289 288 287 287 287 286 286 285 285 285 285
295 294 294 294 293 293 293 293 293 292 292 292 292 292 291 290 290 290 290 290 289 286 285 284 284 285 286 286 284 285 285 285 286 286 286 286 286 286 286 286 285 285 284
294 293 293 293 292 292 292 292 291 291 291 291 291 290 288 288 286 285 285 285 284 284 284 285 285 285 287 286 285 284 285 285 285 286 285 285 285 285 285 284 285 284 283
293 293 292 292 292 291 291 289 289 289 289 289 287 287 287 288 287 285 284 283 283 283 283 283 284 286 286 286 284 284 283 283 284 284 283 283 283 282 282 282 282 283 282
292 292 292 292 292 291 289 288 288 287 286 287 287 286 286 286 287 287 286 284 283 283 283 283 283 284 285 284 284 283 283 283 282 281 280 280 280 280 281 282 282 281 281
292 292 292 292 291 289 288 287 287 287 286 286 285 285 284 283 284 285 286 285 285 284 283 283 284 284 284 283 282 282 282 282 281 279 279 279 280 281 281 281 281 281 281
292 292 291 290 290 289 287 286 286 285 285 285 284 284 283 282 283 283 284 284 284 283 282 283 283 282 283 282 280 281 280 279 279 279 280 280 280 280 280 280 280 280 280
293 293 292 291 290 288 287 287 286 286 285 284 283 283 282 282 282 283 283 283 283 283 283 283 282 280 279 280 279 279 279 279 280 280 280 280 280 280 279 279 279 279 279
293 292 292 291 290 289 288 286 286 285 285 284 283 283 282 282 282 282 284 284 284 284 284 283 282 279 278 278 278 278 278 279 279 279 279 279 279 279 279 279 278 279 279
292 292 292 289 287 286 285 285 284 284 284 283 283 282 282 281 282 284 283 283 283 283 283 281 280 279 278 277 277 277 277 278 278 279 278 279 279 278 278 278 279 279 278
293 292 291 287 286 286 285 285 285 285 285 284 283 282 282 281 282 282 282 282 283 283 280 278 278 277 277 277 277 277 277 277 277 277 278 278 278 278 278 278 278 277 277
294 293 290 287 286 286 285 285 285 285 285 285 284 283 283 282 282 282 282 282 282 281 280 279 278 277 277 277 277 277 276 277 277 277 277 277 277 278 277 277 277 276 276
295 293 292 289 287 286 285 285 286 285 284 282 282 281 281 281 281 282 281 280 280 280 279 279 278 277 277 277 276 276 276 276 276 276 276 276 276 276 276 276 276 276 277
295 295 293 291 287 286 285 285 285 284 283 282 281 281 280 280 280 280 280 280 279 278 278 278 277 277 277 277 276 276 276 276 276 276 276 276 276 276 276 276 275 275 275
295 293 293 290 287 286 286 285 285 284 282 282 282 281 280 280 280 281 280 280 279 278 278 277 277 277 277 277 277 277 277 277 277 277 277 277 277 277 277 277 276 276 275
294 293 291 289 288 288 286 285 285 283 282 282 282 281 280 281 281 281 280 279 279 279 278 278 279 279 279 278 278 278 278 278 279 279 278 278 278 277 277 276 276 275 275
292 291 290 289 289 287 286 285 284 283 282 282 281 281 280 280 280 280 280 280 280 280 280 280 280 280 280 280 280 279 279 279 279 279 279 278 277 276 276 276 276 275 275
290 289 289 288 285 285 286 286 284 284 282 282 281 281 280 280 280 280 280 280 280 280 281 281 281 281 280 280 280 280 280 280 280 280 280 279 278 278 278 276 277 276 276
288 288 288 287 286 286 287 284 284 284 282 282 282 281 280 280 280 280 280 280 280 281 281 281 281 281 281 281 281 281 281 281 281 280 279 279 280 280 280 278 278 277 277
286 287 287 286 286 287 286 285 285 284 283 282 282 281 280 280 279 279 280 280 280 280 281 281 281 281 281 281 281 281 281 281 280 280 280 281 281 281 281 281 281 280 279

GFSGL_925_thetae_054.txt.gz
Theta_e
303 303 305 306 306 306 307 306 306 306 306 306 306 307 307 307 308 309 309 310 310 308 308 308 308 309 308 308 308 308 307 306 304 304 302 301 301 301 300 299 299 299 300
302 302 303 303 304 304 303 303 303 303 302 303 303 304 304 304 305 305 305 304 304 304 303 305 304 302 303 303 302 303 301 301 301 299 298 298 297 296 295 296 297 298 299
300 300 301 301 301 301 301 300 300 300 300 300 300 300 300 300 301 301 302 301 300 300 299 298 297 298 297 297 297 297 297 297 297 297 295 294 294 293 293 293 294 294 295
299 299 299 299 299 299 298 298 298 298 298 298 298 297 296 297 298 298 298 298 297 295 295 295 294 295 294 294 294 294 294 295 295 294 293 292 292 291 291 291 291 291 291
298 298 297 297 297 297 296 296 296 296 296 294 294 293 294 293 294 294 294 293 293 293 293 293 293 294 294 293 293 293 293 293 292 292 291 291 290 290 289 289 289 289 289
297 297 297 296 296 296 296 295 295 295 295 294 294 293 293 293 292 292 291 291 292 293 292 291 291 292 292 291 291 292 291 290 290 290 289 289 288 288 287 287 287 287 286
296 296 296 295 295 295 294 294 294 294 294 293 293 292 292 291 291 292 292 291 290 289 288 288 287 287 286 285 285 286 287 287 287 287 287 287 286 286 285 285 285 285 284
295 295 295 294 294 293 293 293 293 293 293 292 292 291 290 290 289 289 288 287 285 284 284 283 284 286 288 285 284 284 285 285 286 286 285 285 285 286 285 285 285 284 284
294 294 294 294 293 293 292 292 292 292 291 291 290 288 287 288 286 285 285 284 284 283 284 285 286 286 287 286 284 284 283 284 284 285 285 285 285 284 284 284 283 284 283
294 294 293 293 293 292 292 291 291 291 290 290 288 287 288 288 287 284 283 283 283 283 283 283 283 286 286 285 284 283 282 283 283 283 282 281 281 281 281 281 281 282 282
293 293 293 293 292 292 291 290 289 288 288 287 287 287 287 287 287 287 286 284 284 283 283 283 283 285 285 284 284 282 282 283 282 281 279 279 280 280 281 281 282 282 281
293 292 292 292 291 291 289 288 287 286 286 287 286 285 284 283 284 285 286 286 285 284 283 283 283 283 284 284 282 282 282 281 279 279 279 279 280 280 280 281 281 281 281
292 292 292 291 291 289 289 287 286 286 285 285 284 284 283 282 282 283 284 284 283 284 282 283 283 282 281 281 280 281 280 279 279 279 280 280 280 280 280 280 280 279 279
292 292 291 290 289 289 287 286 286 285 285 284 284 283 283 282 282 283 283 283 283 283 283 283 283 281 279 279 279 279 279 279 279 280 280 280 279 279 279 279 279 278 278
292 292 292 290 290 289 287 287 287 286 285 285 284 283 283 282 282 282 283 284 284 284 284 283 282 281 279 278 278 278 278 278 279 279 279 279 279 279 279 279 278 278 279
293 292 292 291 291 290 289 288 286 285 284 284 284 283 282 282 281 283 284 284 284 284 283 282 280 279 279 278 277 277 277 277 277 277 278 278 278 278 278 278 278 279 278
293 293 292 292 290 288 286 285 285 284 285 285 284 283 283 282 282 282 283 283 283 284 283 281 279 278 278 277 277 277 277 277 277 277 277 277 277 278 278 278 277 277 277
294 294 293 292 291 287 285 286 285 285 285 285 285 285 285 284 283 282 283 283 282 282 282 281 280 279 278 277 277 277 277 276 276 276 276 276 276 277 277 276 276 276 276
294 293 293 293 291 288 286 286 285 285 285 285 284 282 282 283 284 283 283 282 281 280 279 279 279 278 278 277 277 277 276 276 276 276 276 276 276 276 276 276 276 275 276
295 295 294 293 291 288 286 285 285 284 285 285 284 282 282 281 280 280 280 280 280 280 279 278 278 278 277 277 277 277 277 277 277 277 277 277 277 276 276 276 275 275 275
296 294 293 292 291 290 288 286 285 285 285 285 284 283 282 281 281 280 280 281 280 280 279 279 279 278 278 278 278 278 278 278 278 278 278 278 278 277 277 277 277 276 276
296 295 293 292 291 289 288 286 286 286 285 284 284 283 282 282 281 281 281 281 280 280 280 279 279 280 280 280 280 279 279 279 279 279 279 279 278 278 277 277 276 275 275
294 293 291 291 290 289 287 287 287 285 285 284 283 282 281 281 281 280 280 280 280 280 280 280 280 281 281 281 280 280 280 280 280 279 279 279 278 277 277 276 276 275 275
292 291 290 290 289 288 288 287 287 287 285 283 283 282 282 281 281 280 280 280 280 281 281 281 281 281 281 281 281 281 280 280 280 280 280 279 278 278 278 277 276 276 276
290 289 288 288 289 288 287 286 286 286 284 283 285 282 282 281 281 281 280 280 280 280 281 281 281 281 281 281 281 281 281 281 280 280 279 278 278 279 279 279 278 277 277
288 288 287 288 287 286 286 285 286 286 285 285 286 284 283 282 281 280 280 280 280 280 280 280 280 281 281 281 281 281 281 281 279 280 280 281 281 281 281 280 280 280 279

GFSGL_925_thetae_057.txt.gz
Theta_e
304 305 305 306 307 307 307 307 306 305 305 305 305 306 306 307 308 309 310 310 311 311 310 309 309 309 309 308 307 307 306 306 306 303 302 300 300 300 299 299 299 299 299
303 303 303 303 304 304 304 303 303 303 303 303 303 303 304 304 305 305 306 305 305 305 304 304 304 304 303 302 303 302 302 301 301 300 298 298 297 296 295 296 297 297 298
301 301 301 301 301 301 301 301 301 301 300 300 300 300 300 300 301 302 302 301 300 299 299 300 299 298 298 298 298 297 297 297 297 297 295 294 294 293 293 294 294 295 296
300 299 299 299 299 299 299 299 299 299 299 298 297 296 296 297 298 298 297 296 295 295 295 295 295 295 294 294 295 295 295 295 295 294 293 292 291 291 291 291 291 292 292
299 298 298 298 298 297 297 297 297 296 296 295 295 294 293 293 293 294 294 294 294 294 294 294 294 294 293 293 293 293 293 293 292 293 292 292 291 291 289 289 290 289 289
298 298 297 297 296 296 297 296 296 296 295 295 294 293 292 292 293 293 293 293 293 293 292 292 291 291 291 291 291 291 291 290 290 289 289 289 288 287 286 286 286 287 288
297 297 296 296 296 295 295 295 295 294 294 294 293 293 292 291 292 292 292 292 291 290 289 288 287 286 286 285 285 286 286 287 287 286 287 286 286 285 285 285 285 285 285
296 296 296 295 295 294 294 294 293 293 293 293 292 292 291 290 290 289 288 286 284 284 284 284 286 287 287 285 284 284 284 286 286 285 285 285 285 285 285 285 284 284 284
295 295 295 295 294 293 293 293 293 293 292 291 289 288 287 287 285 285 284 284 284 284 285 285 285 287 287 285 284 283 283 284 284 284 284 284 284 284 284 284 284 283 283
295 295 295 294 294 293 293 292 292 292 291 290 288 287 287 287 286 283 283 283 283 283 283 283 285 286 286 286 284 282 282 283 283 282 281 280 280 280 280 281 280 282 282
295 294 294 294 293 293 292 291 291 290 290 288 287 287 287 287 287 287 285 284 284 283 283 283 283 285 285 285 284 282 283 283 282 280 279 279 280 280 281 281 281 281 281
294 293 293 293 292 291 291 290 289 288 288 287 286 286 285 285 285 286 286 286 285 283 283 282 283 284 284 285 283 282 283 281 279 279 279 279 280 280 280 280 280 280 280
293 293 292 292 292 291 290 288 287 286 286 286 285 284 284 283 283 284 285 285 284 284 283 283 283 282 281 280 280 281 280 279 279 279 279 280 280 280 280 280 280 279 279
293 292 292 291 291 290 290 288 286 285 285 284 284 284 284 283 282 282 283 283 283 283 283 283 283 282 281 279 279 279 278 279 279 279 279 280 279 279 279 279 279 279 279
293 292 292 291 291 290 289 287 286 286 286 285 285 284 283 283 283 282 282 283 284 284 284 284 283 282 280 279 278 278 278 278 278 279 279 279 279 279 279 279 279 279 279
292 292 292 290 290 289 288 286 287 287 286 285 284 284 283 283 282 282 284 285 284 284 284 283 282 280 279 279 278 278 277 277 277 277 277 277 278 278 278 278 279 279 279
293 293 292 292 291 290 289 288 287 286 285 285 284 285 283 283 282 282 283 283 284 284 284 283 282 280 279 278 278 277 277 277 277 277 277 277 277 277 277 277 277 278 278
294 294 293 292 292 292 291 289 287 285 285 285 286 286 285 285 285 284 283 284 283 283 283 282 281 281 280 279 278 277 277 277 277 277 276 276 276 276 276 276 276 276 276
295 294 293 293 292 292 291 289 286 285 285 285 285 285 286 286 286 286 285 284 283 282 281 280 280 279 279 278 278 277 277 277 277 277 277 276 276 276 276 276 275 276 276
295 295 294 293 293 292 290 288 285 285 285 285 285 285 284 282 282 283 283 283 283 281 280 280 279 279 278 278 278 277 277 277 277 277 277 277 277 277 276 276 276 274 275
296 295 293 292 291 291 289 289 287 285 285 285 285 286 285 282 282 282 281 281 281 281 281 280 280 279 279 279 278 278 278 279 279 279 279 279 278 277 277 277 276 275 275
296 295 294 293 292 290 290 289 288 287 286 285 285 286 285 283 282 282 281 281 281 281 281 280 280 280 280 280 280 280 280 280 280 280 279 279 278 278 277 277 276 275 275
295 294 294 293 292 290 289 288 287 287 286 286 287 285 284 283 282 282 282 282 281 281 280 280 280 280 281 281 281 281 280 280 280 280 279 279 278 278 277 276 275 275 275
293 293 292 292 291 289 289 288 288 287 287 286 286 286 286 284 282 282 282 281 280 280 280 280 281 281 281 281 281 281 281 281 280 280 279 278 277 277 276 276 276 276 276
290 290 290 290 290 289 288 288 287 287 286 286 286 286 285 284 284 284 282 281 280 280 280 280 280 280 281 281 281 281 281 280 280 280 279 278 278 278 279 278 278 277 277
288 288 288 288 288 288 287 287 286 286 286 285 286 285 285 286 285 283 281 281 280 280 280 279 280 280 280 280 280 281 281 280 278 279 279 280 280 280 280 279 279 279 279

GFSGL_925_thetae_060.txt.gz
Theta_e
307 306 307 306 306 307 307 306 305 306 306 305 305 305 306 306 306 308 309 310 311 311 310 309 308 307 306 306 306 307 307 308 309 304 304 303 300 299 298 298 298 299 299
305 305 305 304 304 304 304 303 303 302 303 302 302 302 302 303 303 304 304 304 304 304 303 303 302 303 303 303 303 303 303 302 305 306 298 298 297 297 295 295 296 297 297
303 303 303 303 303 303 302 301 300 300 300 299 299 298 299 300 300 300 300 300 300 299 299 299 299 300 300 299 299 299 299 298 298 300 297 295 295 295 293 293 294 294 294
301 302 302 301 301 301 300 299 299 299 298 298 297 296 297 297 297 297 297 296 296 296 296 296 296 296 296 296 296 295 296 297 296 297 296 295 293 292 291 292 295 293 292
301 300 300 299 299 298 298 298 297 297 297 296 296 295 294 294 295 296 296 295 295 295 294 294 294 294 294 294 294 294 294 295 295 296 296 295 294 293 291 291 292 292 291
301 300 300 299 298 298 298 297 296 296 296 295 294 295 294 294 294 294 294 293 293 293 292 293 293 292 292 292 292 291 291 292 291 293 294 294 292 290 289 289 289 289 290
300 300 299 298 297 297 296 295 295 295 294 294 293 293 293 292 292 292 293 292 292 292 291 290 288 287 286 286 287 286 286 288 287 289 289 289 288 287 287 287 287 287 287
300 299 298 297 296 295 295 295 294 294 294 293 293 292 292 292 291 291 290 289 287 285 285 285 286 287 286 285 285 285 286 287 287 286 287 287 287 287 286 286 286 286 286
299 298 297 296 295 295 294 294 293 293 293 292 292 291 290 289 287 285 285 284 284 285 285 286 287 288 287 286 285 284 284 285 284 284 284 284 285 285 284 285 286 285 285
298 297 296 295 295 294 294 293 293 292 292 291 289 288 287 288 286 284 284 284 284 284 284 285 285 287 286 286 285 284 284 285 284 284 282 281 280 281 280 282 283 284 284
297 296 295 294 294 294 293 292 292 291 290 289 288 287 287 287 287 285 284 284 284 284 284 284 284 285 285 285 285 283 284 284 283 281 281 281 281 282 282 282 282 282 284
296 295 294 294 293 293 292 292 291 291 290 288 287 287 287 286 287 288 287 286 285 285 284 284 284 284 284 285 285 283 283 282 281 280 281 281 282 282 282 281 281 281 281
295 294 293 293 293 292 291 290 289 289 289 288 287 287 286 284 284 285 287 287 286 284 284 283 284 283 282 281 281 282 282 280 280 280 281 282 282 282 280 281 280 280 280
295 294 292 292 291 291 290 290 289 287 287 287 287 286 285 283 282 283 285 286 285 284 283 284 284 283 282 281 280 280 279 280 280 281 281 281 281 281 281 281 281 281 281
294 293 292 292 291 290 289 290 288 287 287 286 286 285 285 284 283 283 283 283 284 284 284 284 284 283 282 281 280 279 279 279 280 280 280 281 280 281 281 281 281 281 281
293 292 292 291 291 290 289 289 288 286 286 286 286 285 285 284 284 283 282 282 285 285 285 285 284 284 282 281 280 280 279 279 280 280 280 280 280 280 280 280 280 281 281
293 293 292 291 291 290 289 289 288 287 287 287 286 285 285 284 283 283 283 286 285 285 284 285 284 283 282 281 280 280 280 280 279 278 279 279 279 279 279 279 280 280 280
294 293 293 292 291 290 290 289 288 288 287 287 287 287 287 286 283 283 284 285 285 284 284 284 284 283 282 281 281 280 280 279 279 278 278 278 278 278 278 278 279 279 279
294 293 293 293 292 291 290 289 289 287 286 285 285 286 288 287 287 287 286 285 284 283 283 283 282 282 281 280 280 280 279 279 279 278 278 277 277 277 277 278 278 278 279
295 295 293 293 292 292 290 289 288 287 286 285 285 286 285 285 286 287 287 286 285 284 283 282 281 280 280 280 279 279 278 278 278 278 278 278 278 277 277 277 278 278 279
295 294 293 292 292 291 291 290 289 288 288 285 286 286 286 285 284 283 283 283 284 283 282 281 281 281 280 279 279 279 278 278 279 279 278 278 277 277 277 277 277 277 277
295 295 294 293 292 291 290 290 289 288 288 286 285 286 287 285 283 284 283 283 282 281 281 281 281 281 280 280 280 280 280 280 279 279 278 278 277 277 276 277 277 278 278
295 294 294 294 293 292 290 290 288 287 287 287 287 286 287 287 285 283 283 287 283 282 281 281 281 280 280 281 281 281 280 280 280 280 279 278 277 277 277 277 278 277 278
293 293 293 293 292 291 290 290 289 288 288 287 287 286 286 287 284 283 285 286 282 283 281 280 280 280 280 281 281 281 281 281 281 280 280 279 277 277 277 277 277 277 277
290 290 290 290 290 290 289 289 288 288 287 287 286 285 285 285 285 284 285 283 285 281 280 280 280 280 280 280 280 280 280 280 280 280 280 279 278 278 278 278 278 278 279
288 288 288 288 288 288 288 288 288 288 287 286 285 285 285 285 285 285 285 285 283 281 281 282 280 280 280 280 280 280 280 280 280 278 278 279 279 279 278 278 278 279 279

GFSGL_925_thetae_063.txt.gz
Theta_e
311 311 310 310 309 310 310 310 308 307 306 305 305 305 305 305 306 309 308 309 310 310 310 310 310 309 309 309 309 309 309 310 311 307 306 303 302 301 299 298 297 298 298
310 309 309 308 308 308 308 307 305 306 304 303 303 303 303 303 304 306 306 306 307 307 306 306 305 305 305 305 305 305 305 304 306 307 301 299 298 297 296 296 296 296 297
307 307 307 307 306 306 306 305 304 303 303 302 301 301 301 300 301 302 302 302 302 302 301 301 301 302 301 301 301 301 300 300 299 300 298 297 296 296 294 294 294 295 294
305 306 306 305 305 304 304 303 302 302 302 301 300 299 298 298 298 298 299 299 298 298 297 298 297 298 298 297 297 297 297 298 298 298 297 296 294 293 293 293 295 295 294
305 304 304 303 302 302 301 301 300 300 300 299 298 297 297 296 296 296 297 297 296 296 295 295 295 295 295 295 295 295 295 295 295 296 297 296 295 294 293 292 292 292 292
305 304 303 302 301 300 299 299 298 298 297 297 297 296 296 295 295 295 295 296 295 294 293 293 293 293 292 292 291 291 291 292 292 293 294 295 294 291 290 289 289 289 290
305 304 303 301 301 300 299 298 296 296 296 296 295 295 295 294 294 294 294 293 294 293 292 292 290 288 287 287 286 286 288 286 288 289 290 289 289 288 287 287 288 288 288
304 303 302 301 299 298 297 296 296 295 295 294 294 294 293 292 292 292 293 292 292 290 288 286 287 287 286 286 286 286 287 288 287 287 288 288 287 287 287 287 286 286 286
303 302 301 300 298 297 295 295 294 294 294 293 293 293 292 291 290 288 286 285 284 285 285 287 288 289 288 286 286 285 285 286 285 284 284 284 284 284 285 285 286 285 286
302 301 300 298 297 296 295 294 294 293 293 292 292 292 290 289 287 285 285 285 285 285 285 287 285 287 287 286 286 285 285 285 285 285 283 282 281 282 281 282 283 284 285
300 299 298 297 296 295 295 294 293 293 292 291 290 288 287 287 288 285 284 284 285 285 285 285 285 285 286 286 285 284 284 285 284 282 282 281 282 282 283 283 282 283 284
299 298 297 296 295 294 294 293 292 292 291 290 289 288 288 288 288 288 287 285 285 285 285 285 285 284 284 285 286 285 283 283 282 281 281 282 282 282 283 282 282 281 282
298 297 296 295 293 294 293 292 291 291 290 291 289 288 288 287 286 287 288 289 287 286 284 284 284 284 283 282 282 283 283 282 281 281 281 282 283 283 283 281 282 281 281
297 296 295 294 292 292 292 292 290 290 290 291 288 287 288 286 285 284 285 287 288 287 285 284 284 284 283 282 281 281 281 280 281 281 282 282 282 281 282 282 282 282 282
296 295 294 293 292 291 291 291 290 291 291 289 288 287 287 286 285 284 284 285 286 285 285 284 284 284 283 283 281 281 280 280 280 281 281 281 281 281 281 282 282 282 282
296 295 293 292 292 291 290 290 290 291 289 288 287 286 286 286 285 284 284 284 285 285 285 285 285 285 284 283 282 281 281 280 280 280 281 281 281 281 281 281 281 281 281
295 294 293 292 292 291 290 290 290 290 289 287 287 286 286 285 284 284 283 283 285 286 286 285 285 285 285 283 282 281 281 281 281 280 280 280 280 280 280 280 280 280 281
295 294 293 293 292 292 291 290 291 289 288 288 287 287 287 286 286 284 285 286 286 286 285 285 285 285 284 283 282 282 281 281 280 279 279 279 279 279 279 279 279 280 280
294 294 294 293 293 293 292 291 291 289 288 288 287 288 288 288 288 286 286 286 285 285 285 284 284 284 284 283 282 281 281 281 280 280 280 279 279 278 278 278 278 279 280
294 294 294 293 293 292 292 291 290 289 289 288 287 287 287 288 288 288 287 287 286 285 284 284 283 283 283 282 281 281 280 280 280 279 279 279 279 279 278 278 278 279 279
296 295 293 293 293 292 292 290 290 289 288 288 287 287 287 286 287 287 288 288 287 286 285 285 284 283 282 281 281 280 280 280 279 279 279 280 279 279 279 278 278 278 278
296 296 295 293 292 291 291 291 290 289 289 288 289 288 287 287 287 284 284 285 285 285 284 284 282 281 281 281 281 280 280 280 280 280 280 279 279 279 278 278 278 278 278
295 295 294 294 293 292 291 290 289 289 288 288 288 288 287 287 287 287 284 283 284 283 286 286 281 281 281 281 281 281 280 281 281 281 280 280 279 279 278 278 278 278 278
293 293 293 293 293 292 292 291 290 290 289 289 288 288 287 287 287 287 287 284 284 284 286 284 282 282 281 280 281 280 281 281 281 280 280 280 279 278 279 278 278 278 278
290 291 291 291 291 291 291 290 290 289 289 288 288 288 287 287 286 286 286 284 284 284 285 283 283 281 282 282 280 280 280 280 280 280 279 279 278 277 277 277 278 278 278
289 289 289 289 289 289 289 289 289 289 289 288 288 287 286 286 286 285 285 285 284 284 284 284 283 282 284 280 280 280 280 280 280 279 279 278 278 278 278 278 279 279 279

GFSGL_925_thetae_066.txt.gz
Theta_e
313 312 312 312 312 311 311 312 311 309 308 307 307 306 306 306 306 307 309 308 309 309 310 310 310 310 309 310 311 311 311 311 311 306 305 302 301 300 299 298 297 297 297
311 311 310 310 309 309 309 309 308 307 306 305 304 304 304 304 304 305 306 306 307 307 306 306 306 306 306 306 306 305 306 305 307 306 302 300 298 297 296 295 295 295 295
310 309 309 308 307 307 307 306 305 304 304 303 303 302 301 301 302 303 303 303 303 303 303 303 302 303 302 302 303 302 302 301 301 302 299 298 296 296 294 293 294 295 294
308 307 307 306 306 306 305 304 303 303 302 302 301 300 299 299 299 300 300 300 300 300 299 299 299 299 299 298 298 297 297 298 298 298 298 296 295 294 292 293 294 293 293
306 306 305 305 304 304 303 302 301 301 301 300 300 299 298 297 297 297 298 298 298 297 296 296 296 296 296 296 296 296 296 296 296 296 297 296 295 294 292 292 290 290 290
305 304 304 303 302 302 301 300 300 299 299 299 298 297 297 296 295 296 297 297 296 295 295 294 294 293 292 292 292 292 293 293 293 295 294 294 294 291 289 289 288 288 288
305 305 304 303 301 300 300 299 298 298 298 297 297 296 295 295 295 295 295 295 295 294 294 292 291 290 289 287 286 288 286 287 290 289 289 289 288 288 287 287 288 287 287
305 304 303 302 301 300 299 297 296 297 297 296 295 295 294 294 293 293 294 293 293 292 291 288 287 287 285 286 286 286 287 287 287 288 288 288 287 287 287 286 286 286 286
304 304 302 301 300 299 297 296 296 296 295 295 294 294 293 293 291 290 290 290 288 286 285 287 288 289 288 286 286 285 285 286 285 284 284 284 284 284 285 285 285 286 285
304 303 302 301 299 298 296 295 296 295 294 294 293 293 292 291 289 286 285 285 285 286 286 287 287 288 287 286 286 285 284 285 285 285 283 282 282 281 281 281 283 283 285
303 302 301 299 298 296 295 295 295 294 293 293 292 291 291 289 288 286 285 285 285 285 285 285 285 285 286 286 285 285 284 285 284 283 282 282 282 282 283 282 282 282 284
301 300 299 298 297 295 295 294 294 293 292 291 290 289 288 287 288 288 286 285 285 285 285 285 285 285 284 285 286 286 284 284 283 281 281 281 282 282 282 282 282 282 282
299 299 298 297 295 294 293 294 292 292 291 291 290 289 288 287 287 289 290 288 287 285 285 284 284 284 284 283 283 284 284 283 281 281 281 281 282 282 283 283 282 282 282
298 298 297 296 294 293 293 293 292 291 291 291 291 289 288 287 287 286 287 288 289 289 286 285 284 284 284 283 283 282 282 282 281 281 281 282 282 282 281 281 282 282 282
298 297 296 295 294 293 293 293 292 292 292 292 291 290 288 287 287 286 285 285 286 287 287 285 284 284 284 283 283 282 281 281 281 281 281 281 281 281 281 281 282 282 282
297 296 295 294 294 293 292 291 291 292 292 291 291 290 288 287 287 286 285 285 285 286 286 285 284 284 284 284 283 282 281 281 280 280 280 281 281 281 281 281 281 281 281
297 296 295 294 293 292 291 291 290 291 291 290 290 288 287 287 286 285 285 285 286 286 285 285 285 285 285 285 284 283 282 281 281 280 280 280 280 281 280 281 281 280 280
297 296 295 294 293 292 292 292 292 291 291 291 290 288 288 287 287 286 285 286 285 286 286 286 286 285 285 285 285 283 282 282 281 281 281 280 279 279 279 279 279 279 279
295 295 295 294 293 293 293 292 292 291 291 289 289 289 289 289 289 289 287 286 286 285 286 286 286 285 285 284 284 284 283 282 281 281 280 280 280 279 279 279 278 279 279
297 295 294 294 293 293 292 292 291 291 291 290 288 288 288 289 289 289 289 287 286 286 285 285 285 285 284 284 283 283 282 281 281 281 281 280 280 279 279 279 278 278 278
297 296 294 293 293 293 292 292 292 292 291 290 290 291 293 291 290 289 288 288 287 286 286 286 286 285 286 284 283 282 281 281 281 280 280 280 280 279 279 279 279 279 278
297 296 296 294 293 292 292 292 291 291 290 290 289 289 288 288 287 287 287 287 287 288 288 289 288 286 286 286 282 281 281 281 281 280 280 280 280 280 280 279 279 278 278
295 296 296 295 294 292 292 291 291 290 290 290 289 289 289 289 289 288 287 286 285 285 285 286 286 284 284 285 281 281 281 281 282 281 280 281 280 280 280 279 279 278 278
293 293 294 294 294 293 292 291 291 290 290 289 289 289 288 288 288 288 288 288 288 286 284 284 283 283 286 281 284 281 281 285 281 280 281 280 280 279 280 279 279 278 278
290 291 292 292 292 292 291 291 291 290 290 290 289 289 289 288 288 287 287 287 287 286 285 285 284 284 283 283 282 281 284 280 281 280 280 280 279 279 278 277 278 278 278
289 289 289 290 290 290 290 290 290 290 290 289 289 289 288 287 287 286 286 286 286 285 285 284 284 284 284 283 281 284 283 281 279 279 280 280 279 279 278 278 278 278 278

GFSGL_925_thetae_069.txt.gz
Theta_e
315 314 314 313 313 313 313 313 312 312 311 309 308 308 307 307 306 306 308 308 309 309 310 310 311 311 310 310 311 312 311 312 312 305 304 301 301 301 301 299 297 297 297
313 313 313 313 312 311 311 311 310 309 308 307 306 306 305 305 305 305 306 306 307 307 307 307 307 307 307 307 307 308 307 307 308 305 301 300 301 300 297 295 295 296 295
312 311 311 310 310 309 309 309 308 307 306 305 304 304 303 303 302 303 303 304 305 306 305 305 305 305 305 305 304 304 303 302 302 303 299 298 298 296 295 294 294 294 293
310 310 309 309 308 307 307 306 305 304 304 303 302 301 301 301 300 300 301 301 302 301 301 301 301 301 301 300 300 300 298 299 299 300 298 297 296 294 293 293 294 292 292
309 308 307 307 306 305 305 304 303 303 302 301 301 300 300 299 298 298 298 299 300 299 298 298 297 297 297 297 297 297 297 297 297 298 297 296 295 294 292 292 290 289 289
308 307 306 305 305 304 303 303 301 301 300 300 300 299 299 298 297 296 297 298 297 297 296 295 295 294 294 294 295 294 295 295 296 296 295 294 293 292 290 289 288 287 288
307 306 305 304 303 302 301 300 300 299 299 299 298 298 297 296 296 296 296 296 296 295 294 293 293 292 290 289 289 288 289 289 291 292 291 290 290 289 288 287 287 287 286
306 305 304 303 303 302 300 299 299 298 297 297 297 296 295 295 295 294 295 295 294 294 293 292 288 286 285 286 286 287 287 287 287 288 288 288 288 287 287 286 286 286 286
306 305 304 303 302 301 299 299 297 296 296 296 296 295 294 294 293 292 293 293 293 292 289 287 288 288 287 286 286 285 286 286 285 284 285 285 285 285 285 285 286 286 284
306 305 304 303 302 300 299 298 296 296 295 295 295 294 294 293 293 290 288 288 286 285 286 287 288 288 289 286 286 285 284 285 285 285 284 283 282 282 282 281 283 283 284
306 305 303 302 301 300 298 296 295 295 295 294 293 293 292 292 291 289 286 285 285 285 285 286 286 288 287 287 285 285 284 285 285 284 282 282 282 282 282 282 282 282 283
304 303 302 301 300 298 296 294 294 294 294 293 292 292 291 291 288 289 288 286 285 285 285 285 285 286 286 286 287 286 285 284 283 282 281 281 281 282 282 282 282 282 282
302 301 300 299 298 297 295 293 293 293 293 292 291 290 290 288 287 289 289 288 287 285 285 285 285 285 285 284 284 285 286 284 283 281 281 281 282 282 282 282 283 282 281
301 300 299 298 297 296 294 293 293 292 291 291 291 290 290 289 288 287 290 290 289 289 286 285 285 285 284 284 283 283 283 283 282 281 281 281 282 282 282 281 281 281 282
299 298 298 297 296 295 293 293 293 293 294 292 292 292 291 288 288 287 287 288 289 289 288 286 285 285 285 285 284 283 282 281 281 281 281 281 281 281 281 281 281 281 282
298 297 297 296 295 294 293 292 292 293 293 293 293 293 292 292 289 287 287 285 285 286 288 286 285 284 284 284 284 284 283 282 281 281 280 280 280 281 281 281 281 281 281
298 297 296 296 294 293 292 291 291 291 291 292 292 292 291 290 288 287 286 286 286 288 287 286 285 285 284 285 285 285 284 283 282 281 280 280 280 280 280 281 281 281 280
298 297 296 295 294 293 292 292 291 291 291 291 292 291 290 288 287 286 286 287 287 287 286 286 285 285 285 285 285 285 285 284 282 282 281 281 281 280 280 279 279 279 279
298 297 296 296 295 294 293 292 292 291 291 291 292 292 291 290 289 289 287 287 286 286 286 286 286 286 286 286 285 285 284 284 283 282 282 281 281 280 279 279 279 279 279
297 298 297 295 294 293 292 292 291 291 291 291 291 291 290 289 290 290 290 288 286 286 285 285 285 285 286 285 285 284 284 283 283 282 281 281 281 280 280 280 279 279 279
295 296 296 295 293 293 293 292 291 291 291 291 291 293 293 289 289 289 289 289 289 287 286 286 286 285 285 285 285 284 283 283 283 282 281 281 280 280 280 280 279 279 279
292 294 296 295 294 293 292 292 292 292 292 291 292 292 291 290 290 291 291 290 290 289 288 287 287 286 289 290 287 287 287 283 283 281 282 281 280 281 280 280 279 279 279
290 291 294 295 295 294 293 292 292 291 291 291 291 291 291 290 290 289 289 289 288 287 287 287 287 287 287 287 286 285 284 282 282 281 281 282 281 280 281 280 280 279 279
290 290 291 293 294 293 292 292 292 291 291 290 290 290 289 290 289 290 290 289 289 289 288 287 286 285 285 285 284 284 283 284 281 282 283 280 280 281 280 280 279 279 279
289 289 290 291 292 292 292 291 291 291 290 290 290 289 289 289 289 289 288 288 288 287 287 287 286 285 284 283 283 284 282 283 282 281 281 282 281 280 279 279 279 279 278
288 289 289 289 290 290 291 291 290 290 290 290 290 289 289 289 288 288 287 287 286 286 286 285 285 285 284 284 283 283 283 283 283 283 281 280 279 279 279 279 279 278 278

GFSGL_925_thetae_072.txt.gz
Theta_e
314 314 315 316 316 316 315 314 314 314 313 313 310 309 308 308 307 307 307 308 309 309 310 310 310 311 311 312 311 312 312 313 312 304 303 302 300 300 300 299 300 298 297
314 314 314 314 314 314 313 313 313 312 311 310 308 307 306 306 305 305 305 307 307 307 307 307 308 308 307 308 307 307 307 307 309 304 300 299 300 299 299 299 297 296 296
313 313 313 313 312 312 312 311 310 309 308 307 306 305 305 304 304 303 303 304 305 306 306 306 305 305 305 305 305 305 305 305 304 304 300 299 298 297 297 296 295 294 293
311 311 311 311 310 310 309 309 308 307 306 305 304 303 303 302 302 301 301 302 302 302 303 303 303 303 303 302 302 302 302 301 300 301 299 297 297 295 295 293 294 293 292
310 310 310 309 309 308 307 307 306 305 304 303 302 301 301 300 300 299 299 299 300 300 300 300 299 298 298 298 298 298 298 298 298 298 297 296 295 294 293 293 291 290 290
309 309 309 308 307 306 306 305 304 303 302 301 301 300 300 299 300 299 297 298 298 298 298 297 297 296 296 296 296 296 296 296 297 297 296 295 294 293 292 289 288 287 287
308 308 307 306 305 305 304 303 302 301 300 300 299 299 298 298 297 297 297 297 297 297 296 296 295 294 292 291 291 291 291 293 294 295 294 293 292 292 290 288 287 287 286
307 307 306 306 304 303 302 302 301 300 299 298 298 298 297 297 297 296 296 295 296 295 295 294 293 292 289 287 287 287 287 287 288 289 289 289 289 289 288 287 286 285 285
307 307 306 305 304 303 302 301 299 298 297 297 297 297 296 296 295 294 294 294 294 294 293 292 288 286 287 286 286 286 286 286 285 285 286 287 287 286 286 286 286 286 284
307 307 306 305 304 303 302 300 299 297 296 296 296 296 296 295 294 293 292 292 292 292 290 287 288 288 289 288 286 285 285 285 285 285 284 283 282 282 282 282 283 284 284
305 306 306 305 304 303 301 299 298 296 294 294 295 295 294 294 293 291 289 290 289 286 286 287 288 289 289 288 286 285 284 285 285 284 284 282 282 282 282 282 282 282 283
305 305 305 304 303 301 300 298 297 295 294 294 294 293 293 293 292 292 289 286 285 285 285 286 286 287 288 287 287 285 285 285 284 284 282 281 281 282 282 282 282 282 282
304 304 303 302 301 300 299 297 296 294 293 293 292 292 292 292 292 290 290 289 287 286 285 285 285 286 287 286 286 286 287 285 284 282 281 281 281 281 282 282 282 282 282
302 302 301 300 299 298 297 296 295 293 292 292 291 291 291 291 290 288 290 290 289 288 286 285 285 286 286 285 284 284 285 285 284 283 281 281 281 282 282 282 281 281 281
301 300 299 299 298 297 297 296 295 294 294 293 292 292 291 291 292 289 288 289 289 288 288 286 285 285 285 285 284 284 283 283 282 282 281 281 281 281 282 281 281 281 281
299 299 298 297 296 296 295 294 294 294 294 293 293 293 293 294 293 291 288 287 288 290 290 287 286 285 285 285 285 284 283 282 282 281 281 281 280 281 281 281 281 281 281
300 298 298 297 296 295 294 293 292 293 292 292 292 292 292 293 293 291 288 287 287 288 288 288 287 286 285 284 284 284 285 284 283 282 281 281 280 280 280 281 281 281 280
299 299 298 297 296 295 294 293 293 291 291 291 292 292 292 291 291 290 288 288 287 288 288 287 287 287 285 285 285 285 285 285 284 283 282 281 281 280 280 280 280 280 279
298 298 297 297 296 295 294 293 292 291 291 291 292 292 292 291 290 288 288 288 287 287 287 287 287 286 286 285 285 285 285 285 285 284 283 282 281 281 280 280 279 279 279
295 296 297 296 295 294 293 292 291 291 291 291 291 292 292 291 291 290 289 288 287 286 286 286 286 286 286 286 286 286 285 285 284 284 283 282 281 281 281 280 280 280 280
291 294 295 295 295 294 293 292 292 291 291 291 291 293 293 290 290 290 290 289 289 288 287 287 287 286 285 286 285 285 285 285 284 283 283 282 281 281 281 280 280 280 280
289 290 293 295 294 294 293 293 292 291 291 291 292 293 293 291 290 290 289 289 289 289 289 289 288 288 287 287 286 286 286 284 285 285 283 283 281 281 280 281 281 280 280
288 289 289 292 294 294 293 293 292 292 291 291 292 292 292 291 291 290 290 290 290 290 290 289 288 288 287 287 287 287 287 288 287 286 283 282 281 281 281 281 280 280 280
288 289 288 290 291 293 293 292 292 292 292 291 291 291 291 291 291 290 290 290 290 289 289 288 288 287 287 286 286 286 286 285 284 283 282 281 282 282 281 280 280 280 280
288 288 288 288 290 291 292 292 292 292 291 291 291 290 290 290 290 289 289 289 289 288 288 288 287 287 286 285 285 285 284 284 284 283 282 282 282 281 280 280 280 279 279
287 287 288 288 289 289 290 291 291 291 291 290 290 290 290 289 289 289 288 288 287 287 286 286 286 286 285 285 284 284 283 283 283 283 282 282 281 281 280 279 279 279 279

GFSGL_925_thetae_075.txt.gz
Theta_e
314 314 314 315 316 318 322 323 319 316 314 314 314 314 313 311 309 308 307 307 307 308 309 309 309 310 310 311 310 311 311 311 313 304 304 303 302 302 301 301 300 299 300
314 314 314 314 315 315 315 315 315 314 313 313 312 311 309 308 307 307 306 305 306 307 307 307 307 307 308 308 307 308 307 307 308 304 301 299 300 299 299 298 297 298 297
313 313 313 313 313 314 313 313 312 312 311 310 309 308 307 306 305 304 304 303 304 304 305 306 306 305 305 305 304 304 304 303 304 304 299 299 298 297 296 296 297 296 294
311 312 312 312 312 312 312 311 311 310 309 308 306 305 305 304 303 302 301 301 301 302 302 303 303 303 303 302 302 302 302 301 302 301 299 298 297 295 295 295 294 294 292
309 310 311 310 310 309 309 309 308 307 306 305 304 303 302 302 301 300 299 299 299 300 300 300 300 300 300 300 299 300 300 299 299 299 298 296 295 294 294 294 293 292 291
308 309 309 309 308 308 307 306 306 305 304 303 302 301 301 300 300 299 299 298 297 298 298 298 298 297 297 297 297 297 297 297 297 297 297 296 295 294 293 292 290 288 287
307 308 308 308 307 307 306 305 304 303 303 302 301 300 299 299 299 298 298 298 297 297 297 297 296 295 295 294 293 294 294 294 295 295 296 295 294 293 292 289 288 287 286
306 307 307 306 306 305 304 303 303 302 301 300 299 299 298 298 297 297 297 297 296 296 296 295 294 294 292 290 288 287 287 287 289 291 293 292 291 291 289 288 287 286 285
305 306 307 306 305 304 303 303 302 301 299 299 298 298 297 297 296 297 296 295 295 295 294 294 293 292 288 287 286 286 287 286 286 287 287 287 287 287 287 286 286 286 284
304 305 305 306 305 304 303 302 301 300 299 298 297 297 296 296 296 295 294 294 293 293 293 292 291 287 287 289 286 285 285 286 285 284 284 284 283 283 284 283 283 284 284
304 304 304 305 305 305 303 302 301 299 298 296 294 294 295 295 295 294 293 292 292 292 292 291 287 289 289 289 287 285 285 284 285 285 284 283 282 282 282 282 282 282 283
304 303 303 304 304 304 302 301 299 298 296 295 294 294 295 295 294 293 292 290 288 288 287 286 286 288 290 289 288 286 285 284 285 285 283 282 281 282 282 282 282 282 282
302 303 302 302 302 302 301 300 297 296 296 294 294 294 294 294 294 293 292 291 288 286 285 285 285 285 288 288 288 287 287 286 285 283 282 282 281 281 282 282 282 282 282
301 301 301 301 300 300 299 299 297 295 295 293 293 292 293 293 293 293 292 291 290 289 287 285 285 285 287 287 286 286 286 287 286 284 283 281 281 281 282 282 282 282 281
300 300 300 299 299 299 298 298 297 297 297 294 293 293 292 292 294 294 293 289 290 290 288 286 285 286 286 286 285 284 283 284 284 284 283 281 281 282 282 282 282 281 281
298 299 299 298 297 297 297 296 296 296 295 295 294 294 294 294 294 294 293 290 288 289 289 287 286 285 285 285 285 285 284 284 283 282 282 281 281 281 281 281 281 281 281
297 298 299 298 297 296 296 295 294 295 294 294 294 293 292 293 293 293 292 290 289 290 290 288 288 287 286 286 285 285 284 284 284 283 282 281 281 280 280 281 281 280 280
294 297 297 298 297 296 296 295 294 293 293 293 293 293 293 293 292 292 291 290 289 289 289 289 288 288 287 287 286 284 284 285 285 284 283 282 281 281 280 280 280 280 280
291 293 296 296 296 296 295 295 294 293 292 292 293 293 293 293 292 292 291 290 289 288 288 287 287 287 287 287 286 285 285 285 285 285 285 283 282 281 280 280 280 280 279
290 291 293 295 295 295 294 293 292 292 292 291 291 292 293 292 292 291 290 289 288 287 287 287 287 287 287 287 286 286 285 285 285 285 285 284 283 282 281 281 280 280 280
288 289 290 293 295 294 294 293 292 292 291 291 292 293 293 292 291 291 290 288 288 287 286 287 286 286 286 286 285 285 285 285 286 285 286 285 283 282 282 281 280 280 280
287 288 288 290 292 294 293 293 293 292 291 291 292 292 293 291 291 291 290 290 290 290 289 288 288 288 288 289 289 287 285 286 285 285 285 284 283 282 282 281 280 280 280
286 287 288 288 289 290 293 292 292 292 292 292 292 292 292 292 291 291 291 291 291 291 291 289 289 289 290 289 289 288 287 287 285 287 285 285 284 282 281 281 281 280 280
285 286 287 288 288 289 291 292 292 292 292 292 291 291 291 292 291 291 291 292 291 291 290 290 290 289 289 288 288 287 287 287 286 286 286 286 283 282 281 281 281 281 280
286 287 287 287 287 288 289 291 292 292 292 291 291 291 291 291 291 291 291 290 290 290 289 289 288 288 287 287 287 286 286 285 285 285 284 284 283 282 281 281 281 280 280
286 285 285 286 287 287 288 289 290 291 291 291 291 291 291 290 290 290 289 289 288 288 288 288 287 287 287 286 285 285 284 284 284 284 283 283 282 281 281 281 280 280 280

GFSGL_925_thetae_078.txt.gz
Theta_e
314 314 314 314 315 315 318 324 324 324 323 323 320 316 314 313 312 309 308 308 307 307 307 308 308 309 309 310 310 310 310 311 311 307 306 303 304 303 302 303 302 301 301
313 313 313 313 313 314 315 318 318 318 316 315 315 314 311 310 308 308 307 306 306 305 306 306 306 307 307 308 308 308 307 307 307 305 303 302 301 300 300 300 299 298 298
311 312 312 312 312 313 313 314 313 313 313 312 312 310 309 308 306 305 305 304 304 304 304 304 305 306 305 305 305 304 304 304 304 305 301 300 299 299 298 297 297 297 296
309 310 311 311 312 312 312 312 311 311 311 310 308 307 306 305 304 303 303 302 301 301 301 302 302 303 303 302 302 302 302 302 302 301 301 299 298 297 296 296 295 295 294
307 309 310 310 310 310 311 310 310 309 308 307 306 305 304 303 302 301 301 300 299 299 299 299 300 300 300 300 300 300 300 300 299 299 299 297 296 294 294 294 294 293 292
304 306 309 309 309 309 308 308 307 306 305 305 304 303 303 302 301 300 300 299 298 298 298 298 298 298 298 297 297 297 297 297 297 297 297 297 296 295 294 294 292 290 289
304 305 306 307 308 308 307 306 306 305 304 303 302 302 301 300 300 299 298 298 298 297 297 297 297 296 296 295 294 294 294 294 295 295 296 295 295 295 294 291 290 288 287
303 304 305 306 306 306 305 304 304 303 303 302 301 300 300 299 299 298 298 297 297 296 296 296 295 295 294 292 290 289 288 288 290 292 294 294 293 292 292 290 289 287 286
302 303 304 304 305 305 304 303 303 302 301 301 300 299 299 298 298 297 297 296 295 295 295 295 294 293 292 290 287 286 286 286 286 287 288 288 288 288 288 287 286 285 285
300 301 303 303 304 304 304 303 302 301 301 300 299 298 298 298 297 296 296 295 294 294 293 293 293 292 288 289 287 286 286 286 285 285 285 285 286 286 285 285 285 285 284
300 301 303 303 303 304 304 302 302 300 299 298 297 295 295 296 296 296 295 295 294 293 292 292 292 291 287 290 289 286 285 285 285 285 284 284 283 282 282 282 282 282 283
299 300 301 302 302 302 302 302 300 299 298 297 296 295 294 294 295 295 295 294 292 291 292 292 291 287 290 291 289 287 285 285 284 285 284 282 282 282 282 282 282 282 282
298 299 300 301 301 301 300 300 298 297 296 294 295 294 294 293 294 294 294 293 292 287 286 286 285 286 289 290 289 288 287 286 284 284 283 282 282 281 281 282 282 282 282
297 299 299 299 299 299 298 298 297 295 294 294 294 294 294 294 293 294 294 294 293 290 287 286 285 285 286 288 288 288 288 287 286 285 284 282 281 281 281 281 282 282 282
296 297 298 298 298 298 298 298 297 297 297 297 296 295 293 293 294 295 295 294 293 291 290 287 285 286 286 287 287 286 285 285 285 285 285 283 281 281 281 282 282 282 281
293 295 297 297 298 297 297 296 296 297 297 297 297 296 295 294 294 294 294 294 293 290 289 287 286 285 286 286 286 285 285 284 283 283 283 283 281 281 281 282 282 282 281
290 291 293 296 297 296 296 295 294 296 295 296 296 294 294 295 294 293 294 293 291 290 289 288 287 287 286 285 285 285 285 285 285 284 283 282 282 281 281 281 280 281 280
289 290 291 294 296 296 296 296 295 294 294 295 295 294 294 294 293 293 293 291 291 291 290 289 288 287 288 288 287 286 286 285 284 284 284 283 282 281 281 280 280 280 280
288 289 290 291 294 295 295 295 294 294 294 294 295 294 294 294 294 293 292 292 290 289 289 289 289 288 288 288 287 287 286 285 284 284 285 284 284 282 282 281 280 280 280
288 289 289 290 291 294 295 294 293 292 293 293 293 293 294 293 293 294 293 292 290 289 289 288 288 288 288 287 287 287 286 285 285 284 285 285 285 284 283 281 281 280 280
288 287 288 289 289 291 293 293 292 292 292 292 292 293 294 293 292 292 292 291 291 290 289 288 288 287 287 287 287 286 286 286 286 285 285 285 284 285 284 282 281 281 280
287 286 286 287 288 289 290 292 293 292 292 292 292 293 292 292 292 292 292 292 291 291 290 289 288 287 287 286 286 287 287 286 286 285 285 285 285 286 284 282 281 281 280
285 285 285 286 287 288 289 289 292 292 292 292 292 292 292 292 292 292 292 292 292 291 291 290 290 289 289 289 288 288 289 289 289 287 285 285 285 285 283 282 282 281 280
285 285 285 286 287 288 288 289 290 291 292 292 292 292 292 292 292 292 292 292 292 292 292 292 291 291 291 290 289 289 289 288 288 287 286 285 285 284 283 282 281 281 281
285 285 285 286 285 286 287 287 288 290 291 291 291 291 292 291 291 291 291 291 292 291 291 291 291 290 290 289 289 288 288 287 286 286 285 285 285 284 283 282 281 280 281
286 285 285 284 284 285 286 287 287 288 290 291 291 291 291 291 291 291 291 291 290 290 290 290 289 289 288 288 287 287 286 285 285 284 284 284 283 283 282 281 281 281 280

GFSGL_925_thetae_081.txt.gz
Theta_e
312 313 313 313 314 314 315 319 323 325 325 325 324 322 320 316 313 312 310 309 309 308 308 308 308 308 308 309 309 309 309 309 309 308 308 307 305 304 304 303 302 302 302
310 311 313 313 313 313 314 316 320 321 321 321 320 319 316 313 311 309 308 307 306 306 306 306 306 306 307 307 307 307 308 308 307 308 305 304 302 302 301 301 300 300 299
308 309 311 311 312 313 313 314 315 315 315 315 315 313 311 309 308 307 306 305 305 304 304 304 304 305 305 305 305 305 305 304 304 304 303 302 301 300 299 298 298 297 297
305 307 308 310 310 311 311 312 312 311 312 311 310 309 308 307 306 305 304 303 302 302 302 302 302 303 303 303 303 302 302 302 302 301 301 300 299 298 297 297 296 296 295
304 304 305 308 309 310 310 310 310 310 309 308 307 306 305 304 304 303 302 301 300 300 300 299 300 300 300 300 301 300 300 300 300 300 299 298 297 296 296 296 295 295 294
303 303 304 305 308 308 308 308 308 307 307 306 306 305 304 303 302 302 301 300 299 298 298 298 298 299 299 298 298 298 298 297 297 297 298 297 297 296 295 295 294 292 294
301 303 303 304 305 307 307 307 307 306 305 304 304 303 302 301 301 300 300 299 299 298 297 297 297 297 297 296 296 295 295 295 295 296 296 296 296 296 295 293 292 291 289
300 301 302 303 304 304 305 305 305 304 304 303 303 302 301 301 300 299 298 297 297 297 297 297 297 296 295 295 293 291 292 291 292 293 294 295 295 294 294 293 292 290 287
299 299 300 301 303 303 304 305 304 303 303 303 302 301 300 300 299 298 297 297 297 296 296 296 296 295 294 293 291 288 287 287 287 287 289 291 291 291 291 290 289 287 286
297 298 299 300 302 302 303 303 303 303 302 301 300 300 299 299 298 297 297 296 295 295 294 294 294 294 293 291 289 286 286 286 286 287 287 288 288 287 287 287 286 286 285
296 297 299 300 301 301 301 301 302 302 301 300 299 299 298 297 297 296 296 295 294 294 293 293 293 293 291 289 289 287 285 285 285 285 284 283 283 284 284 283 283 284 284
294 296 298 299 300 300 300 300 300 300 299 298 296 296 296 295 295 296 296 295 295 294 293 293 293 292 291 290 290 288 285 285 285 285 284 283 282 282 282 282 282 282 282
293 294 296 298 299 299 299 298 298 297 296 295 294 295 296 295 294 294 295 296 295 294 291 292 292 291 288 291 291 289 287 286 284 284 283 283 282 282 282 282 282 282 282
292 293 294 296 298 298 298 297 296 296 295 294 294 294 295 296 295 294 294 295 295 293 288 286 286 286 287 290 290 289 288 287 286 284 284 283 282 281 281 282 282 282 282
290 290 292 294 296 297 297 297 296 297 297 295 295 296 295 294 295 295 294 294 295 294 291 286 286 286 286 287 288 288 288 287 287 286 285 284 282 281 281 281 282 282 282
288 289 289 291 293 295 296 297 297 297 296 296 297 297 297 297 296 295 294 294 294 294 290 288 286 285 286 286 287 287 286 285 285 285 285 284 283 281 281 281 282 282 282
288 287 288 289 290 293 295 295 295 297 295 295 296 296 297 296 295 295 295 294 293 292 290 288 287 286 285 285 286 286 286 285 284 283 283 283 283 282 281 281 281 281 281
287 287 288 288 289 291 293 294 295 294 294 295 295 295 295 295 295 294 294 293 293 293 291 289 287 287 287 286 285 285 285 285 285 284 284 284 283 282 281 281 281 280 281
286 286 287 288 289 290 291 293 294 294 293 294 294 295 295 295 294 294 294 293 292 291 291 290 289 289 288 288 287 288 287 286 286 285 284 284 284 282 281 281 281 281 280
285 286 287 287 287 288 290 291 293 293 292 291 292 293 295 295 294 295 294 293 292 291 290 290 290 289 289 288 288 287 287 286 286 285 284 284 284 284 283 282 282 281 281
285 286 287 287 286 286 288 289 291 292 291 291 292 292 292 293 293 293 293 293 292 291 291 290 290 290 289 288 288 288 286 286 286 285 285 284 284 284 284 283 284 282 281
285 286 287 286 285 286 287 288 289 290 291 291 291 292 292 292 293 293 293 293 293 292 292 291 291 291 291 290 288 287 287 286 286 286 285 285 285 285 284 283 284 282 281
285 286 285 285 284 285 286 287 288 288 290 291 292 291 292 292 292 292 292 293 292 292 292 292 291 291 290 289 287 287 287 286 287 290 288 286 285 285 284 284 284 282 281
285 284 284 284 285 286 287 287 287 288 289 290 291 291 291 292 292 292 292 292 292 292 292 292 291 291 291 290 289 289 288 289 289 289 288 287 286 284 284 284 283 283 282
285 285 284 284 285 285 285 285 286 286 287 289 290 291 291 291 292 292 292 292 292 291 292 292 291 291 291 291 291 290 290 289 288 287 287 286 285 285 284 283 283 282 281
285 285 284 284 283 284 284 284 285 286 287 288 290 291 291 291 291 291 291 291 291 291 291 291 291 291 290 290 289 289 288 287 287 286 285 285 284 284 283 283 283 282 281

GFSGL_925_thetae_084.txt.gz
Theta_e
310 311 312 312 313 313 316 319 322 325 326 325 324 325 325 323 322 321 318 314 311 310 309 310 311 310 311 311 312 311 311 312 312 310 309 309 308 306 305 304 303 303 302
308 310 311 311 312 313 313 315 318 319 320 322 324 323 321 318 316 314 312 311 309 308 308 308 309 308 309 309 310 309 309 309 309 309 307 306 305 303 302 301 301 301 300
305 307 309 311 311 312 312 313 314 317 318 318 317 316 315 315 313 311 310 309 307 307 306 306 306 306 307 307 307 308 307 306 306 306 306 303 302 301 300 299 299 298 298
305 306 306 308 309 310 310 311 311 312 313 314 312 312 312 310 309 308 307 306 305 304 304 304 304 304 306 306 306 305 305 304 304 304 304 301 300 299 299 298 297 297 297
302 304 305 305 306 308 309 309 310 310 310 310 310 309 309 308 307 306 305 303 303 302 302 301 302 302 302 302 302 303 302 302 301 301 300 299 298 297 297 297 296 296 295
300 302 303 304 305 306 307 308 309 309 308 307 307 307 305 305 305 304 304 302 301 301 301 300 299 300 300 300 300 300 299 300 299 298 299 299 298 298 297 296 295 293 294
300 301 302 302 303 304 305 306 306 306 306 305 304 303 303 302 303 302 302 301 300 300 299 298 298 298 298 297 297 297 297 297 297 297 297 297 297 297 297 294 294 293 294
300 301 301 301 301 303 304 304 304 304 304 304 303 302 302 301 302 301 300 300 299 299 298 297 298 298 297 296 296 295 293 293 292 293 295 295 295 295 295 294 293 293 290
298 299 300 300 300 301 303 303 304 303 302 302 302 302 301 300 300 299 299 298 296 297 297 296 296 296 296 295 294 291 290 289 288 288 290 292 293 293 293 291 291 291 290
296 297 298 299 299 300 301 302 302 301 302 301 301 301 301 300 300 299 298 297 296 295 295 295 296 296 295 294 293 291 290 289 289 289 288 288 289 289 289 289 290 291 289
294 295 296 298 299 299 300 300 299 300 300 301 300 300 299 299 298 298 298 296 295 294 294 293 293 294 294 293 291 289 288 288 287 287 286 285 287 288 286 285 286 287 288
293 294 295 297 298 298 298 299 299 298 298 298 297 296 297 297 297 297 297 297 296 294 293 294 293 294 293 291 291 289 287 286 287 286 286 285 285 284 284 283 282 282 283
292 292 293 293 295 298 297 298 297 297 298 297 296 296 296 296 296 297 296 297 296 295 294 293 293 293 292 291 291 289 287 287 286 286 286 285 285 284 283 282 283 282 282
291 291 291 292 293 295 296 295 296 295 296 296 295 295 296 295 296 297 295 296 297 295 294 292 292 292 291 291 291 290 288 287 286 286 286 285 283 282 283 283 284 284 284
290 290 290 290 290 291 293 295 295 296 296 296 295 296 295 294 297 298 297 295 295 295 295 289 288 289 288 290 291 291 290 288 287 286 285 284 283 283 283 283 284 284 285
289 290 290 289 290 289 290 292 294 295 295 295 296 296 297 298 298 298 297 296 295 294 291 287 287 287 287 288 289 289 289 288 287 287 286 285 284 283 284 283 284 284 285
289 289 289 289 289 290 289 290 292 294 295 296 295 295 296 297 296 297 296 295 294 294 291 289 287 286 287 287 287 288 287 286 286 286 286 285 284 284 284 284 284 284 284
288 288 288 288 288 289 289 289 291 292 293 294 295 295 295 295 296 296 295 294 294 294 293 290 289 288 287 287 287 287 287 286 285 284 284 284 284 284 284 284 284 284 284
287 286 286 287 288 288 288 288 289 290 292 293 293 293 294 295 295 295 294 294 293 293 293 290 289 289 289 288 287 286 286 286 285 285 284 284 284 283 284 284 284 283 283
287 286 286 287 287 287 286 287 287 289 291 292 292 292 292 294 295 294 294 294 293 293 292 291 290 290 289 289 287 287 286 286 286 285 285 285 284 284 283 283 283 283 283
286 286 286 287 287 287 286 286 287 288 289 290 291 292 292 292 292 293 294 293 293 292 292 291 291 290 289 289 289 288 287 287 287 286 286 285 284 283 284 283 283 283 283
285 284 285 286 287 286 285 285 286 287 288 289 290 291 291 291 290 292 292 293 292 292 292 292 291 291 290 290 290 289 288 287 287 286 286 285 284 284 284 283 283 283 283
285 285 286 286 286 285 285 285 286 287 288 288 288 290 291 291 290 291 292 292 292 292 292 292 292 291 291 291 291 291 288 288 287 287 286 286 285 285 284 284 283 283 283
285 285 285 285 285 285 286 286 287 287 287 287 288 289 290 291 291 291 292 292 292 292 292 292 292 292 291 291 291 291 289 287 287 287 286 287 288 286 285 285 284 283 283
285 285 285 285 286 286 286 286 286 286 285 287 287 288 290 290 291 291 292 291 291 292 292 292 292 292 292 292 291 290 289 288 288 288 287 288 287 286 285 284 284 283 283
286 285 284 284 284 284 284 284 285 285 286 286 287 288 289 290 291 291 291 291 291 291 291 291 291 292 292 291 291 291 291 290 289 289 288 287 286 285 284 283 283 282 282

GFSGL_925_thetae_087.txt.gz
Theta_e
310 312 313 313 314 314 317 321 324 326 328 327 327 327 328 328 327 325 323 322 321 320 318 314 312 312 312 313 313 313 313 313 313 313 311 310 309 307 306 305 305 304 304
307 309 311 312 313 314 314 315 317 319 321 323 324 324 324 324 324 322 318 318 318 316 312 311 311 312 312 312 312 311 310 310 310 311 309 308 307 306 305 303 302 302 302
307 308 308 310 312 313 313 313 313 315 317 319 320 319 319 319 316 315 314 314 312 312 311 310 310 309 309 310 310 310 309 308 308 308 307 305 303 303 301 301 301 301 301
303 306 307 307 307 310 311 311 311 311 313 315 315 315 314 313 313 312 311 310 309 309 308 308 307 307 307 308 308 308 307 306 306 305 306 303 302 300 300 300 299 299 298
302 303 304 305 306 307 309 310 310 310 310 310 311 311 311 310 310 309 308 307 307 306 305 305 305 305 305 307 307 306 305 304 304 303 303 301 300 299 299 299 298 297 297
302 303 303 304 304 305 306 308 309 308 308 308 308 308 307 307 307 307 306 305 305 304 303 303 302 302 302 303 303 303 302 302 302 301 301 300 299 299 299 298 297 294 294
301 302 303 303 303 304 305 306 308 308 308 307 306 306 306 305 306 306 305 304 303 302 302 301 300 300 300 299 299 299 299 299 299 300 299 299 298 298 298 296 295 295 295
300 300 301 301 302 302 303 305 306 307 307 307 306 305 305 304 304 304 303 302 302 301 301 300 299 298 298 298 297 297 297 296 296 295 296 297 297 297 296 296 296 294 292
299 298 299 299 300 301 302 302 304 305 306 305 305 305 304 303 303 302 301 300 301 300 299 298 298 297 297 297 297 295 294 292 291 290 292 294 294 295 294 294 293 293 292
295 295 297 297 299 299 300 300 301 302 304 304 304 303 303 303 302 301 300 299 298 297 296 297 296 297 296 297 295 294 291 290 290 289 288 289 291 292 293 292 292 291 292
294 294 294 296 297 298 298 299 300 301 301 301 301 302 301 301 301 300 300 299 297 297 296 296 296 296 295 295 295 292 292 290 290 289 288 288 289 289 288 288 289 290 290
292 292 293 293 294 295 297 298 299 300 299 300 300 299 300 300 300 300 299 299 297 296 295 294 295 294 294 294 294 292 289 289 288 287 287 286 286 287 286 284 284 285 285
291 291 292 292 292 293 294 296 296 297 298 299 300 299 298 298 298 299 298 299 297 296 296 295 295 294 294 293 293 292 289 287 288 287 287 286 285 285 285 283 282 283 282
291 291 291 291 292 291 292 293 294 295 296 296 297 297 298 297 297 297 297 298 298 296 296 295 294 293 293 293 292 292 289 287 287 287 287 286 286 285 283 283 283 283 284
290 290 291 291 291 291 291 291 291 292 295 295 296 296 296 295 296 298 297 296 297 297 295 295 292 292 292 293 292 291 290 288 287 287 287 286 284 283 283 284 285 284 285
290 290 290 290 290 290 291 291 290 290 291 293 294 295 296 296 296 296 297 298 297 296 293 291 291 291 291 291 291 291 290 290 288 287 286 285 283 283 284 284 284 285 285
289 290 290 290 289 289 290 289 289 289 290 290 293 294 295 295 296 296 296 296 297 295 292 291 289 288 288 289 290 290 290 290 289 288 287 286 284 283 285 284 284 284 285
289 289 287 287 287 288 288 288 288 288 289 289 290 293 293 295 295 294 295 295 295 296 292 291 289 288 288 288 288 289 289 289 289 288 287 286 286 285 284 285 284 284 285
288 288 288 287 286 286 287 288 288 287 287 288 289 290 292 293 293 294 294 295 294 294 294 291 291 290 288 287 287 288 288 288 287 286 286 286 285 285 285 284 284 285 285
288 288 287 286 286 287 288 288 287 286 286 287 288 289 290 291 292 292 294 294 293 293 294 293 291 290 289 289 288 288 288 288 287 286 285 285 285 284 285 284 284 284 284
288 287 286 286 285 286 287 288 287 286 286 286 287 288 289 291 290 291 292 293 293 293 293 293 291 291 290 290 290 289 288 287 287 286 286 285 285 285 284 284 284 284 284
286 285 285 285 285 286 286 287 285 285 285 286 288 287 288 290 291 290 291 292 293 293 292 292 292 292 291 290 290 289 288 287 287 286 286 286 286 285 284 284 284 284 283
286 285 285 285 286 286 286 286 286 285 286 287 288 287 287 288 290 290 290 290 292 292 292 292 292 292 291 291 291 290 289 288 288 287 287 286 286 285 285 284 284 284 284
285 285 285 285 286 286 286 286 286 286 287 287 286 286 287 287 289 289 290 290 291 291 292 292 292 292 292 291 291 290 290 290 288 288 287 286 286 285 285 285 284 284 284
285 285 286 286 286 286 286 286 286 286 286 286 285 285 286 287 289 289 290 290 290 291 291 291 291 292 292 291 291 291 291 291 290 288 287 286 286 286 287 286 285 284 284
285 286 286 285 284 284 284 284 284 285 285 285 285 286 287 287 288 288 290 290 290 290 291 291 291 292 291 291 291 291 291 291 289 288 288 288 287 286 286 286 285 285 284

GFSGL_925_thetae_090.txt.gz
Theta_e
309 311 312 313 313 314 316 320 322 325 328 328 328 328 327 328 327 327 326 326 325 324 323 323 322 320 316 313 312 312 313 314 313 313 311 310 308 307 306 305 306 305 305
307 308 310 311 312 313 313 314 314 316 319 322 325 325 326 328 326 327 326 325 324 323 322 321 319 314 312 312 312 312 313 313 313 311 310 309 307 305 305 304 304 304 303
304 306 307 307 308 311 312 312 312 313 314 317 320 322 323 324 325 325 325 324 323 321 320 319 315 312 312 312 312 312 311 310 309 309 308 307 306 305 303 302 302 301 301
302 303 304 305 306 306 308 310 311 311 312 313 316 317 318 319 319 320 320 318 317 315 314 313 311 311 311 310 310 310 310 308 308 307 306 305 305 302 301 300 300 300 300
302 302 303 303 304 304 306 307 309 310 310 311 312 314 314 314 315 314 313 313 312 311 310 310 309 309 308 308 308 308 307 307 306 306 304 303 302 300 299 300 299 299 298
301 302 302 303 303 303 303 304 306 308 309 309 309 309 311 312 311 310 309 309 308 308 307 306 306 305 305 306 307 307 306 305 304 303 302 302 301 301 300 299 298 296 295
300 301 300 301 301 301 302 303 304 305 307 308 308 307 307 308 308 308 308 307 306 306 305 304 303 303 303 303 303 304 303 303 302 301 300 300 300 300 300 298 297 296 296
299 299 298 298 299 299 300 301 302 303 305 306 307 307 306 306 306 305 305 304 304 304 303 303 302 301 300 300 299 300 300 299 299 299 299 298 298 298 298 298 297 295 293
296 295 295 296 297 298 298 299 299 300 301 303 304 306 306 305 305 304 303 302 303 302 302 301 301 300 299 298 297 297 297 295 295 295 295 295 296 296 296 296 294 293 291
294 293 294 294 295 296 297 297 298 298 299 300 302 303 304 304 304 303 302 301 302 301 300 300 299 298 298 297 297 297 295 294 293 290 289 291 293 294 293 293 294 293 292
292 292 292 292 293 294 294 295 297 297 298 300 300 301 301 302 303 303 302 300 301 298 298 298 298 297 297 297 296 296 296 293 291 290 288 289 290 291 292 292 292 292 292
291 291 291 291 292 292 292 293 294 296 296 298 299 300 300 300 301 301 301 300 300 300 299 298 297 297 297 296 296 296 294 292 290 290 289 288 289 289 288 288 289 289 291
291 290 291 291 291 291 291 291 292 293 293 295 296 297 299 299 299 299 300 300 299 298 299 298 296 296 295 295 296 295 291 290 289 288 288 286 286 288 287 285 284 284 284
290 290 290 290 290 291 291 291 291 291 291 292 293 294 295 296 297 298 298 299 300 298 297 297 296 295 295 294 295 295 292 290 288 288 287 286 286 285 285 284 282 282 282
290 290 290 290 290 290 290 290 290 291 290 290 290 292 294 295 295 296 297 298 299 299 296 296 295 294 294 294 293 293 292 290 287 287 287 286 286 285 285 283 283 283 284
289 289 290 290 290 290 289 289 289 289 289 289 289 290 291 294 295 296 296 296 297 298 295 294 292 292 292 293 292 291 291 290 288 287 287 287 286 285 283 284 284 284 284
289 289 289 289 289 287 287 287 287 288 288 288 288 288 290 291 293 295 296 295 295 296 296 293 293 292 292 292 291 291 290 290 289 288 286 286 286 284 284 284 284 285 284
288 288 289 289 287 286 286 286 286 287 287 287 286 287 288 289 292 293 295 295 295 295 296 292 292 292 291 291 290 291 291 290 290 288 287 286 285 284 284 284 284 284 285
288 288 288 288 287 287 286 286 287 287 286 286 286 286 287 288 290 292 292 295 292 294 295 292 292 291 289 289 289 290 290 290 289 289 288 287 286 285 284 284 284 284 284
287 287 288 288 287 286 286 286 286 287 287 286 285 286 286 287 288 289 290 291 292 292 293 293 292 291 290 289 289 289 288 289 289 289 288 287 287 286 285 284 284 284 285
286 287 288 287 286 285 285 285 285 286 286 285 285 285 286 287 287 289 289 290 291 292 292 292 292 291 290 290 289 288 288 288 288 287 287 286 286 286 285 285 284 284 284
286 287 286 286 285 285 285 285 286 286 286 285 285 285 286 287 287 287 288 289 290 291 292 292 292 292 292 291 290 289 288 288 287 287 286 286 286 285 285 284 284 284 284
285 286 286 285 285 285 285 285 285 285 285 285 285 285 287 286 286 286 287 288 289 290 291 291 292 292 292 292 292 291 289 289 288 288 286 286 285 285 285 285 284 284 284
286 286 285 285 285 285 285 285 285 285 286 286 286 286 286 285 285 286 287 287 289 289 290 291 291 292 292 292 291 291 291 290 289 289 288 286 286 286 285 285 284 284 284
284 285 285 285 285 285 285 284 284 284 284 284 284 284 284 284 285 286 286 287 288 289 289 290 290 291 291 291 291 291 291 291 290 289 288 287 287 286 286 285 284 285 284
283 283 284 285 283 283 283 283 283 283 283 284 284 284 285 285 285 286 286 287 288 289 289 290 290 290 290 291 291 291 291 290 290 289 288 287 287 286 285 285 285 285 285

GFSGL_925_thetae_093.txt.gz
Theta_e
308 310 311 312 313 314 314 315 318 320 323 324 325 327 326 326 326 326 325 325 324 325 325 324 324 323 323 323 322 320 318 316 312 311 311 310 310 308 307 306 305 306 305
304 306 306 307 309 311 312 312 312 313 313 317 320 323 325 326 327 327 327 326 325 325 324 323 323 323 323 321 319 317 315 315 314 311 310 309 308 307 305 304 304 305 304
302 303 303 304 305 306 307 309 310 311 311 312 314 318 321 322 324 325 327 326 325 324 324 324 323 322 320 318 315 312 312 313 313 312 309 308 306 305 304 302 303 303 302
302 302 303 303 303 303 304 305 307 309 310 310 311 313 316 318 320 321 322 323 323 323 323 322 321 320 319 315 312 312 312 311 310 310 308 307 306 304 302 302 301 300 300
301 301 302 302 302 302 302 303 304 305 307 309 309 310 312 314 315 316 317 319 318 318 317 316 316 316 315 312 312 312 311 310 308 307 306 304 303 301 301 302 300 299 299
300 300 300 300 300 300 300 301 302 303 305 306 308 308 308 309 311 312 312 313 313 313 312 311 311 311 311 310 309 309 310 309 307 306 305 303 302 302 302 301 299 297 296
298 298 298 297 297 298 299 299 300 300 301 303 304 306 307 307 307 308 308 308 309 309 309 309 308 308 307 307 307 307 307 307 306 306 304 303 302 302 301 299 299 298 297
296 295 294 294 294 296 297 298 298 298 299 299 301 303 304 306 306 306 306 306 306 306 307 307 306 305 305 304 304 304 304 304 304 303 302 301 301 300 300 300 300 297 295
294 293 292 293 293 293 293 294 296 297 297 298 299 300 302 303 305 305 304 304 304 304 304 304 304 303 303 302 301 301 300 300 300 300 300 299 298 298 298 298 296 294 292
292 292 291 291 291 293 292 293 293 295 296 296 298 299 300 301 302 304 304 303 302 302 303 302 302 301 301 300 299 299 297 297 296 295 295 294 295 296 296 296 296 295 294
291 291 291 291 291 291 292 291 292 292 294 295 295 296 298 299 301 301 302 302 302 300 300 300 300 301 299 299 298 297 298 297 295 294 291 291 292 293 294 294 294 294 293
291 291 291 290 290 290 291 291 291 291 291 293 292 294 295 297 299 300 300 301 302 300 299 299 300 300 298 298 297 297 297 296 294 291 289 288 289 291 291 292 292 292 292
290 290 290 290 289 290 290 290 290 290 290 290 291 291 293 294 295 296 298 299 301 300 300 299 300 299 298 297 297 296 295 293 291 290 289 289 289 289 289 289 289 289 290
288 289 289 289 289 289 289 290 290 290 290 290 290 289 289 290 292 294 295 296 298 300 299 299 299 298 297 297 296 296 294 293 292 290 290 289 287 288 288 287 285 284 284
287 287 288 289 289 289 289 289 289 289 290 290 289 289 288 289 290 292 295 296 295 297 299 296 296 295 295 295 295 296 294 292 290 289 289 287 286 286 286 285 284 283 282
286 286 287 288 289 289 289 288 287 287 288 289 289 288 288 288 289 290 292 293 296 295 297 295 295 294 293 293 293 293 293 291 289 289 288 287 286 285 285 284 283 282 282
286 286 286 288 288 288 288 286 285 285 286 287 288 287 287 287 288 288 290 293 294 296 294 294 294 292 292 292 292 292 291 291 290 289 287 287 286 285 285 284 283 283 283
285 285 287 288 288 288 287 286 286 285 285 286 286 286 286 286 287 288 290 292 293 295 295 294 293 292 292 291 292 291 291 290 290 289 287 286 286 285 284 283 283 284 284
284 285 285 287 287 287 287 286 286 285 285 286 286 286 285 285 286 287 288 289 290 292 294 294 293 292 291 291 292 291 291 290 289 289 287 286 286 285 284 283 283 284 284
284 285 286 286 287 288 287 286 285 285 284 285 286 286 285 285 285 286 287 288 289 290 291 292 292 292 292 292 291 291 291 290 289 289 288 287 286 285 284 283 283 284 284
284 284 285 286 287 287 286 285 285 284 284 285 285 285 285 285 286 287 287 287 287 289 290 291 292 292 291 291 291 290 290 289 289 289 288 287 287 285 284 284 284 284 284
284 285 285 285 286 286 286 285 285 285 285 285 285 285 285 285 286 286 286 286 286 287 288 289 291 291 291 291 290 290 289 289 289 289 288 288 287 286 285 285 284 284 284
284 284 284 285 285 285 285 285 285 285 284 284 284 284 284 285 286 285 285 285 286 286 287 288 289 291 291 291 291 291 290 289 289 289 287 287 286 286 285 285 284 284 284
283 283 283 283 284 285 285 285 285 285 285 284 284 285 285 284 284 284 284 284 285 286 287 287 288 290 290 291 291 291 291 290 290 289 288 287 286 285 285 284 284 284 284
283 283 283 283 283 284 284 283 283 283 282 283 283 283 284 284 284 284 284 284 285 285 287 287 288 289 290 290 290 290 291 291 291 290 288 287 287 286 285 285 284 284 284
282 283 282 283 283 282 282 282 282 282 282 282 282 282 283 283 283 284 285 285 285 286 288 288 289 289 289 289 290 291 291 291 290 290 289 287 286 285 285 285 285 284 284

GFSGL_925_thetae_096.txt.gz
Theta_e
306 307 308 310 311 312 312 313 313 315 317 320 321 323 325 325 325 325 324 324 325 324 324 324 324 323 323 323 322 321 321 320 313 310 311 311 311 310 310 308 308 307 306
303 303 303 304 305 306 306 308 310 311 311 312 315 318 322 325 325 325 325 325 325 324 323 324 324 323 323 323 323 322 322 319 315 309 309 308 309 308 308 307 307 304 305
302 302 303 303 303 303 303 304 305 307 309 310 310 312 316 319 321 324 325 326 325 325 325 324 324 323 322 322 322 321 321 319 316 313 308 307 306 306 305 304 304 303 303
300 300 300 300 300 301 301 302 302 303 305 306 308 309 310 313 316 318 319 321 323 324 324 324 324 322 322 321 319 319 319 315 313 312 309 306 306 304 304 303 302 302 302
299 299 298 298 298 298 299 299 300 301 302 304 305 307 308 308 310 313 315 315 317 319 320 321 321 322 321 319 320 316 315 312 311 310 307 305 303 301 301 303 303 301 300
296 297 295 294 294 295 296 297 298 298 299 300 301 303 305 307 307 307 309 311 312 313 315 317 317 317 317 316 315 317 314 312 310 308 305 304 302 304 304 303 301 298 296
294 294 293 292 292 292 293 293 294 296 296 297 298 299 301 303 304 306 306 306 308 309 310 312 312 312 313 312 312 312 311 311 311 310 307 307 304 305 304 301 300 299 299
292 293 292 291 291 291 291 292 292 293 294 296 296 297 298 300 301 303 304 304 305 306 307 308 309 310 309 310 310 309 309 309 309 309 308 307 306 304 303 303 302 299 297
291 291 291 291 290 290 290 291 292 291 292 292 295 295 295 297 299 301 302 304 303 304 304 305 306 307 307 306 306 306 306 306 306 306 305 304 303 302 301 301 298 296 292
291 291 291 291 290 290 290 291 291 291 291 291 294 293 293 295 297 299 300 301 302 303 303 303 303 304 305 304 304 303 302 303 303 302 301 301 300 299 298 298 299 295 294
290 290 290 290 290 290 289 290 290 290 290 290 290 290 291 293 294 297 298 300 301 301 301 302 302 302 302 302 302 302 302 302 299 299 298 297 297 297 296 297 297 297 296
288 288 289 289 289 289 289 289 289 290 290 290 290 290 290 290 292 294 296 297 298 300 300 301 301 301 301 300 300 300 299 298 297 295 293 293 294 294 295 294 294 294 294
287 287 287 287 287 288 289 289 289 289 289 289 289 289 289 288 288 290 292 294 295 296 298 299 301 300 300 299 299 299 298 296 295 291 290 290 291 292 292 292 292 292 292
286 286 286 286 286 287 288 289 289 289 289 288 288 289 288 288 288 288 289 291 293 295 296 297 299 299 299 298 298 298 297 295 293 291 289 291 289 289 289 290 289 289 290
286 286 285 285 286 286 287 288 288 288 288 288 288 289 288 287 287 288 289 289 290 292 295 295 296 296 297 297 297 297 296 295 292 291 290 290 288 288 287 287 288 287 286
284 284 284 285 285 286 287 288 288 287 287 287 287 288 288 288 287 287 288 288 289 291 294 295 294 295 295 295 295 295 294 293 291 290 289 289 286 286 286 286 285 284 283
284 284 284 285 285 285 286 287 286 287 286 286 286 287 287 287 287 286 287 288 289 291 293 295 293 294 294 294 293 292 292 292 291 289 288 287 286 285 285 284 284 283 282
284 284 284 284 284 285 286 286 286 286 286 285 285 286 286 287 286 286 286 287 288 289 290 293 293 293 293 292 292 291 291 291 290 289 288 288 286 285 284 284 283 283 282
283 283 283 284 285 286 286 287 287 286 286 285 285 284 285 286 285 285 285 286 287 288 289 290 292 293 292 292 292 291 292 291 290 289 288 287 286 285 284 284 284 284 283
282 283 284 284 285 285 286 286 287 286 285 285 284 284 284 285 285 285 285 286 287 287 287 289 290 291 292 292 291 291 291 290 289 289 288 287 286 286 284 284 284 284 284
282 282 284 283 284 284 285 286 286 285 285 284 284 284 285 286 286 285 286 286 286 286 286 287 289 289 291 291 291 290 290 290 290 289 288 287 286 285 284 284 284 283 284
282 282 283 283 283 284 285 285 285 285 285 285 285 285 285 285 284 284 284 286 284 284 285 286 287 288 289 290 290 290 290 289 289 289 288 287 286 286 285 284 284 283 283
282 282 282 282 282 283 283 284 284 284 284 284 284 284 284 283 284 284 285 284 284 284 284 285 286 287 288 290 290 290 290 290 290 290 289 288 287 287 285 285 284 283 283
282 282 282 282 282 283 283 284 284 284 284 283 282 282 282 283 283 283 283 283 283 283 284 285 285 285 287 288 290 290 290 290 290 289 289 288 287 287 286 285 284 284 284
281 281 281 281 281 282 282 282 282 282 282 281 281 282 282 282 282 282 283 283 284 284 284 284 285 286 287 288 289 289 290 290 290 289 288 288 287 287 286 286 285 284 284
280 280 280 280 280 281 281 281 281 281 281 280 280 280 280 280 281 282 282 283 284 284 284 284 285 286 287 288 288 289 289 289 289 289 289 287 287 286 286 286 285 284 284

GFSGL_925_thetae_099.txt.gz
Theta_e
303 303 303 304 306 308 308 309 310 311 311 313 317 319 320 323 324 324 325 324 324 324 325 324 324 325 324 324 323 324 321 320 315 310 313 312 312 312 312 311 310 309 309
302 302 302 302 302 303 302 303 304 306 308 309 310 312 315 318 321 324 324 324 324 324 324 324 323 323 323 323 322 322 321 321 318 309 308 309 311 310 311 310 308 307 307
300 300 300 299 299 300 300 300 301 302 303 305 307 308 309 311 314 317 320 321 324 324 324 324 324 323 322 322 323 322 321 321 318 314 307 308 308 309 307 306 306 306 305
299 298 297 296 296 297 297 298 298 299 300 301 303 304 306 308 308 310 312 315 317 319 322 323 324 323 322 321 321 321 320 318 317 313 309 306 306 305 306 305 304 304 304
296 295 293 293 293 293 293 294 294 295 295 297 299 301 302 304 306 306 307 308 310 312 315 318 320 321 322 323 321 318 317 316 312 309 306 304 303 303 303 302 303 303 302
293 293 292 291 291 291 291 292 292 292 293 294 295 296 298 300 301 302 303 305 306 307 308 311 313 316 317 318 319 320 319 315 312 310 306 306 303 303 303 303 302 299 297
291 292 291 291 290 290 290 290 291 291 291 292 293 295 294 296 298 300 301 302 304 305 305 306 308 310 312 313 315 315 315 316 315 313 307 306 304 306 306 302 301 300 300
291 291 290 291 290 290 290 289 290 291 290 291 291 293 294 292 292 297 299 300 301 303 304 304 305 306 308 309 311 311 311 311 310 310 310 310 310 309 308 307 305 303 299
291 290 290 290 290 290 290 289 289 290 290 290 290 290 291 291 292 294 297 299 300 301 302 304 303 304 305 306 307 308 309 308 309 310 311 310 309 308 307 305 301 298 294
288 288 287 288 288 289 289 289 289 289 289 289 290 289 289 290 291 293 294 296 298 299 300 301 303 302 303 303 304 306 304 306 306 307 307 306 305 304 303 303 302 297 295
287 286 286 286 286 286 286 286 288 288 288 289 289 289 288 289 289 291 292 294 296 297 298 299 300 302 302 302 302 303 304 304 303 303 303 302 302 301 301 300 301 301 296
286 286 286 286 286 285 285 286 286 288 288 288 289 288 288 289 288 288 290 291 293 295 296 296 297 299 301 301 301 301 302 301 301 299 298 298 298 298 298 298 298 297 297
286 286 286 285 285 285 286 285 286 286 287 288 287 287 287 288 288 288 288 289 290 291 293 295 295 297 299 300 300 300 300 298 298 295 294 295 296 297 296 295 295 295 294
285 285 285 284 285 285 285 285 285 286 287 287 287 287 287 287 287 287 287 288 288 288 289 291 293 295 297 298 299 299 298 298 297 295 292 292 293 293 294 293 292 291 291
284 284 284 284 284 284 284 284 285 286 287 288 287 287 287 287 287 288 288 288 287 288 289 290 291 294 295 296 297 298 297 296 294 293 291 291 290 290 290 290 291 289 289
283 283 283 284 284 284 284 284 285 286 288 288 287 287 287 287 288 287 287 287 287 288 289 289 291 293 294 294 295 296 295 294 294 292 290 289 287 287 286 287 288 288 288
283 283 283 283 283 283 283 284 284 285 286 286 286 286 286 286 287 287 287 286 287 287 288 290 290 292 293 293 294 295 294 293 292 291 290 288 287 286 286 284 285 285 284
282 282 282 282 283 283 284 284 284 285 285 286 286 286 286 286 286 286 286 286 285 286 287 288 289 289 292 292 292 292 292 291 291 290 289 288 287 287 285 284 283 283 283
281 281 282 283 284 284 284 284 285 285 285 286 286 285 285 285 285 286 286 285 285 286 286 287 287 288 289 291 292 292 292 291 290 289 289 288 287 286 285 284 284 284 283
280 281 282 283 283 283 283 283 284 284 285 285 284 284 284 284 284 285 285 285 285 285 286 286 286 286 288 289 291 291 290 290 290 289 288 288 287 287 286 285 284 284 284
281 281 282 282 282 282 282 283 284 284 285 284 284 284 285 286 286 285 284 284 284 285 286 284 285 285 287 288 289 290 290 290 290 289 288 288 287 286 285 285 284 284 284
281 281 281 282 282 281 282 282 283 283 284 284 284 284 285 285 284 283 283 283 283 284 284 284 284 285 285 287 288 289 289 289 289 289 288 287 286 286 285 285 285 285 284
281 282 281 281 281 281 281 282 283 283 284 284 284 283 283 282 282 282 282 283 283 283 283 283 283 284 285 285 287 288 289 289 289 289 289 287 286 285 285 284 284 283 283
281 280 280 280 280 281 280 281 282 281 282 282 282 281 281 281 281 281 281 282 282 283 283 283 283 283 284 285 285 287 288 289 289 289 289 288 287 285 285 284 284 284 283
281 279 279 279 279 279 279 280 280 281 281 281 281 280 280 280 280 280 280 280 281 282 283 283 284 284 284 285 286 286 288 289 289 289 289 288 287 286 285 285 285 284 284
279 279 279 278 278 278 279 278 278 278 278 279 279 278 278 278 279 279 279 280 280 281 283 284 284 284 284 285 286 287 288 288 288 288 289 288 287 286 286 285 286 285 284

GFSGL_925_thetae_102.txt.gz
Theta_e
301 301 301 301 302 302 302 302 303 305 307 309 309 311 313 315 319 321 323 323 324 324 323 323 323 323 324 324 324 324 323 323 322 311 312 313 312 315 315 314 312 311 312
299 299 298 298 298 298 299 299 299 301 302 303 305 307 307 308 309 312 317 318 323 324 323 323 323 323 324 323 323 323 322 321 319 309 309 310 311 313 314 313 311 310 310
299 296 294 294 293 294 295 295 295 296 296 298 300 302 303 304 307 307 308 310 313 316 320 323 323 323 322 322 322 321 322 320 319 314 308 309 309 310 311 311 310 308 308
294 293 292 292 291 291 292 292 292 292 293 294 294 295 298 300 302 303 305 306 307 308 310 313 316 319 322 322 322 321 321 319 319 315 310 308 308 307 307 306 304 305 305
293 292 291 291 290 290 290 290 290 291 291 291 291 292 293 294 297 300 301 302 303 304 306 308 310 312 315 318 320 321 320 319 317 315 307 305 305 304 304 304 303 303 304
291 291 291 290 290 290 290 289 289 289 290 290 290 290 292 293 293 293 297 299 300 301 303 305 306 307 309 310 314 316 318 318 316 314 310 308 306 306 304 303 302 302 298
290 290 290 290 290 290 289 289 289 288 289 289 289 290 290 290 291 294 294 297 298 299 300 302 304 305 305 307 309 310 313 315 316 314 312 311 307 306 306 302 303 303 302
290 289 289 288 288 289 289 288 288 288 288 288 288 289 289 289 289 291 294 293 295 297 298 300 301 303 304 304 305 307 308 310 312 313 312 312 311 309 309 307 306 303 301
288 287 286 286 286 286 286 286 286 287 288 288 288 288 289 288 288 290 291 293 294 294 296 297 299 300 302 304 303 303 305 307 309 310 311 311 310 309 307 306 301 298 294
287 286 286 285 285 285 285 285 285 285 286 287 288 288 288 288 288 289 290 290 291 293 294 295 296 298 299 301 302 302 302 304 306 307 308 308 308 308 309 308 307 299 294
285 285 285 285 285 285 285 285 285 285 285 286 287 288 288 288 288 288 289 289 290 290 291 294 295 295 297 297 300 301 302 303 304 304 305 306 305 306 306 306 307 304 299
285 285 285 285 285 285 285 285 284 284 284 285 286 287 288 288 287 288 288 289 289 289 289 290 292 293 294 296 297 299 301 301 302 301 300 300 300 302 303 302 302 301 301
285 284 284 284 284 284 284 284 284 284 284 284 285 286 287 287 286 287 287 287 288 288 287 288 289 290 292 293 296 298 299 300 299 297 296 297 299 299 300 298 298 298 297
283 283 283 283 284 284 284 283 283 283 283 284 285 286 287 287 287 286 287 288 287 287 287 287 288 289 290 292 294 297 298 299 298 297 296 296 296 296 296 296 293 293 294
283 283 283 282 283 283 283 283 283 284 285 286 286 287 287 287 286 287 288 288 288 287 288 288 287 288 289 291 293 294 296 297 295 295 294 294 292 293 291 293 293 290 290
282 282 282 283 283 282 282 283 283 284 285 286 287 287 287 287 287 287 287 287 288 287 287 287 288 288 290 290 292 293 293 294 294 294 292 291 290 289 288 288 291 289 288
282 281 282 282 282 282 282 283 283 283 284 285 286 286 287 287 287 287 286 287 287 287 285 286 287 287 288 289 290 292 292 293 293 292 291 290 289 288 287 286 287 287 286
281 281 281 281 282 282 283 283 283 283 283 284 284 285 286 286 286 286 286 287 286 285 284 285 286 286 287 288 288 290 291 292 292 291 290 289 288 287 286 286 285 286 285
280 280 281 282 282 282 282 282 282 282 283 284 284 285 284 284 285 285 286 285 285 285 285 285 285 286 285 285 287 288 290 290 291 290 289 289 288 287 286 286 285 286 285
280 281 282 282 282 281 281 281 281 282 283 283 284 284 283 283 284 284 285 285 284 284 284 285 285 285 284 285 286 287 289 289 289 289 289 288 288 287 287 286 285 285 285
280 280 282 281 281 282 282 281 281 282 282 283 283 284 284 285 285 285 284 283 283 283 283 283 285 283 284 284 285 287 288 288 289 289 289 288 287 287 286 286 285 286 284
280 280 280 281 281 281 281 282 281 281 281 282 283 283 283 283 283 282 282 282 282 282 282 283 283 283 283 283 284 285 286 287 288 289 289 288 287 287 286 285 285 285 284
281 281 280 280 280 280 280 280 279 280 281 281 281 282 281 281 281 281 281 281 281 281 281 282 282 283 282 283 284 285 285 286 287 288 289 288 287 286 286 285 285 285 284
282 279 280 280 279 280 279 279 279 279 279 279 279 280 281 280 279 279 279 279 279 279 280 281 282 283 283 283 284 284 284 286 286 288 288 288 287 286 285 285 285 285 284
280 279 279 279 279 278 278 278 278 278 277 277 278 278 278 278 278 278 278 278 279 279 279 280 281 283 283 284 284 284 285 286 287 287 288 288 287 286 285 285 284 284 284
278 278 278 278 278 277 278 278 278 277 276 276 276 276 276 276 276 276 277 277 278 279 279 279 280 281 283 283 284 284 285 286 287 287 287 288 287 286 285 284 284 284 284

GFSGL_925_thetae_105.txt.gz
Theta_e
297 297 296 297 297 298 298 299 297 298 299 300 301 304 305 306 309 309 312 315 317 320 323 324 324 324 324 324 324 323 323 324 324 324 322 322 319 318 316 318 316 315 315
295 294 293 293 292 292 292 292 293 293 293 294 295 297 299 301 303 304 306 307 308 311 314 317 323 323 323 323 323 323 323 323 323 323 316 315 314 314 314 315 314 314 313
293 293 293 291 291 291 291 291 291 291 291 291 292 293 293 294 298 300 302 303 304 305 306 309 312 314 319 322 323 323 322 322 322 320 309 310 308 309 310 311 312 312 312
292 291 291 290 290 290 290 289 289 290 290 290 290 290 291 292 293 295 297 299 300 301 302 304 306 308 310 311 314 321 321 321 319 316 310 309 309 308 309 308 306 309 309
291 291 290 290 290 289 289 289 289 288 289 289 289 289 289 290 293 295 295 296 297 298 299 301 302 303 305 306 307 311 315 319 317 315 310 308 307 306 307 306 305 304 305
290 290 289 289 289 289 288 288 287 287 287 287 288 288 288 289 289 292 293 294 294 295 297 298 299 300 301 303 306 307 307 310 316 316 313 310 309 309 307 306 304 301 300
289 288 287 287 286 286 286 286 286 286 286 286 287 287 287 288 288 291 292 292 292 293 293 295 296 297 298 300 302 304 305 307 308 312 314 311 311 310 309 305 304 304 306
288 287 286 286 286 286 286 285 285 285 285 285 286 287 287 287 288 289 290 290 290 290 292 292 294 295 296 298 300 301 302 304 306 309 310 313 314 313 311 310 307 305 303
287 286 286 285 285 285 285 285 285 285 285 285 285 286 287 287 288 288 290 290 289 289 290 291 292 294 295 296 297 299 301 301 303 305 308 309 311 313 312 306 303 299 295
286 285 285 285 285 285 285 284 284 284 284 284 284 285 286 287 288 288 289 289 289 289 289 289 290 293 294 295 296 297 298 300 301 302 304 307 309 310 310 308 302 302 296
285 285 284 284 284 284 283 284 284 284 284 284 284 285 286 287 287 287 288 289 289 289 288 288 288 289 290 291 293 294 296 297 300 300 301 303 306 306 304 305 303 304 300
284 284 284 283 283 284 284 283 283 283 283 283 283 284 286 287 287 287 287 288 288 288 288 287 287 287 288 289 290 292 294 296 298 299 299 300 301 302 302 303 302 303 304
284 283 283 283 283 283 283 283 283 283 283 283 284 285 286 286 287 286 287 287 288 288 287 287 287 287 288 288 289 290 292 294 297 297 296 297 299 300 301 299 300 300 300
283 283 283 282 283 283 282 282 282 283 283 284 284 285 286 286 286 286 286 287 288 288 287 287 288 287 287 287 287 289 292 293 296 296 296 297 297 297 296 295 292 296 294
282 282 282 282 282 282 282 282 283 283 284 285 285 286 286 287 287 287 287 287 288 288 289 288 287 287 286 287 288 289 290 292 293 294 295 295 294 293 293 293 292 291 291
282 282 281 282 282 281 282 282 283 283 284 284 285 285 286 286 287 287 287 287 287 287 288 287 285 285 286 286 287 288 288 290 291 293 292 292 292 292 291 291 292 292 289
281 281 281 281 281 281 282 282 283 283 282 283 283 284 285 286 287 287 287 286 287 287 287 285 285 285 285 286 286 286 287 289 290 291 291 291 291 291 290 289 290 291 289
281 281 281 281 281 282 282 282 281 281 282 282 282 283 284 285 285 285 285 286 286 286 285 284 285 285 285 286 285 285 286 287 289 289 290 290 290 290 289 288 288 289 287
280 280 280 281 282 282 281 281 281 281 281 281 281 282 283 284 284 284 285 285 285 285 284 284 284 284 285 285 284 284 285 288 288 289 289 289 289 288 288 288 288 288 286
279 280 281 282 282 281 281 282 281 281 281 281 282 282 282 283 284 284 284 284 284 283 283 283 283 283 283 284 283 284 284 287 287 288 289 289 288 288 288 287 287 288 287
280 280 281 280 281 281 281 281 281 281 280 280 280 281 282 282 283 282 282 282 282 282 282 282 282 282 282 282 282 283 284 285 286 287 288 289 288 288 287 287 287 288 286
280 280 280 281 280 280 280 281 280 279 279 279 280 280 280 281 281 281 280 280 281 281 281 281 281 281 281 282 282 282 283 284 286 286 287 288 288 287 287 286 286 286 285
281 281 280 280 280 280 279 280 278 278 279 279 278 278 278 279 280 280 279 279 279 279 279 279 280 280 281 282 283 283 283 284 284 285 286 287 288 287 287 286 286 285 285
281 280 279 279 279 280 278 278 278 278 278 278 278 277 277 277 277 277 278 277 278 278 278 279 279 279 280 281 282 283 283 284 284 285 286 287 287 287 286 286 286 285 285
279 278 277 278 277 277 277 277 277 278 277 277 277 276 276 276 276 276 276 276 277 277 278 278 278 279 280 280 281 283 284 284 284 285 286 287 287 287 286 285 285 285 284
277 276 277 276 276 276 276 276 277 277 277 276 276 276 275 275 275 275 275 276 276 276 277 278 279 279 280 281 281 282 283 284 285 286 287 287 287 286 285 285 285 285 285

GFSGL_925_thetae_108.txt.gz
Theta_e
295 294 294 293 293 295 296 294 294 294 294 295 295 296 297 299 301 303 304 305 307 308 310 312 315 319 324 325 324 324 325 325 325 324 324 324 323 323 323 323 323 323 322
294 293 292 292 292 292 292 292 293 293 292 293 294 294 295 296 297 299 301 302 303 304 305 306 308 309 314 317 323 324 324 324 324 323 323 321 322 322 321 320 318 318 318
293 293 292 292 292 291 291 291 291 292 292 292 292 292 293 294 295 296 296 297 298 299 301 303 304 306 308 309 310 313 319 322 322 322 322 318 317 315 313 314 314 314 315
293 292 292 291 291 291 291 290 290 290 291 290 290 291 291 292 293 294 294 295 295 296 298 300 301 302 303 303 306 307 309 312 319 321 319 313 311 311 310 309 308 310 312
292 292 291 291 291 290 290 289 288 288 289 289 289 289 289 290 290 292 293 293 294 294 294 295 297 298 298 300 302 304 306 308 310 314 312 309 307 307 307 307 308 307 308
291 291 290 289 289 288 288 288 287 287 287 288 288 288 289 289 289 291 291 291 292 292 292 293 294 295 296 297 299 300 301 303 306 308 312 312 311 310 308 307 307 303 301
290 289 288 288 288 287 287 287 287 287 287 287 287 288 288 288 289 290 290 290 291 291 291 292 292 293 295 295 296 297 299 301 303 304 306 309 312 311 310 307 307 306 308
289 288 287 287 287 287 287 287 287 287 287 287 287 287 287 288 288 289 290 290 290 290 290 290 291 291 291 294 294 295 296 297 299 302 304 306 308 311 311 310 309 308 307
288 288 287 287 286 286 286 286 286 286 286 286 286 286 287 287 288 289 289 289 290 290 289 289 290 290 291 291 292 293 294 294 296 298 300 301 302 304 309 309 307 304 296
287 287 286 286 286 285 285 285 285 285 285 286 286 286 286 287 288 288 289 289 289 289 289 289 289 289 289 289 290 290 290 291 294 295 297 298 300 302 305 308 307 305 304
286 285 285 285 285 284 285 285 285 285 285 285 286 286 286 287 288 288 288 288 288 289 289 288 288 288 288 288 289 289 289 290 291 293 295 297 298 300 301 305 307 306 304
285 285 284 284 284 284 284 285 285 285 285 285 286 286 287 287 287 288 288 288 288 288 288 288 288 288 288 288 288 288 288 289 290 291 293 295 297 298 299 302 305 305 305
284 284 284 284 284 284 284 284 285 285 285 285 286 286 286 286 287 287 287 287 287 288 288 288 288 288 288 288 287 287 287 288 290 292 292 294 296 297 298 299 301 302 302
284 284 284 284 284 284 284 284 284 285 285 285 285 286 286 286 286 287 287 287 288 288 288 288 288 289 288 287 287 287 288 288 289 289 292 292 294 296 296 297 296 296 297
283 283 284 283 284 283 283 283 283 284 284 285 285 285 285 286 286 286 287 288 288 288 288 288 288 288 287 286 286 286 287 288 288 289 290 290 292 293 293 294 293 291 294
283 284 283 283 283 283 283 284 284 284 284 283 284 284 284 285 285 286 287 288 287 287 287 288 288 287 286 286 286 286 286 286 287 287 288 289 291 291 292 290 291 292 293
283 283 283 283 283 283 283 283 283 283 282 283 283 283 283 284 284 285 285 285 285 286 287 287 286 286 285 286 286 286 286 286 285 287 288 289 289 290 290 290 290 291 292
282 282 282 282 282 283 283 283 282 282 282 282 282 282 283 283 283 284 284 285 285 286 286 286 286 285 285 285 285 286 285 285 285 286 288 288 289 289 290 290 290 291 290
282 281 281 282 283 283 283 282 282 282 282 282 282 282 282 282 283 283 285 285 285 285 285 285 284 284 284 284 284 285 284 284 285 285 287 288 289 289 290 289 290 290 290
281 281 281 282 283 282 282 282 282 282 282 282 281 281 281 282 282 282 283 282 282 283 283 283 283 283 283 283 283 283 283 284 284 285 286 287 288 289 289 289 289 290 289
281 281 282 282 282 282 281 281 281 281 281 281 280 280 280 281 280 281 281 281 281 281 281 281 282 282 282 282 282 282 283 283 283 284 285 286 287 288 288 288 288 289 289
281 281 282 281 281 281 281 281 281 280 280 280 280 279 279 279 279 279 280 281 280 280 280 280 280 280 280 281 281 282 283 283 283 284 285 285 286 288 288 288 288 288 287
281 281 281 281 281 281 281 281 280 280 280 279 279 279 279 279 278 278 278 278 278 278 278 278 279 279 279 280 280 281 282 283 283 284 284 284 286 287 288 288 287 288 287
281 281 280 279 280 280 280 279 279 279 279 279 279 279 278 278 278 278 278 278 278 278 278 278 278 279 279 279 280 280 281 283 283 284 284 284 285 287 287 287 287 287 286
280 279 278 278 279 278 278 278 278 278 279 278 278 278 278 278 278 278 277 277 277 277 277 277 278 278 278 279 279 280 280 281 282 283 284 285 286 286 287 287 286 286 285
278 277 277 277 277 277 277 277 278 278 278 278 278 278 278 278 277 277 277 277 277 277 277 277 278 278 279 279 280 281 281 282 283 284 285 286 286 287 286 286 286 286 285

GFSGL_925_thetae_111.txt.gz
Theta_e
294 294 293 293 292 292 292 293 293 293 293 293 293 294 295 295 296 297 296 299 299 301 302 302 305 306 308 311 312 317 323 324 324 323 322 323 324 324 324 323 323 323 323
294 293 293 293 292 292 292 291 292 293 293 293 293 293 294 294 295 296 296 297 298 298 299 300 302 303 304 306 306 307 309 311 317 322 323 323 322 322 323 324 323 323 322
294 294 293 293 293 292 292 291 291 291 291 291 291 291 292 292 293 294 294 295 295 296 297 298 300 301 302 300 302 305 306 308 309 311 320 321 321 321 321 321 321 321 322
294 293 293 292 292 291 291 290 290 289 289 290 290 290 290 290 291 291 292 293 293 294 294 295 295 297 297 298 300 301 302 304 307 308 310 315 315 316 315 314 314 315 314
293 293 292 291 290 290 289 289 289 288 289 289 289 289 289 289 290 290 291 291 291 292 292 292 293 294 294 296 297 298 298 300 302 304 307 309 309 308 309 311 310 310 309
293 292 291 290 289 289 289 289 288 288 288 288 288 288 288 289 289 290 291 291 290 291 292 292 292 292 292 294 295 295 296 296 298 300 302 305 307 310 310 310 308 305 302
292 291 290 289 289 289 288 288 288 288 288 288 288 288 288 288 289 289 290 290 290 291 291 291 291 291 291 291 293 294 294 295 296 297 299 301 305 306 308 309 307 307 308
291 290 289 288 288 288 288 288 288 287 287 287 287 288 287 288 288 289 289 289 290 290 290 290 290 290 290 291 291 291 291 292 293 293 295 296 298 299 300 302 306 308 307
290 289 288 288 288 287 287 287 287 287 287 287 287 287 287 287 288 288 289 289 290 290 290 290 290 290 290 290 289 289 290 290 290 290 291 293 294 296 297 299 302 306 303
289 288 287 287 287 286 286 286 286 286 286 286 287 287 287 287 288 289 289 289 289 289 289 289 289 289 289 289 289 288 288 288 288 289 290 290 292 294 296 297 300 303 305
287 287 286 286 286 285 285 286 286 286 286 286 287 287 287 288 288 288 288 289 289 288 288 288 289 289 289 289 289 289 289 289 288 288 288 289 291 292 294 297 298 300 303
286 286 285 285 285 285 285 286 286 286 286 286 287 287 287 287 287 287 288 288 288 288 288 288 288 289 289 289 289 289 289 288 288 288 289 290 291 293 292 294 296 298 299
285 285 285 285 285 285 285 285 285 286 286 286 286 286 286 286 286 287 287 288 288 288 288 288 289 289 289 288 289 288 288 287 288 288 288 289 289 289 291 292 294 294 296
285 285 285 285 285 285 285 285 285 285 285 285 285 286 286 285 285 286 286 286 287 287 288 289 288 289 288 288 288 287 287 287 287 287 288 288 287 288 289 291 293 294 293
284 285 285 285 285 285 284 285 285 285 285 285 285 285 284 285 285 285 285 286 286 287 287 287 288 288 288 288 287 287 286 286 287 287 286 286 287 287 288 290 291 292 292
284 285 285 284 284 284 284 285 285 285 285 284 284 284 284 284 284 284 285 285 286 286 286 286 287 287 287 287 286 286 286 286 286 286 285 286 287 288 288 289 290 291 291
284 284 284 284 284 284 284 284 284 284 284 284 284 283 284 283 284 284 284 284 285 286 286 286 286 287 286 286 286 285 285 286 286 286 285 285 286 288 288 289 290 290 290
283 283 283 283 283 284 284 284 284 283 283 283 283 283 283 283 283 283 283 284 285 285 285 285 285 286 285 285 285 285 284 284 285 284 285 285 285 287 288 289 290 290 290
283 283 283 283 283 284 284 283 283 283 283 283 282 282 282 281 281 282 282 282 283 283 283 283 283 283 283 283 283 283 283 283 284 283 284 284 285 286 287 289 289 290 290
283 282 282 282 283 283 283 282 282 282 282 282 282 282 281 281 281 281 280 281 282 282 282 282 282 282 282 282 282 282 282 282 283 283 283 284 284 286 286 288 289 290 290
282 282 282 283 282 282 282 282 282 282 282 281 281 281 281 281 281 280 280 280 280 281 281 281 280 281 281 281 281 281 281 282 283 283 283 284 285 285 286 287 289 289 289
282 282 282 282 282 282 282 282 282 281 281 281 280 280 280 280 280 279 279 279 279 279 279 279 279 279 279 279 280 280 280 281 282 283 283 284 284 285 286 286 288 288 289
282 282 282 282 281 281 281 281 281 280 280 280 280 280 280 279 279 279 279 279 279 279 278 278 279 279 279 279 280 280 280 280 281 282 283 284 284 285 285 286 288 288 288
282 282 282 281 280 280 281 280 280 280 280 279 280 279 279 279 279 279 279 279 279 278 278 278 278 278 278 279 279 279 279 280 280 281 281 282 284 284 285 286 288 287 288
282 281 280 279 279 279 279 279 279 279 279 279 279 279 279 279 279 279 279 279 279 279 278 278 278 278 278 279 279 279 279 279 280 280 281 283 284 285 286 287 287 287 287
281 279 278 278 278 278 278 278 278 278 278 278 278 278 278 279 279 279 279 280 280 279 279 279 279 279 279 279 280 280 280 280 281 282 283 284 284 285 287 287 287 287 286

GFSGL_925_thetae_114.txt.gz
Theta_e
294 294 293 293 293 292 292 292 292 293 292 292 293 293 294 294 295 296 296 296 297 297 297 298 300 302 302 304 301 302 307 308 311 312 314 320 324 325 325 325 325 324 324
294 293 293 293 293 292 292 291 291 291 291 291 291 291 291 292 292 293 293 294 295 296 296 296 297 298 301 299 298 302 303 305 306 308 309 311 316 322 324 324 324 324 323
294 293 293 292 292 291 290 290 289 289 289 289 289 289 290 290 290 291 290 292 292 292 293 294 294 295 296 294 298 297 300 300 302 304 306 307 310 312 316 319 319 320 322
293 293 292 291 290 290 289 289 288 288 288 288 288 289 289 289 289 290 289 290 291 291 291 292 292 293 293 293 297 296 297 297 298 300 302 305 307 308 311 312 314 317 318
293 292 291 290 289 289 289 288 288 288 288 288 288 288 288 288 289 290 290 290 290 290 291 291 291 291 291 293 293 295 295 296 296 297 299 299 302 304 307 308 309 311 312
292 291 290 289 289 288 288 288 288 288 288 288 288 288 288 288 289 290 290 290 289 290 290 290 291 291 291 291 292 293 293 294 295 295 295 297 298 301 302 302 304 306 303
292 291 290 289 288 288 288 288 288 287 287 287 287 287 287 287 288 289 289 289 289 289 289 290 290 290 290 290 290 290 290 290 291 292 293 293 294 295 296 297 298 300 304
291 290 289 288 288 288 287 287 287 286 286 286 287 287 287 287 288 289 289 289 289 289 289 289 290 290 290 290 290 289 288 288 288 289 289 290 290 291 293 294 296 297 300
291 289 288 288 287 287 286 286 286 286 286 286 286 286 287 287 287 288 289 289 288 289 289 289 289 289 289 290 289 289 288 288 288 288 288 289 289 290 290 292 294 296 297
289 288 287 287 286 286 286 285 286 286 286 286 286 286 287 287 287 288 289 289 289 288 288 288 288 289 289 289 289 289 288 289 289 289 288 287 288 288 290 291 293 295 296
288 287 286 286 285 285 285 285 286 286 286 286 286 286 286 287 287 288 288 288 288 288 288 288 288 288 289 289 289 289 289 289 289 288 287 287 288 289 289 291 292 291 293
286 286 285 285 285 285 285 285 285 285 285 286 286 286 286 286 286 286 287 288 288 288 288 288 288 288 289 289 289 289 289 289 287 287 287 287 287 287 288 288 288 288 290
285 285 285 285 285 285 285 285 285 285 285 285 285 285 285 285 285 285 285 286 286 286 287 287 288 289 289 289 288 288 289 288 286 286 286 287 287 286 287 286 286 287 289
284 285 285 285 285 285 285 285 284 284 284 284 284 284 284 284 284 284 284 285 285 285 286 286 287 287 287 287 287 287 288 287 286 286 286 286 286 285 285 285 286 287 288
284 284 284 285 285 284 284 284 284 285 285 285 285 285 284 284 284 285 285 285 285 285 286 286 286 285 286 286 287 287 286 286 286 286 285 286 285 285 285 286 287 287 288
284 284 284 284 284 284 284 284 284 285 285 285 285 285 284 284 284 284 284 285 284 284 285 285 285 285 285 286 286 286 286 285 285 285 285 285 285 284 284 285 287 287 288
283 283 283 284 283 283 283 284 284 284 284 284 284 284 284 284 284 283 284 283 284 284 284 285 285 285 286 286 285 285 284 284 284 284 283 284 283 283 284 284 285 287 288
283 283 284 283 283 283 283 283 284 283 283 282 283 283 283 283 283 282 283 283 281 281 282 283 283 283 283 283 283 283 283 283 283 282 283 283 283 283 283 284 285 286 288
282 283 283 282 282 283 283 283 283 282 282 282 282 282 281 281 282 282 281 280 280 280 281 281 281 282 282 282 282 282 282 282 282 282 282 282 282 283 283 284 285 286 288
282 283 283 283 282 283 283 282 282 282 282 282 282 281 281 281 281 281 280 280 279 279 280 280 281 281 281 280 281 281 281 281 281 281 281 282 283 283 283 284 284 285 287
282 282 282 283 283 282 282 282 282 282 282 282 281 281 281 281 281 280 279 279 279 279 279 279 279 279 279 279 279 279 279 279 279 279 280 281 282 283 284 284 284 286 287
282 282 282 282 282 282 282 281 282 281 281 281 280 279 280 280 279 279 279 279 279 279 279 279 279 279 278 278 278 279 279 279 279 279 280 280 281 282 283 284 285 285 287
281 281 282 282 282 281 280 280 281 280 280 280 279 279 279 279 279 279 279 279 279 279 279 279 279 278 278 278 278 279 279 279 279 280 280 280 281 280 282 284 285 285 287
281 281 282 281 281 280 280 280 280 280 279 279 279 279 278 278 278 279 279 279 279 279 280 279 279 279 279 279 278 278 278 278 279 279 279 280 279 280 281 283 285 286 287
281 281 281 281 279 278 278 278 279 279 278 278 278 278 278 278 278 278 279 279 280 280 280 280 280 280 280 280 280 279 279 279 279 279 280 280 281 281 282 284 285 287 287
281 281 280 279 278 277 278 278 278 278 278 277 277 277 277 278 278 278 279 280 280 281 281 282 282 283 283 282 282 282 281 280 281 281 282 283 283 283 284 285 286 287 287

GFSGL_925_thetae_117.txt.gz
Theta_e
294 293 293 293 292 292 291 290 290 290 290 290 290 290 290 291 292 292 293 293 294 295 295 295 296 297 301 297 294 300 301 302 306 305 306 306 308 307 312 318 323 323 324
294 293 293 292 291 290 289 289 288 288 289 289 289 289 289 289 291 291 289 290 291 292 292 293 294 296 296 294 294 297 298 299 300 302 302 303 304 306 307 310 315 321 323
293 293 292 291 290 289 289 288 288 288 288 288 288 288 288 289 290 290 289 289 289 290 291 292 292 292 292 292 295 295 295 296 296 297 298 299 302 303 305 308 309 311 314
293 292 291 290 289 289 288 288 288 288 288 288 288 288 288 288 289 290 290 290 289 289 290 291 291 291 290 293 292 293 296 295 295 295 296 297 298 299 301 304 305 306 307
293 292 291 290 289 288 288 288 288 288 287 287 287 287 287 287 288 290 290 290 289 288 289 290 290 290 291 291 292 293 292 291 292 294 294 295 295 297 296 297 298 299 301
292 291 290 289 288 288 288 287 287 287 287 286 287 287 287 287 288 290 290 289 289 288 289 289 289 290 290 290 291 291 290 290 291 291 292 292 292 292 293 294 295 296 299
292 291 290 289 288 288 287 287 286 286 286 286 286 286 286 287 288 289 290 289 288 288 288 288 289 289 290 289 290 289 288 289 288 289 289 288 289 289 290 291 292 293 294
291 290 289 289 288 287 286 286 286 286 286 286 286 286 286 286 287 289 289 289 289 288 288 288 288 288 289 290 290 289 289 288 288 288 288 288 288 289 289 289 290 290 292
291 290 289 288 287 286 286 285 285 285 286 286 286 286 286 287 287 289 289 289 288 288 288 288 288 288 288 290 290 289 289 289 289 288 289 289 288 288 288 289 289 290 291
290 289 288 287 286 285 285 285 285 285 285 285 286 286 286 286 287 288 288 288 288 288 288 288 288 288 288 289 289 289 289 289 289 289 288 286 286 287 287 288 289 290 290
289 288 286 286 285 285 285 285 285 285 285 285 285 286 285 285 286 286 287 287 287 288 288 287 287 287 288 289 289 290 289 289 289 289 286 286 286 286 286 286 287 288 287
288 286 286 285 285 285 285 285 285 284 284 285 285 285 285 285 285 285 285 286 286 286 286 286 286 286 288 288 289 289 289 289 289 287 286 286 286 286 286 286 285 285 286
286 285 285 285 285 285 285 285 284 284 284 284 284 284 284 284 284 284 284 285 285 285 285 285 286 286 287 287 286 287 287 287 287 286 286 286 285 285 286 285 284 284 285
285 284 284 284 285 285 284 284 284 284 284 284 284 284 284 284 284 284 284 285 285 285 285 285 285 286 286 286 286 285 285 286 287 286 285 285 285 285 285 285 284 284 285
284 284 284 284 284 284 284 284 284 284 285 285 285 285 285 284 284 285 285 285 285 285 285 285 285 284 284 284 285 285 285 286 285 285 285 284 284 284 284 284 283 283 284
284 284 284 284 284 284 283 283 283 284 284 285 285 284 284 285 284 284 284 284 284 284 284 283 283 284 284 284 284 285 285 284 284 283 284 284 282 282 283 282 283 283 283
284 283 283 284 283 283 283 283 283 283 283 283 283 283 284 283 284 283 283 283 283 283 280 281 281 282 282 282 282 283 282 282 282 282 283 282 281 282 282 282 282 282 283
283 283 283 284 283 282 282 282 283 283 282 282 282 282 283 283 282 282 283 283 281 280 280 280 280 281 281 281 281 281 281 281 281 281 281 281 282 281 281 281 281 281 282
283 283 283 283 282 282 283 283 282 282 282 282 281 281 281 281 281 282 282 280 280 279 279 279 279 280 280 280 280 280 280 280 280 281 281 280 280 280 281 281 282 283 284
283 282 283 284 283 282 282 282 282 282 282 281 281 281 281 281 281 281 280 279 279 279 279 279 279 279 279 279 278 278 279 279 279 279 279 279 279 279 281 282 282 282 283
282 282 283 283 283 282 282 282 282 281 281 281 281 280 281 281 281 279 279 279 279 279 279 279 279 279 278 278 278 278 278 278 278 278 278 278 278 280 280 281 282 282 283
282 282 282 282 282 282 282 282 281 280 280 281 280 279 280 279 279 279 279 279 279 279 279 279 279 279 279 279 278 278 278 278 278 278 278 278 279 279 279 280 281 281 283
282 282 282 281 282 282 282 280 280 280 280 280 279 279 279 278 278 278 278 278 279 279 279 279 279 279 279 279 279 279 278 278 278 278 278 279 279 279 279 279 279 281 283
282 282 281 281 281 281 281 279 279 279 279 279 278 278 278 278 277 278 278 279 279 279 280 280 280 280 280 280 280 280 279 279 279 278 278 278 278 279 279 279 280 281 283
282 281 281 281 281 280 279 278 278 278 278 278 277 277 277 277 277 278 278 279 280 280 280 281 281 282 282 283 283 282 282 281 279 279 279 279 279 280 280 280 281 282 283
282 281 281 280 280 279 278 277 277 277 277 277 277 277 276 277 277 278 279 280 280 280 281 282 283 284 285 285 285 284 284 281 281 281 281 282 282 282 282 282 283 284 285